<?xml version="1.0" encoding="UTF-8" standalone="no" ?>
<gpx xmlns="http://www.topografix.com/GPX/1/1" xmlns:xsi="http://www.w3.org/2001/XMLSchema-instance" xsi:schemaLocation="http://www.topografix.com/GPX/1/1 http://www.topografix.com/GPX/1/1/gpx.xsd" version="1.1" creator="VisuGPX - https://www.visugpx.com">
  <metadata>
    <name>Petite Miaz (tour anti horaire)</name>
    <desc><![CDATA[                                                 ]]></desc>
  </metadata>
  <trk>
    <name><![CDATA[20190323193911-bldSv]]></name>
    <trkseg>
      <trkpt lat="45.94316" lon="6.50134">
        <ele>1094.6</ele>
        <time>2019-03-20T09:01:26Z</time>
      </trkpt>
      <trkpt lat="45.94317" lon="6.50135">
        <ele>1074.41</ele>
        <time>2019-03-20T09:01:27Z</time>
      </trkpt>
      <trkpt lat="45.94317" lon="6.50136">
        <ele>1074.41</ele>
        <time>2019-03-20T09:01:28Z</time>
      </trkpt>
      <trkpt lat="45.94314" lon="6.50123">
        <ele>1094.6</ele>
        <time>2019-03-20T09:01:32Z</time>
      </trkpt>
      <trkpt lat="45.94313" lon="6.50127">
        <ele>1094.6</ele>
        <time>2019-03-20T09:01:33Z</time>
      </trkpt>
      <trkpt lat="45.94322" lon="6.50136">
        <ele>1094.6</ele>
        <time>2019-03-20T09:01:40Z</time>
      </trkpt>
      <trkpt lat="45.94351" lon="6.50172">
        <ele>1095.56</ele>
        <time>2019-03-20T09:02:04Z</time>
      </trkpt>
      <trkpt lat="45.94372" lon="6.50214">
        <ele>1095.08</ele>
        <time>2019-03-20T09:02:26Z</time>
      </trkpt>
      <trkpt lat="45.9439" lon="6.50246">
        <ele>1097</ele>
        <time>2019-03-20T09:02:46Z</time>
      </trkpt>
      <trkpt lat="45.94397" lon="6.50257">
        <ele>1097.48</ele>
        <time>2019-03-20T09:02:53Z</time>
      </trkpt>
      <trkpt lat="45.94398" lon="6.50258">
        <ele>1097.96</ele>
        <time>2019-03-20T09:02:54Z</time>
      </trkpt>
      <trkpt lat="45.9442" lon="6.50294">
        <ele>1098.44</ele>
        <time>2019-03-20T09:03:16Z</time>
      </trkpt>
      <trkpt lat="45.94421" lon="6.50297">
        <ele>1098.44</ele>
        <time>2019-03-20T09:03:17Z</time>
      </trkpt>
      <trkpt lat="45.94422" lon="6.50299">
        <ele>1098.44</ele>
        <time>2019-03-20T09:03:18Z</time>
      </trkpt>
      <trkpt lat="45.94423" lon="6.50301">
        <ele>1098.92</ele>
        <time>2019-03-20T09:03:19Z</time>
      </trkpt>
      <trkpt lat="45.94423" lon="6.50302">
        <ele>1098.92</ele>
        <time>2019-03-20T09:03:20Z</time>
      </trkpt>
      <trkpt lat="45.94424" lon="6.50304">
        <ele>1098.92</ele>
        <time>2019-03-20T09:03:21Z</time>
      </trkpt>
      <trkpt lat="45.94429" lon="6.5035">
        <ele>1098.92</ele>
        <time>2019-03-20T09:03:45Z</time>
      </trkpt>
      <trkpt lat="45.94443" lon="6.50389">
        <ele>1099.89</ele>
        <time>2019-03-20T09:04:09Z</time>
      </trkpt>
      <trkpt lat="45.94445" lon="6.50391">
        <ele>1100.37</ele>
        <time>2019-03-20T09:04:12Z</time>
      </trkpt>
      <trkpt lat="45.94446" lon="6.50393">
        <ele>1100.37</ele>
        <time>2019-03-20T09:04:13Z</time>
      </trkpt>
      <trkpt lat="45.94447" lon="6.50394">
        <ele>1100.37</ele>
        <time>2019-03-20T09:04:14Z</time>
      </trkpt>
      <trkpt lat="45.94448" lon="6.50396">
        <ele>1100.37</ele>
        <time>2019-03-20T09:04:16Z</time>
      </trkpt>
      <trkpt lat="45.94449" lon="6.50398">
        <ele>1100.37</ele>
        <time>2019-03-20T09:04:17Z</time>
      </trkpt>
      <trkpt lat="45.9445" lon="6.50399">
        <ele>1100.37</ele>
        <time>2019-03-20T09:04:18Z</time>
      </trkpt>
      <trkpt lat="45.9445" lon="6.50401">
        <ele>1100.37</ele>
        <time>2019-03-20T09:04:19Z</time>
      </trkpt>
      <trkpt lat="45.9445" lon="6.50402">
        <ele>1100.37</ele>
        <time>2019-03-20T09:04:20Z</time>
      </trkpt>
      <trkpt lat="45.94451" lon="6.50409">
        <ele>1100.37</ele>
        <time>2019-03-20T09:04:24Z</time>
      </trkpt>
      <trkpt lat="45.94447" lon="6.50414">
        <ele>1101.33</ele>
        <time>2019-03-20T09:04:30Z</time>
      </trkpt>
      <trkpt lat="45.94448" lon="6.50416">
        <ele>1101.33</ele>
        <time>2019-03-20T09:04:31Z</time>
      </trkpt>
      <trkpt lat="45.94467" lon="6.5048">
        <ele>1102.29</ele>
        <time>2019-03-20T09:05:04Z</time>
      </trkpt>
      <trkpt lat="45.94468" lon="6.5049">
        <ele>1102.77</ele>
        <time>2019-03-20T09:05:10Z</time>
      </trkpt>
      <trkpt lat="45.94472" lon="6.50515">
        <ele>1103.73</ele>
        <time>2019-03-20T09:05:24Z</time>
      </trkpt>
      <trkpt lat="45.94473" lon="6.50516">
        <ele>1103.73</ele>
        <time>2019-03-20T09:05:25Z</time>
      </trkpt>
      <trkpt lat="45.94473" lon="6.50518">
        <ele>1104.21</ele>
        <time>2019-03-20T09:05:26Z</time>
      </trkpt>
      <trkpt lat="45.94474" lon="6.5052">
        <ele>1104.21</ele>
        <time>2019-03-20T09:05:27Z</time>
      </trkpt>
      <trkpt lat="45.94475" lon="6.50522">
        <ele>1104.21</ele>
        <time>2019-03-20T09:05:28Z</time>
      </trkpt>
      <trkpt lat="45.94475" lon="6.50524">
        <ele>1104.21</ele>
        <time>2019-03-20T09:05:29Z</time>
      </trkpt>
      <trkpt lat="45.94477" lon="6.50532">
        <ele>1104.21</ele>
        <time>2019-03-20T09:05:33Z</time>
      </trkpt>
      <trkpt lat="45.94478" lon="6.50533">
        <ele>1104.21</ele>
        <time>2019-03-20T09:05:34Z</time>
      </trkpt>
      <trkpt lat="45.94478" lon="6.50535">
        <ele>1104.69</ele>
        <time>2019-03-20T09:05:35Z</time>
      </trkpt>
      <trkpt lat="45.94478" lon="6.50537">
        <ele>1104.69</ele>
        <time>2019-03-20T09:05:36Z</time>
      </trkpt>
      <trkpt lat="45.94479" lon="6.50539">
        <ele>1105.17</ele>
        <time>2019-03-20T09:05:37Z</time>
      </trkpt>
      <trkpt lat="45.94487" lon="6.5057">
        <ele>1108.54</ele>
        <time>2019-03-20T09:05:57Z</time>
      </trkpt>
      <trkpt lat="45.94488" lon="6.50571">
        <ele>1108.54</ele>
        <time>2019-03-20T09:05:58Z</time>
      </trkpt>
      <trkpt lat="45.94504" lon="6.50607">
        <ele>1109.5</ele>
        <time>2019-03-20T09:06:19Z</time>
      </trkpt>
      <trkpt lat="45.94505" lon="6.50609">
        <ele>1109.5</ele>
        <time>2019-03-20T09:06:20Z</time>
      </trkpt>
      <trkpt lat="45.94505" lon="6.5061">
        <ele>1109.5</ele>
        <time>2019-03-20T09:06:21Z</time>
      </trkpt>
      <trkpt lat="45.94506" lon="6.50611">
        <ele>1109.5</ele>
        <time>2019-03-20T09:06:22Z</time>
      </trkpt>
      <trkpt lat="45.94506" lon="6.50613">
        <ele>1109.98</ele>
        <time>2019-03-20T09:06:23Z</time>
      </trkpt>
      <trkpt lat="45.94507" lon="6.50614">
        <ele>1109.98</ele>
        <time>2019-03-20T09:06:24Z</time>
      </trkpt>
      <trkpt lat="45.94508" lon="6.50615">
        <ele>1109.98</ele>
        <time>2019-03-20T09:06:25Z</time>
      </trkpt>
      <trkpt lat="45.94509" lon="6.50617">
        <ele>1109.98</ele>
        <time>2019-03-20T09:06:26Z</time>
      </trkpt>
      <trkpt lat="45.9451" lon="6.50618">
        <ele>1109.98</ele>
        <time>2019-03-20T09:06:27Z</time>
      </trkpt>
      <trkpt lat="45.94523" lon="6.50641">
        <ele>1112.38</ele>
        <time>2019-03-20T09:06:43Z</time>
      </trkpt>
      <trkpt lat="45.94524" lon="6.50643">
        <ele>1112.38</ele>
        <time>2019-03-20T09:06:44Z</time>
      </trkpt>
      <trkpt lat="45.94525" lon="6.50644">
        <ele>1112.38</ele>
        <time>2019-03-20T09:06:45Z</time>
      </trkpt>
      <trkpt lat="45.94526" lon="6.50646">
        <ele>1112.86</ele>
        <time>2019-03-20T09:06:46Z</time>
      </trkpt>
      <trkpt lat="45.94526" lon="6.50647">
        <ele>1112.86</ele>
        <time>2019-03-20T09:06:47Z</time>
      </trkpt>
      <trkpt lat="45.94527" lon="6.50649">
        <ele>1112.86</ele>
        <time>2019-03-20T09:06:48Z</time>
      </trkpt>
      <trkpt lat="45.94527" lon="6.5065">
        <ele>1112.86</ele>
        <time>2019-03-20T09:06:49Z</time>
      </trkpt>
      <trkpt lat="45.94533" lon="6.50659">
        <ele>1113.82</ele>
        <time>2019-03-20T09:06:56Z</time>
      </trkpt>
      <trkpt lat="45.94534" lon="6.50661">
        <ele>1113.82</ele>
        <time>2019-03-20T09:06:57Z</time>
      </trkpt>
      <trkpt lat="45.94534" lon="6.50662">
        <ele>1114.31</ele>
        <time>2019-03-20T09:06:58Z</time>
      </trkpt>
      <trkpt lat="45.94535" lon="6.50663">
        <ele>1114.31</ele>
        <time>2019-03-20T09:06:59Z</time>
      </trkpt>
      <trkpt lat="45.94535" lon="6.50665">
        <ele>1114.79</ele>
        <time>2019-03-20T09:07:00Z</time>
      </trkpt>
      <trkpt lat="45.94542" lon="6.50686">
        <ele>1116.71</ele>
        <time>2019-03-20T09:07:13Z</time>
      </trkpt>
      <trkpt lat="45.94542" lon="6.50688">
        <ele>1116.71</ele>
        <time>2019-03-20T09:07:14Z</time>
      </trkpt>
      <trkpt lat="45.94543" lon="6.50691">
        <ele>1116.71</ele>
        <time>2019-03-20T09:07:16Z</time>
      </trkpt>
      <trkpt lat="45.94544" lon="6.50692">
        <ele>1116.71</ele>
        <time>2019-03-20T09:07:17Z</time>
      </trkpt>
      <trkpt lat="45.94549" lon="6.5071">
        <ele>1117.67</ele>
        <time>2019-03-20T09:07:26Z</time>
      </trkpt>
      <trkpt lat="45.94552" lon="6.50718">
        <ele>1119.11</ele>
        <time>2019-03-20T09:07:32Z</time>
      </trkpt>
      <trkpt lat="45.94553" lon="6.5072">
        <ele>1119.59</ele>
        <time>2019-03-20T09:07:33Z</time>
      </trkpt>
      <trkpt lat="45.94553" lon="6.50721">
        <ele>1119.59</ele>
        <time>2019-03-20T09:07:34Z</time>
      </trkpt>
      <trkpt lat="45.9456" lon="6.50747">
        <ele>1119.59</ele>
        <time>2019-03-20T09:07:48Z</time>
      </trkpt>
      <trkpt lat="45.9456" lon="6.50749">
        <ele>1119.59</ele>
        <time>2019-03-20T09:07:49Z</time>
      </trkpt>
      <trkpt lat="45.94585" lon="6.50784">
        <ele>1121.52</ele>
        <time>2019-03-20T09:08:18Z</time>
      </trkpt>
      <trkpt lat="45.94586" lon="6.50785">
        <ele>1121.52</ele>
        <time>2019-03-20T09:08:19Z</time>
      </trkpt>
      <trkpt lat="45.94587" lon="6.50786">
        <ele>1121.52</ele>
        <time>2019-03-20T09:08:20Z</time>
      </trkpt>
      <trkpt lat="45.94588" lon="6.50786">
        <ele>1122</ele>
        <time>2019-03-20T09:08:21Z</time>
      </trkpt>
      <trkpt lat="45.94589" lon="6.50787">
        <ele>1122</ele>
        <time>2019-03-20T09:08:22Z</time>
      </trkpt>
      <trkpt lat="45.9459" lon="6.50788">
        <ele>1122</ele>
        <time>2019-03-20T09:08:23Z</time>
      </trkpt>
      <trkpt lat="45.94597" lon="6.50792">
        <ele>1122.96</ele>
        <time>2019-03-20T09:08:29Z</time>
      </trkpt>
      <trkpt lat="45.9461" lon="6.508">
        <ele>1125.84</ele>
        <time>2019-03-20T09:08:43Z</time>
      </trkpt>
      <trkpt lat="45.94627" lon="6.5081">
        <ele>1129.21</ele>
        <time>2019-03-20T09:09:00Z</time>
      </trkpt>
      <trkpt lat="45.9464" lon="6.50822">
        <ele>1131.13</ele>
        <time>2019-03-20T09:09:13Z</time>
      </trkpt>
      <trkpt lat="45.94644" lon="6.50826">
        <ele>1132.09</ele>
        <time>2019-03-20T09:09:18Z</time>
      </trkpt>
      <trkpt lat="45.94644" lon="6.50826">
        <ele>1132.09</ele>
        <time>2019-03-20T09:09:19Z</time>
      </trkpt>
      <trkpt lat="45.9466" lon="6.50844">
        <ele>1135.45</ele>
        <time>2019-03-20T09:09:38Z</time>
      </trkpt>
      <trkpt lat="45.94665" lon="6.50852">
        <ele>1136.42</ele>
        <time>2019-03-20T09:09:45Z</time>
      </trkpt>
      <trkpt lat="45.94665" lon="6.50854">
        <ele>1136.9</ele>
        <time>2019-03-20T09:09:46Z</time>
      </trkpt>
      <trkpt lat="45.94665" lon="6.50855">
        <ele>1136.9</ele>
        <time>2019-03-20T09:09:47Z</time>
      </trkpt>
      <trkpt lat="45.94666" lon="6.50856">
        <ele>1136.9</ele>
        <time>2019-03-20T09:09:48Z</time>
      </trkpt>
      <trkpt lat="45.94667" lon="6.50858">
        <ele>1137.38</ele>
        <time>2019-03-20T09:09:49Z</time>
      </trkpt>
      <trkpt lat="45.94667" lon="6.50859">
        <ele>1137.38</ele>
        <time>2019-03-20T09:09:50Z</time>
      </trkpt>
      <trkpt lat="45.94672" lon="6.5087">
        <ele>1138.82</ele>
        <time>2019-03-20T09:09:59Z</time>
      </trkpt>
      <trkpt lat="45.94672" lon="6.50872">
        <ele>1138.82</ele>
        <time>2019-03-20T09:10:00Z</time>
      </trkpt>
      <trkpt lat="45.94679" lon="6.50893">
        <ele>1139.78</ele>
        <time>2019-03-20T09:10:15Z</time>
      </trkpt>
      <trkpt lat="45.9468" lon="6.50894">
        <ele>1139.78</ele>
        <time>2019-03-20T09:10:16Z</time>
      </trkpt>
      <trkpt lat="45.9468" lon="6.50895">
        <ele>1139.78</ele>
        <time>2019-03-20T09:10:17Z</time>
      </trkpt>
      <trkpt lat="45.9468" lon="6.50897">
        <ele>1140.26</ele>
        <time>2019-03-20T09:10:18Z</time>
      </trkpt>
      <trkpt lat="45.94681" lon="6.50898">
        <ele>1140.26</ele>
        <time>2019-03-20T09:10:19Z</time>
      </trkpt>
      <trkpt lat="45.94681" lon="6.509">
        <ele>1140.26</ele>
        <time>2019-03-20T09:10:20Z</time>
      </trkpt>
      <trkpt lat="45.94683" lon="6.50903">
        <ele>1140.74</ele>
        <time>2019-03-20T09:10:23Z</time>
      </trkpt>
      <trkpt lat="45.94685" lon="6.50909">
        <ele>1141.22</ele>
        <time>2019-03-20T09:10:27Z</time>
      </trkpt>
      <trkpt lat="45.94686" lon="6.5091">
        <ele>1141.22</ele>
        <time>2019-03-20T09:10:28Z</time>
      </trkpt>
      <trkpt lat="45.94689" lon="6.50918">
        <ele>1142.66</ele>
        <time>2019-03-20T09:10:34Z</time>
      </trkpt>
      <trkpt lat="45.94689" lon="6.50918">
        <ele>1142.66</ele>
        <time>2019-03-20T09:10:35Z</time>
      </trkpt>
      <trkpt lat="45.947" lon="6.50948">
        <ele>1146.03</ele>
        <time>2019-03-20T09:10:58Z</time>
      </trkpt>
      <trkpt lat="45.9471" lon="6.50975">
        <ele>1148.91</ele>
        <time>2019-03-20T09:11:18Z</time>
      </trkpt>
      <trkpt lat="45.94712" lon="6.50982">
        <ele>1149.39</ele>
        <time>2019-03-20T09:11:23Z</time>
      </trkpt>
      <trkpt lat="45.94713" lon="6.50983">
        <ele>1149.39</ele>
        <time>2019-03-20T09:11:24Z</time>
      </trkpt>
      <trkpt lat="45.94714" lon="6.50985">
        <ele>1149.87</ele>
        <time>2019-03-20T09:11:25Z</time>
      </trkpt>
      <trkpt lat="45.94714" lon="6.50986">
        <ele>1149.87</ele>
        <time>2019-03-20T09:11:26Z</time>
      </trkpt>
      <trkpt lat="45.94715" lon="6.50987">
        <ele>1149.87</ele>
        <time>2019-03-20T09:11:27Z</time>
      </trkpt>
      <trkpt lat="45.94721" lon="6.51005">
        <ele>1151.8</ele>
        <time>2019-03-20T09:11:40Z</time>
      </trkpt>
      <trkpt lat="45.94721" lon="6.51007">
        <ele>1151.8</ele>
        <time>2019-03-20T09:11:41Z</time>
      </trkpt>
      <trkpt lat="45.94729" lon="6.51032">
        <ele>1153.24</ele>
        <time>2019-03-20T09:11:57Z</time>
      </trkpt>
      <trkpt lat="45.94742" lon="6.51053">
        <ele>1154.2</ele>
        <time>2019-03-20T09:12:13Z</time>
      </trkpt>
      <trkpt lat="45.94743" lon="6.51054">
        <ele>1154.68</ele>
        <time>2019-03-20T09:12:14Z</time>
      </trkpt>
      <trkpt lat="45.94744" lon="6.51056">
        <ele>1154.68</ele>
        <time>2019-03-20T09:12:15Z</time>
      </trkpt>
      <trkpt lat="45.94744" lon="6.51057">
        <ele>1154.68</ele>
        <time>2019-03-20T09:12:16Z</time>
      </trkpt>
      <trkpt lat="45.94744" lon="6.51058">
        <ele>1154.68</ele>
        <time>2019-03-20T09:12:17Z</time>
      </trkpt>
      <trkpt lat="45.94745" lon="6.5106">
        <ele>1155.16</ele>
        <time>2019-03-20T09:12:18Z</time>
      </trkpt>
      <trkpt lat="45.94745" lon="6.51061">
        <ele>1155.16</ele>
        <time>2019-03-20T09:12:19Z</time>
      </trkpt>
      <trkpt lat="45.94753" lon="6.51074">
        <ele>1156.6</ele>
        <time>2019-03-20T09:12:30Z</time>
      </trkpt>
      <trkpt lat="45.94754" lon="6.51075">
        <ele>1156.6</ele>
        <time>2019-03-20T09:12:31Z</time>
      </trkpt>
      <trkpt lat="45.94755" lon="6.51077">
        <ele>1156.6</ele>
        <time>2019-03-20T09:12:33Z</time>
      </trkpt>
      <trkpt lat="45.94756" lon="6.51078">
        <ele>1156.6</ele>
        <time>2019-03-20T09:12:34Z</time>
      </trkpt>
      <trkpt lat="45.94757" lon="6.51079">
        <ele>1157.08</ele>
        <time>2019-03-20T09:12:35Z</time>
      </trkpt>
      <trkpt lat="45.94758" lon="6.5108">
        <ele>1157.08</ele>
        <time>2019-03-20T09:12:36Z</time>
      </trkpt>
      <trkpt lat="45.94759" lon="6.51081">
        <ele>1157.08</ele>
        <time>2019-03-20T09:12:37Z</time>
      </trkpt>
      <trkpt lat="45.9476" lon="6.51082">
        <ele>1157.08</ele>
        <time>2019-03-20T09:12:38Z</time>
      </trkpt>
      <trkpt lat="45.94761" lon="6.51083">
        <ele>1157.08</ele>
        <time>2019-03-20T09:12:39Z</time>
      </trkpt>
      <trkpt lat="45.94762" lon="6.51084">
        <ele>1157.56</ele>
        <time>2019-03-20T09:12:40Z</time>
      </trkpt>
      <trkpt lat="45.94763" lon="6.51084">
        <ele>1157.56</ele>
        <time>2019-03-20T09:12:41Z</time>
      </trkpt>
      <trkpt lat="45.94771" lon="6.51089">
        <ele>1159.49</ele>
        <time>2019-03-20T09:12:50Z</time>
      </trkpt>
      <trkpt lat="45.94771" lon="6.5109">
        <ele>1159.97</ele>
        <time>2019-03-20T09:12:52Z</time>
      </trkpt>
      <trkpt lat="45.94774" lon="6.51092">
        <ele>1159.97</ele>
        <time>2019-03-20T09:12:55Z</time>
      </trkpt>
      <trkpt lat="45.94775" lon="6.51094">
        <ele>1159.97</ele>
        <time>2019-03-20T09:12:56Z</time>
      </trkpt>
      <trkpt lat="45.94776" lon="6.51095">
        <ele>1159.97</ele>
        <time>2019-03-20T09:12:57Z</time>
      </trkpt>
      <trkpt lat="45.94785" lon="6.51103">
        <ele>1161.89</ele>
        <time>2019-03-20T09:13:09Z</time>
      </trkpt>
      <trkpt lat="45.94786" lon="6.51104">
        <ele>1162.37</ele>
        <time>2019-03-20T09:13:10Z</time>
      </trkpt>
      <trkpt lat="45.94787" lon="6.51105">
        <ele>1162.37</ele>
        <time>2019-03-20T09:13:11Z</time>
      </trkpt>
      <trkpt lat="45.94788" lon="6.51106">
        <ele>1162.85</ele>
        <time>2019-03-20T09:13:12Z</time>
      </trkpt>
      <trkpt lat="45.94789" lon="6.51107">
        <ele>1162.85</ele>
        <time>2019-03-20T09:13:13Z</time>
      </trkpt>
      <trkpt lat="45.9479" lon="6.51108">
        <ele>1163.33</ele>
        <time>2019-03-20T09:13:14Z</time>
      </trkpt>
      <trkpt lat="45.9479" lon="6.51108">
        <ele>1163.33</ele>
        <time>2019-03-20T09:13:15Z</time>
      </trkpt>
      <trkpt lat="45.94807" lon="6.51127">
        <ele>1166.22</ele>
        <time>2019-03-20T09:13:36Z</time>
      </trkpt>
      <trkpt lat="45.94807" lon="6.51127">
        <ele>1166.7</ele>
        <time>2019-03-20T09:13:37Z</time>
      </trkpt>
      <trkpt lat="45.9481" lon="6.51131">
        <ele>1167.18</ele>
        <time>2019-03-20T09:13:41Z</time>
      </trkpt>
      <trkpt lat="45.94812" lon="6.51132">
        <ele>1167.66</ele>
        <time>2019-03-20T09:13:43Z</time>
      </trkpt>
      <trkpt lat="45.94825" lon="6.51147">
        <ele>1171.02</ele>
        <time>2019-03-20T09:14:01Z</time>
      </trkpt>
      <trkpt lat="45.94826" lon="6.51148">
        <ele>1171.02</ele>
        <time>2019-03-20T09:14:02Z</time>
      </trkpt>
      <trkpt lat="45.94829" lon="6.51152">
        <ele>1171.98</ele>
        <time>2019-03-20T09:14:06Z</time>
      </trkpt>
      <trkpt lat="45.94829" lon="6.51153">
        <ele>1171.98</ele>
        <time>2019-03-20T09:14:07Z</time>
      </trkpt>
      <trkpt lat="45.94836" lon="6.51155">
        <ele>1174.87</ele>
        <time>2019-03-20T09:14:28Z</time>
      </trkpt>
      <trkpt lat="45.94838" lon="6.51144">
        <ele>1175.35</ele>
        <time>2019-03-20T09:14:35Z</time>
      </trkpt>
      <trkpt lat="45.94839" lon="6.51143">
        <ele>1175.83</ele>
        <time>2019-03-20T09:14:36Z</time>
      </trkpt>
      <trkpt lat="45.9484" lon="6.51142">
        <ele>1175.83</ele>
        <time>2019-03-20T09:14:37Z</time>
      </trkpt>
      <trkpt lat="45.94842" lon="6.51138">
        <ele>1176.79</ele>
        <time>2019-03-20T09:14:42Z</time>
      </trkpt>
      <trkpt lat="45.94843" lon="6.51138">
        <ele>1176.79</ele>
        <time>2019-03-20T09:14:43Z</time>
      </trkpt>
      <trkpt lat="45.94844" lon="6.51137">
        <ele>1176.79</ele>
        <time>2019-03-20T09:14:44Z</time>
      </trkpt>
      <trkpt lat="45.94845" lon="6.51136">
        <ele>1176.79</ele>
        <time>2019-03-20T09:14:45Z</time>
      </trkpt>
      <trkpt lat="45.94846" lon="6.51136">
        <ele>1176.79</ele>
        <time>2019-03-20T09:14:46Z</time>
      </trkpt>
      <trkpt lat="45.94849" lon="6.51137">
        <ele>1176.79</ele>
        <time>2019-03-20T09:14:49Z</time>
      </trkpt>
      <trkpt lat="45.9485" lon="6.5114">
        <ele>1177.27</ele>
        <time>2019-03-20T09:14:52Z</time>
      </trkpt>
      <trkpt lat="45.94856" lon="6.51146">
        <ele>1179.19</ele>
        <time>2019-03-20T09:15:02Z</time>
      </trkpt>
      <trkpt lat="45.94862" lon="6.51145">
        <ele>1181.12</ele>
        <time>2019-03-20T09:15:17Z</time>
      </trkpt>
      <trkpt lat="45.94862" lon="6.51146">
        <ele>1181.6</ele>
        <time>2019-03-20T09:15:18Z</time>
      </trkpt>
      <trkpt lat="45.9488" lon="6.51164">
        <ele>1184</ele>
        <time>2019-03-20T09:15:38Z</time>
      </trkpt>
      <trkpt lat="45.94882" lon="6.51166">
        <ele>1184</ele>
        <time>2019-03-20T09:15:40Z</time>
      </trkpt>
      <trkpt lat="45.94891" lon="6.51188">
        <ele>1186.88</ele>
        <time>2019-03-20T09:15:59Z</time>
      </trkpt>
      <trkpt lat="45.94894" lon="6.51196">
        <ele>1187.37</ele>
        <time>2019-03-20T09:16:05Z</time>
      </trkpt>
      <trkpt lat="45.94894" lon="6.51198">
        <ele>1187.37</ele>
        <time>2019-03-20T09:16:07Z</time>
      </trkpt>
      <trkpt lat="45.94896" lon="6.51205">
        <ele>1186.88</ele>
        <time>2019-03-20T09:16:40Z</time>
      </trkpt>
      <trkpt lat="45.94897" lon="6.51208">
        <ele>1187.37</ele>
        <time>2019-03-20T09:16:46Z</time>
      </trkpt>
      <trkpt lat="45.94897" lon="6.51209">
        <ele>1187.37</ele>
        <time>2019-03-20T09:16:47Z</time>
      </trkpt>
      <trkpt lat="45.94907" lon="6.51234">
        <ele>1190.73</ele>
        <time>2019-03-20T09:17:06Z</time>
      </trkpt>
      <trkpt lat="45.94909" lon="6.51237">
        <ele>1191.21</ele>
        <time>2019-03-20T09:17:09Z</time>
      </trkpt>
      <trkpt lat="45.9491" lon="6.51237">
        <ele>1191.21</ele>
        <time>2019-03-20T09:17:10Z</time>
      </trkpt>
      <trkpt lat="45.94911" lon="6.51239">
        <ele>1191.21</ele>
        <time>2019-03-20T09:17:11Z</time>
      </trkpt>
      <trkpt lat="45.94918" lon="6.5125">
        <ele>1192.17</ele>
        <time>2019-03-20T09:17:21Z</time>
      </trkpt>
      <trkpt lat="45.94928" lon="6.51265">
        <ele>1194.58</ele>
        <time>2019-03-20T09:17:33Z</time>
      </trkpt>
      <trkpt lat="45.94929" lon="6.51266">
        <ele>1194.58</ele>
        <time>2019-03-20T09:17:34Z</time>
      </trkpt>
      <trkpt lat="45.94929" lon="6.51267">
        <ele>1194.58</ele>
        <time>2019-03-20T09:17:35Z</time>
      </trkpt>
      <trkpt lat="45.9493" lon="6.51268">
        <ele>1195.06</ele>
        <time>2019-03-20T09:17:36Z</time>
      </trkpt>
      <trkpt lat="45.94931" lon="6.51269">
        <ele>1195.06</ele>
        <time>2019-03-20T09:17:37Z</time>
      </trkpt>
      <trkpt lat="45.94934" lon="6.51278">
        <ele>1196.5</ele>
        <time>2019-03-20T09:17:44Z</time>
      </trkpt>
      <trkpt lat="45.94934" lon="6.5128">
        <ele>1196.5</ele>
        <time>2019-03-20T09:17:45Z</time>
      </trkpt>
      <trkpt lat="45.94937" lon="6.51288">
        <ele>1197.94</ele>
        <time>2019-03-20T09:17:52Z</time>
      </trkpt>
      <trkpt lat="45.94937" lon="6.51289">
        <ele>1197.94</ele>
        <time>2019-03-20T09:17:53Z</time>
      </trkpt>
      <trkpt lat="45.94937" lon="6.5129">
        <ele>1197.94</ele>
        <time>2019-03-20T09:17:54Z</time>
      </trkpt>
      <trkpt lat="45.94945" lon="6.51309">
        <ele>1200.34</ele>
        <time>2019-03-20T09:18:26Z</time>
      </trkpt>
      <trkpt lat="45.94947" lon="6.51317">
        <ele>1200.82</ele>
        <time>2019-03-20T09:18:33Z</time>
      </trkpt>
      <trkpt lat="45.94954" lon="6.51345">
        <ele>1203.71</ele>
        <time>2019-03-20T09:18:56Z</time>
      </trkpt>
      <trkpt lat="45.9496" lon="6.51372">
        <ele>1206.59</ele>
        <time>2019-03-20T09:19:16Z</time>
      </trkpt>
      <trkpt lat="45.94974" lon="6.51401">
        <ele>1209.96</ele>
        <time>2019-03-20T09:19:40Z</time>
      </trkpt>
      <trkpt lat="45.94983" lon="6.51433">
        <ele>1212.84</ele>
        <time>2019-03-20T09:20:03Z</time>
      </trkpt>
      <trkpt lat="45.94989" lon="6.51457">
        <ele>1216.21</ele>
        <time>2019-03-20T09:20:21Z</time>
      </trkpt>
      <trkpt lat="45.94999" lon="6.51485">
        <ele>1219.09</ele>
        <time>2019-03-20T09:20:44Z</time>
      </trkpt>
      <trkpt lat="45.95005" lon="6.51509">
        <ele>1221.97</ele>
        <time>2019-03-20T09:21:03Z</time>
      </trkpt>
      <trkpt lat="45.95009" lon="6.51537">
        <ele>1225.34</ele>
        <time>2019-03-20T09:21:21Z</time>
      </trkpt>
      <trkpt lat="45.95017" lon="6.51562">
        <ele>1228.22</ele>
        <time>2019-03-20T09:21:40Z</time>
      </trkpt>
      <trkpt lat="45.9503" lon="6.51585">
        <ele>1231.59</ele>
        <time>2019-03-20T09:22:01Z</time>
      </trkpt>
      <trkpt lat="45.95044" lon="6.51611">
        <ele>1234.47</ele>
        <time>2019-03-20T09:22:22Z</time>
      </trkpt>
      <trkpt lat="45.95044" lon="6.51614">
        <ele>1234.95</ele>
        <time>2019-03-20T09:22:24Z</time>
      </trkpt>
      <trkpt lat="45.95045" lon="6.51615">
        <ele>1234.95</ele>
        <time>2019-03-20T09:22:25Z</time>
      </trkpt>
      <trkpt lat="45.95053" lon="6.51635">
        <ele>1238.32</ele>
        <time>2019-03-20T09:22:51Z</time>
      </trkpt>
      <trkpt lat="45.9506" lon="6.51657">
        <ele>1241.2</ele>
        <time>2019-03-20T09:23:09Z</time>
      </trkpt>
      <trkpt lat="45.95067" lon="6.51679">
        <ele>1244.56</ele>
        <time>2019-03-20T09:23:29Z</time>
      </trkpt>
      <trkpt lat="45.95074" lon="6.517">
        <ele>1247.45</ele>
        <time>2019-03-20T09:23:47Z</time>
      </trkpt>
      <trkpt lat="45.95078" lon="6.51724">
        <ele>1250.33</ele>
        <time>2019-03-20T09:24:06Z</time>
      </trkpt>
      <trkpt lat="45.95086" lon="6.5175">
        <ele>1253.7</ele>
        <time>2019-03-20T09:24:27Z</time>
      </trkpt>
      <trkpt lat="45.95089" lon="6.51781">
        <ele>1256.1</ele>
        <time>2019-03-20T09:24:58Z</time>
      </trkpt>
      <trkpt lat="45.95094" lon="6.51784">
        <ele>1256.1</ele>
        <time>2019-03-20T09:25:03Z</time>
      </trkpt>
      <trkpt lat="45.95092" lon="6.51791">
        <ele>1256.58</ele>
        <time>2019-03-20T09:25:13Z</time>
      </trkpt>
      <trkpt lat="45.95091" lon="6.51791">
        <ele>1256.58</ele>
        <time>2019-03-20T09:25:14Z</time>
      </trkpt>
      <trkpt lat="45.9509" lon="6.51792">
        <ele>1256.58</ele>
        <time>2019-03-20T09:25:15Z</time>
      </trkpt>
      <trkpt lat="45.95089" lon="6.51793">
        <ele>1256.1</ele>
        <time>2019-03-20T09:25:16Z</time>
      </trkpt>
      <trkpt lat="45.95088" lon="6.51793">
        <ele>1256.1</ele>
        <time>2019-03-20T09:25:17Z</time>
      </trkpt>
      <trkpt lat="45.95058" lon="6.51774">
        <ele>1253.22</ele>
        <time>2019-03-20T09:25:50Z</time>
      </trkpt>
      <trkpt lat="45.95044" lon="6.51766">
        <ele>1256.1</ele>
        <time>2019-03-20T09:26:10Z</time>
      </trkpt>
      <trkpt lat="45.95045" lon="6.51771">
        <ele>1259.46</ele>
        <time>2019-03-20T09:26:23Z</time>
      </trkpt>
      <trkpt lat="45.95048" lon="6.51781">
        <ele>1262.35</ele>
        <time>2019-03-20T09:26:37Z</time>
      </trkpt>
      <trkpt lat="45.95053" lon="6.5179">
        <ele>1265.71</ele>
        <time>2019-03-20T09:26:50Z</time>
      </trkpt>
      <trkpt lat="45.95055" lon="6.51801">
        <ele>1268.6</ele>
        <time>2019-03-20T09:27:05Z</time>
      </trkpt>
      <trkpt lat="45.9506" lon="6.51813">
        <ele>1271.96</ele>
        <time>2019-03-20T09:27:24Z</time>
      </trkpt>
      <trkpt lat="45.95064" lon="6.51823">
        <ele>1274.85</ele>
        <time>2019-03-20T09:27:38Z</time>
      </trkpt>
      <trkpt lat="45.9507" lon="6.51832">
        <ele>1277.73</ele>
        <time>2019-03-20T09:27:51Z</time>
      </trkpt>
      <trkpt lat="45.95075" lon="6.51842">
        <ele>1281.09</ele>
        <time>2019-03-20T09:28:07Z</time>
      </trkpt>
      <trkpt lat="45.95077" lon="6.51852">
        <ele>1283.98</ele>
        <time>2019-03-20T09:28:21Z</time>
      </trkpt>
      <trkpt lat="45.95081" lon="6.51863">
        <ele>1287.34</ele>
        <time>2019-03-20T09:28:35Z</time>
      </trkpt>
      <trkpt lat="45.95084" lon="6.51871">
        <ele>1290.23</ele>
        <time>2019-03-20T09:28:48Z</time>
      </trkpt>
      <trkpt lat="45.95085" lon="6.51879">
        <ele>1293.11</ele>
        <time>2019-03-20T09:29:02Z</time>
      </trkpt>
      <trkpt lat="45.95088" lon="6.51889">
        <ele>1296.48</ele>
        <time>2019-03-20T09:29:17Z</time>
      </trkpt>
      <trkpt lat="45.95093" lon="6.51901">
        <ele>1298.88</ele>
        <time>2019-03-20T09:29:33Z</time>
      </trkpt>
      <trkpt lat="45.95098" lon="6.51916">
        <ele>1302.24</ele>
        <time>2019-03-20T09:29:53Z</time>
      </trkpt>
      <trkpt lat="45.9511" lon="6.51928">
        <ele>1305.13</ele>
        <time>2019-03-20T09:30:13Z</time>
      </trkpt>
      <trkpt lat="45.95117" lon="6.51932">
        <ele>1306.57</ele>
        <time>2019-03-20T09:30:24Z</time>
      </trkpt>
      <trkpt lat="45.95124" lon="6.51941">
        <ele>1309.93</ele>
        <time>2019-03-20T09:30:40Z</time>
      </trkpt>
      <trkpt lat="45.95128" lon="6.51951">
        <ele>1312.82</ele>
        <time>2019-03-20T09:30:54Z</time>
      </trkpt>
      <trkpt lat="45.95126" lon="6.51951">
        <ele>1312.82</ele>
        <time>2019-03-20T09:30:56Z</time>
      </trkpt>
      <trkpt lat="45.95116" lon="6.51954">
        <ele>1316.18</ele>
        <time>2019-03-20T09:31:17Z</time>
      </trkpt>
      <trkpt lat="45.95119" lon="6.5196">
        <ele>1318.1</ele>
        <time>2019-03-20T09:32:00Z</time>
      </trkpt>
      <trkpt lat="45.95126" lon="6.51971">
        <ele>1321.47</ele>
        <time>2019-03-20T09:32:22Z</time>
      </trkpt>
      <trkpt lat="45.95141" lon="6.51982">
        <ele>1324.83</ele>
        <time>2019-03-20T09:32:45Z</time>
      </trkpt>
      <trkpt lat="45.95151" lon="6.51991">
        <ele>1325.8</ele>
        <time>2019-03-20T09:33:05Z</time>
      </trkpt>
      <trkpt lat="45.95156" lon="6.52">
        <ele>1328.68</ele>
        <time>2019-03-20T09:33:24Z</time>
      </trkpt>
      <trkpt lat="45.95162" lon="6.52011">
        <ele>1331.56</ele>
        <time>2019-03-20T09:33:42Z</time>
      </trkpt>
      <trkpt lat="45.95164" lon="6.52018">
        <ele>1333.49</ele>
        <time>2019-03-20T09:34:55Z</time>
      </trkpt>
      <trkpt lat="45.95164" lon="6.52016">
        <ele>1333.97</ele>
        <time>2019-03-20T09:35:56Z</time>
      </trkpt>
      <trkpt lat="45.9516" lon="6.52018">
        <ele>1333.49</ele>
        <time>2019-03-20T09:37:46Z</time>
      </trkpt>
      <trkpt lat="45.95167" lon="6.52025">
        <ele>1336.37</ele>
        <time>2019-03-20T09:38:20Z</time>
      </trkpt>
      <trkpt lat="45.9516" lon="6.52032">
        <ele>1339.73</ele>
        <time>2019-03-20T09:38:40Z</time>
      </trkpt>
      <trkpt lat="45.95158" lon="6.52039">
        <ele>1342.62</ele>
        <time>2019-03-20T09:38:59Z</time>
      </trkpt>
      <trkpt lat="45.95156" lon="6.52045">
        <ele>1345.98</ele>
        <time>2019-03-20T09:39:13Z</time>
      </trkpt>
      <trkpt lat="45.95155" lon="6.52052">
        <ele>1349.35</ele>
        <time>2019-03-20T09:39:30Z</time>
      </trkpt>
      <trkpt lat="45.95154" lon="6.52057">
        <ele>1352.23</ele>
        <time>2019-03-20T09:39:47Z</time>
      </trkpt>
      <trkpt lat="45.95157" lon="6.52063">
        <ele>1355.12</ele>
        <time>2019-03-20T09:40:01Z</time>
      </trkpt>
      <trkpt lat="45.95154" lon="6.52069">
        <ele>1358.48</ele>
        <time>2019-03-20T09:40:18Z</time>
      </trkpt>
      <trkpt lat="45.95154" lon="6.5207">
        <ele>1358.96</ele>
        <time>2019-03-20T09:40:22Z</time>
      </trkpt>
      <trkpt lat="45.95154" lon="6.52071">
        <ele>1358.96</ele>
        <time>2019-03-20T09:40:23Z</time>
      </trkpt>
      <trkpt lat="45.95153" lon="6.52074">
        <ele>1359.92</ele>
        <time>2019-03-20T09:40:28Z</time>
      </trkpt>
      <trkpt lat="45.95152" lon="6.52074">
        <ele>1359.92</ele>
        <time>2019-03-20T09:40:30Z</time>
      </trkpt>
      <trkpt lat="45.95146" lon="6.5208">
        <ele>1362.81</ele>
        <time>2019-03-20T09:40:47Z</time>
      </trkpt>
      <trkpt lat="45.95148" lon="6.52083">
        <ele>1365.69</ele>
        <time>2019-03-20T09:41:03Z</time>
      </trkpt>
      <trkpt lat="45.95149" lon="6.52083">
        <ele>1366.17</ele>
        <time>2019-03-20T09:41:04Z</time>
      </trkpt>
      <trkpt lat="45.9515" lon="6.52084">
        <ele>1366.17</ele>
        <time>2019-03-20T09:41:06Z</time>
      </trkpt>
      <trkpt lat="45.95153" lon="6.52085">
        <ele>1366.65</ele>
        <time>2019-03-20T09:41:08Z</time>
      </trkpt>
      <trkpt lat="45.95151" lon="6.52086">
        <ele>1366.65</ele>
        <time>2019-03-20T09:41:10Z</time>
      </trkpt>
      <trkpt lat="45.95145" lon="6.52091">
        <ele>1370.02</ele>
        <time>2019-03-20T09:41:25Z</time>
      </trkpt>
      <trkpt lat="45.95145" lon="6.52093">
        <ele>1370.98</ele>
        <time>2019-03-20T09:41:33Z</time>
      </trkpt>
      <trkpt lat="45.95145" lon="6.52094">
        <ele>1371.46</ele>
        <time>2019-03-20T09:41:34Z</time>
      </trkpt>
      <trkpt lat="45.95147" lon="6.52095">
        <ele>1372.42</ele>
        <time>2019-03-20T09:41:38Z</time>
      </trkpt>
      <trkpt lat="45.95151" lon="6.52102">
        <ele>1375.3</ele>
        <time>2019-03-20T09:41:59Z</time>
      </trkpt>
      <trkpt lat="45.95151" lon="6.52108">
        <ele>1378.19</ele>
        <time>2019-03-20T09:42:13Z</time>
      </trkpt>
      <trkpt lat="45.95149" lon="6.52111">
        <ele>1379.63</ele>
        <time>2019-03-20T09:42:21Z</time>
      </trkpt>
      <trkpt lat="45.95147" lon="6.52113">
        <ele>1380.59</ele>
        <time>2019-03-20T09:42:27Z</time>
      </trkpt>
      <trkpt lat="45.95145" lon="6.52119">
        <ele>1383.96</ele>
        <time>2019-03-20T09:42:47Z</time>
      </trkpt>
      <trkpt lat="45.95143" lon="6.52124">
        <ele>1386.84</ele>
        <time>2019-03-20T09:43:00Z</time>
      </trkpt>
      <trkpt lat="45.95143" lon="6.52126">
        <ele>1388.76</ele>
        <time>2019-03-20T09:43:15Z</time>
      </trkpt>
      <trkpt lat="45.95141" lon="6.52127">
        <ele>1390.2</ele>
        <time>2019-03-20T09:43:24Z</time>
      </trkpt>
      <trkpt lat="45.95136" lon="6.52133">
        <ele>1393.57</ele>
        <time>2019-03-20T09:43:41Z</time>
      </trkpt>
      <trkpt lat="45.95137" lon="6.52133">
        <ele>1394.05</ele>
        <time>2019-03-20T09:43:51Z</time>
      </trkpt>
      <trkpt lat="45.95134" lon="6.52132">
        <ele>1395.97</ele>
        <time>2019-03-20T09:44:13Z</time>
      </trkpt>
      <trkpt lat="45.95134" lon="6.52132">
        <ele>1396.45</ele>
        <time>2019-03-20T09:44:16Z</time>
      </trkpt>
      <trkpt lat="45.95131" lon="6.52135">
        <ele>1399.34</ele>
        <time>2019-03-20T09:44:36Z</time>
      </trkpt>
      <trkpt lat="45.9513" lon="6.52138">
        <ele>1400.78</ele>
        <time>2019-03-20T09:44:43Z</time>
      </trkpt>
      <trkpt lat="45.95126" lon="6.52145">
        <ele>1404.14</ele>
        <time>2019-03-20T09:45:01Z</time>
      </trkpt>
      <trkpt lat="45.95126" lon="6.5215">
        <ele>1406.07</ele>
        <time>2019-03-20T09:45:14Z</time>
      </trkpt>
      <trkpt lat="45.95114" lon="6.5215">
        <ele>1409.43</ele>
        <time>2019-03-20T09:45:42Z</time>
      </trkpt>
      <trkpt lat="45.95114" lon="6.52151">
        <ele>1409.43</ele>
        <time>2019-03-20T09:45:46Z</time>
      </trkpt>
      <trkpt lat="45.95112" lon="6.52159">
        <ele>1412.31</ele>
        <time>2019-03-20T09:46:21Z</time>
      </trkpt>
      <trkpt lat="45.9511" lon="6.52164">
        <ele>1415.68</ele>
        <time>2019-03-20T09:46:38Z</time>
      </trkpt>
      <trkpt lat="45.95117" lon="6.52175">
        <ele>1418.56</ele>
        <time>2019-03-20T09:46:58Z</time>
      </trkpt>
      <trkpt lat="45.95116" lon="6.52182">
        <ele>1421.93</ele>
        <time>2019-03-20T09:47:18Z</time>
      </trkpt>
      <trkpt lat="45.95117" lon="6.52188">
        <ele>1424.81</ele>
        <time>2019-03-20T09:47:34Z</time>
      </trkpt>
      <trkpt lat="45.95121" lon="6.52195">
        <ele>1427.7</ele>
        <time>2019-03-20T09:47:53Z</time>
      </trkpt>
      <trkpt lat="45.95123" lon="6.52201">
        <ele>1430.58</ele>
        <time>2019-03-20T09:48:09Z</time>
      </trkpt>
      <trkpt lat="45.95122" lon="6.52207">
        <ele>1433.46</ele>
        <time>2019-03-20T09:48:27Z</time>
      </trkpt>
      <trkpt lat="45.95124" lon="6.52216">
        <ele>1436.83</ele>
        <time>2019-03-20T09:48:47Z</time>
      </trkpt>
      <trkpt lat="45.95123" lon="6.52221">
        <ele>1440.19</ele>
        <time>2019-03-20T09:49:07Z</time>
      </trkpt>
      <trkpt lat="45.95122" lon="6.52227">
        <ele>1443.08</ele>
        <time>2019-03-20T09:49:26Z</time>
      </trkpt>
      <trkpt lat="45.95128" lon="6.52234">
        <ele>1445.96</ele>
        <time>2019-03-20T09:49:45Z</time>
      </trkpt>
      <trkpt lat="45.95132" lon="6.52242">
        <ele>1449.32</ele>
        <time>2019-03-20T09:50:04Z</time>
      </trkpt>
      <trkpt lat="45.95132" lon="6.5225">
        <ele>1452.21</ele>
        <time>2019-03-20T09:50:24Z</time>
      </trkpt>
      <trkpt lat="45.95131" lon="6.52251">
        <ele>1452.69</ele>
        <time>2019-03-20T09:50:33Z</time>
      </trkpt>
      <trkpt lat="45.95129" lon="6.52258">
        <ele>1455.57</ele>
        <time>2019-03-20T09:50:51Z</time>
      </trkpt>
      <trkpt lat="45.95131" lon="6.52261">
        <ele>1457.02</ele>
        <time>2019-03-20T09:50:58Z</time>
      </trkpt>
      <trkpt lat="45.95132" lon="6.52266">
        <ele>1459.42</ele>
        <time>2019-03-20T09:51:12Z</time>
      </trkpt>
      <trkpt lat="45.95132" lon="6.52273">
        <ele>1462.3</ele>
        <time>2019-03-20T09:51:31Z</time>
      </trkpt>
      <trkpt lat="45.95135" lon="6.52277">
        <ele>1465.19</ele>
        <time>2019-03-20T09:51:50Z</time>
      </trkpt>
      <trkpt lat="45.95139" lon="6.52283">
        <ele>1468.07</ele>
        <time>2019-03-20T09:52:13Z</time>
      </trkpt>
      <trkpt lat="45.95141" lon="6.52289">
        <ele>1471.44</ele>
        <time>2019-03-20T09:52:33Z</time>
      </trkpt>
      <trkpt lat="45.95144" lon="6.52295">
        <ele>1474.32</ele>
        <time>2019-03-20T09:52:48Z</time>
      </trkpt>
      <trkpt lat="45.95144" lon="6.52295">
        <ele>1474.8</ele>
        <time>2019-03-20T09:52:59Z</time>
      </trkpt>
      <trkpt lat="45.95148" lon="6.52297">
        <ele>1478.16</ele>
        <time>2019-03-20T09:53:17Z</time>
      </trkpt>
      <trkpt lat="45.9515" lon="6.52307">
        <ele>1481.05</ele>
        <time>2019-03-20T09:53:38Z</time>
      </trkpt>
      <trkpt lat="45.9515" lon="6.5231">
        <ele>1484.41</ele>
        <time>2019-03-20T09:53:54Z</time>
      </trkpt>
      <trkpt lat="45.95155" lon="6.52318">
        <ele>1487.3</ele>
        <time>2019-03-20T09:55:28Z</time>
      </trkpt>
      <trkpt lat="45.95154" lon="6.52323">
        <ele>1490.18</ele>
        <time>2019-03-20T09:55:45Z</time>
      </trkpt>
      <trkpt lat="45.95154" lon="6.52332">
        <ele>1493.55</ele>
        <time>2019-03-20T09:56:03Z</time>
      </trkpt>
      <trkpt lat="45.95156" lon="6.52338">
        <ele>1496.43</ele>
        <time>2019-03-20T09:56:21Z</time>
      </trkpt>
      <trkpt lat="45.95157" lon="6.52345">
        <ele>1499.79</ele>
        <time>2019-03-20T09:56:39Z</time>
      </trkpt>
      <trkpt lat="45.95152" lon="6.52349">
        <ele>1502.68</ele>
        <time>2019-03-20T09:57:01Z</time>
      </trkpt>
      <trkpt lat="45.95152" lon="6.52354">
        <ele>1505.56</ele>
        <time>2019-03-20T09:57:17Z</time>
      </trkpt>
      <trkpt lat="45.95152" lon="6.5236">
        <ele>1508.93</ele>
        <time>2019-03-20T09:57:35Z</time>
      </trkpt>
      <trkpt lat="45.95153" lon="6.52362">
        <ele>1509.89</ele>
        <time>2019-03-20T09:57:42Z</time>
      </trkpt>
      <trkpt lat="45.95153" lon="6.52368">
        <ele>1512.77</ele>
        <time>2019-03-20T09:58:04Z</time>
      </trkpt>
      <trkpt lat="45.95153" lon="6.52372">
        <ele>1516.14</ele>
        <time>2019-03-20T09:58:20Z</time>
      </trkpt>
      <trkpt lat="45.95148" lon="6.52378">
        <ele>1519.02</ele>
        <time>2019-03-20T09:58:42Z</time>
      </trkpt>
      <trkpt lat="45.95148" lon="6.52384">
        <ele>1522.39</ele>
        <time>2019-03-20T09:58:59Z</time>
      </trkpt>
      <trkpt lat="45.95152" lon="6.52392">
        <ele>1525.75</ele>
        <time>2019-03-20T09:59:22Z</time>
      </trkpt>
      <trkpt lat="45.9515" lon="6.52399">
        <ele>1528.63</ele>
        <time>2019-03-20T09:59:41Z</time>
      </trkpt>
      <trkpt lat="45.95149" lon="6.52405">
        <ele>1532</ele>
        <time>2019-03-20T10:00:00Z</time>
      </trkpt>
      <trkpt lat="45.95148" lon="6.52417">
        <ele>1534.88</ele>
        <time>2019-03-20T10:00:23Z</time>
      </trkpt>
      <trkpt lat="45.95148" lon="6.52424">
        <ele>1537.77</ele>
        <time>2019-03-20T10:00:40Z</time>
      </trkpt>
      <trkpt lat="45.95147" lon="6.52432">
        <ele>1541.13</ele>
        <time>2019-03-20T10:01:01Z</time>
      </trkpt>
      <trkpt lat="45.95149" lon="6.52443">
        <ele>1544.01</ele>
        <time>2019-03-20T10:01:26Z</time>
      </trkpt>
      <trkpt lat="45.95146" lon="6.52451">
        <ele>1547.38</ele>
        <time>2019-03-20T10:01:45Z</time>
      </trkpt>
      <trkpt lat="45.95148" lon="6.52456">
        <ele>1550.26</ele>
        <time>2019-03-20T10:02:03Z</time>
      </trkpt>
      <trkpt lat="45.95146" lon="6.52463">
        <ele>1553.15</ele>
        <time>2019-03-20T10:02:24Z</time>
      </trkpt>
      <trkpt lat="45.9514" lon="6.52471">
        <ele>1556.03</ele>
        <time>2019-03-20T10:02:49Z</time>
      </trkpt>
      <trkpt lat="45.95143" lon="6.52475">
        <ele>1559.4</ele>
        <time>2019-03-20T10:03:20Z</time>
      </trkpt>
      <trkpt lat="45.95156" lon="6.52475">
        <ele>1562.28</ele>
        <time>2019-03-20T10:03:45Z</time>
      </trkpt>
      <trkpt lat="45.9517" lon="6.52476">
        <ele>1565.16</ele>
        <time>2019-03-20T10:04:10Z</time>
      </trkpt>
      <trkpt lat="45.9517" lon="6.52488">
        <ele>1568.53</ele>
        <time>2019-03-20T10:04:42Z</time>
      </trkpt>
      <trkpt lat="45.95167" lon="6.52496">
        <ele>1571.89</ele>
        <time>2019-03-20T10:05:01Z</time>
      </trkpt>
      <trkpt lat="45.95164" lon="6.52497">
        <ele>1574.78</ele>
        <time>2019-03-20T10:05:19Z</time>
      </trkpt>
      <trkpt lat="45.95168" lon="6.52501">
        <ele>1576.22</ele>
        <time>2019-03-20T10:05:31Z</time>
      </trkpt>
      <trkpt lat="45.9517" lon="6.52505">
        <ele>1578.14</ele>
        <time>2019-03-20T10:05:45Z</time>
      </trkpt>
      <trkpt lat="45.95163" lon="6.52513">
        <ele>1581.03</ele>
        <time>2019-03-20T10:06:05Z</time>
      </trkpt>
      <trkpt lat="45.95156" lon="6.52516">
        <ele>1584.39</ele>
        <time>2019-03-20T10:06:23Z</time>
      </trkpt>
      <trkpt lat="45.95149" lon="6.52519">
        <ele>1587.27</ele>
        <time>2019-03-20T10:06:42Z</time>
      </trkpt>
      <trkpt lat="45.95151" lon="6.52525">
        <ele>1590.64</ele>
        <time>2019-03-20T10:07:00Z</time>
      </trkpt>
      <trkpt lat="45.95138" lon="6.52523">
        <ele>1593.52</ele>
        <time>2019-03-20T10:07:22Z</time>
      </trkpt>
      <trkpt lat="45.95128" lon="6.5253">
        <ele>1595.93</ele>
        <time>2019-03-20T10:07:43Z</time>
      </trkpt>
      <trkpt lat="45.95121" lon="6.52536">
        <ele>1599.29</ele>
        <time>2019-03-20T10:08:03Z</time>
      </trkpt>
      <trkpt lat="45.95121" lon="6.52545">
        <ele>1602.17</ele>
        <time>2019-03-20T10:08:22Z</time>
      </trkpt>
      <trkpt lat="45.95118" lon="6.52551">
        <ele>1605.54</ele>
        <time>2019-03-20T10:08:45Z</time>
      </trkpt>
      <trkpt lat="45.95118" lon="6.5256">
        <ele>1608.42</ele>
        <time>2019-03-20T10:09:02Z</time>
      </trkpt>
      <trkpt lat="45.95112" lon="6.52566">
        <ele>1611.31</ele>
        <time>2019-03-20T10:09:33Z</time>
      </trkpt>
      <trkpt lat="45.9511" lon="6.52563">
        <ele>1611.31</ele>
        <time>2019-03-20T10:10:12Z</time>
      </trkpt>
      <trkpt lat="45.95113" lon="6.5256">
        <ele>1611.31</ele>
        <time>2019-03-20T10:10:42Z</time>
      </trkpt>
      <trkpt lat="45.9511" lon="6.52561">
        <ele>1611.31</ele>
        <time>2019-03-20T10:10:58Z</time>
      </trkpt>
      <trkpt lat="45.95111" lon="6.5256">
        <ele>1610.83</ele>
        <time>2019-03-20T10:11:34Z</time>
      </trkpt>
      <trkpt lat="45.95114" lon="6.52564">
        <ele>1610.83</ele>
        <time>2019-03-20T10:12:54Z</time>
      </trkpt>
      <trkpt lat="45.95114" lon="6.52565">
        <ele>1610.83</ele>
        <time>2019-03-20T10:13:20Z</time>
      </trkpt>
      <trkpt lat="45.95116" lon="6.52561">
        <ele>1610.83</ele>
        <time>2019-03-20T10:16:24Z</time>
      </trkpt>
      <trkpt lat="45.95116" lon="6.52564">
        <ele>1610.35</ele>
        <time>2019-03-20T10:16:43Z</time>
      </trkpt>
      <trkpt lat="45.95115" lon="6.52563">
        <ele>1610.83</ele>
        <time>2019-03-20T10:17:05Z</time>
      </trkpt>
      <trkpt lat="45.9511" lon="6.5256">
        <ele>1611.31</ele>
        <time>2019-03-20T10:17:41Z</time>
      </trkpt>
      <trkpt lat="45.951" lon="6.5255">
        <ele>1614.67</ele>
        <time>2019-03-20T10:17:59Z</time>
      </trkpt>
      <trkpt lat="45.95092" lon="6.52543">
        <ele>1618.04</ele>
        <time>2019-03-20T10:18:17Z</time>
      </trkpt>
      <trkpt lat="45.95082" lon="6.52547">
        <ele>1619.96</ele>
        <time>2019-03-20T10:18:39Z</time>
      </trkpt>
      <trkpt lat="45.95074" lon="6.52557">
        <ele>1622.84</ele>
        <time>2019-03-20T10:18:57Z</time>
      </trkpt>
      <trkpt lat="45.95065" lon="6.52553">
        <ele>1626.21</ele>
        <time>2019-03-20T10:19:17Z</time>
      </trkpt>
      <trkpt lat="45.95059" lon="6.52549">
        <ele>1629.57</ele>
        <time>2019-03-20T10:19:32Z</time>
      </trkpt>
      <trkpt lat="45.95049" lon="6.52549">
        <ele>1632.46</ele>
        <time>2019-03-20T10:19:49Z</time>
      </trkpt>
      <trkpt lat="45.95045" lon="6.52541">
        <ele>1632.94</ele>
        <time>2019-03-20T10:19:58Z</time>
      </trkpt>
      <trkpt lat="45.95038" lon="6.52534">
        <ele>1635.34</ele>
        <time>2019-03-20T10:20:12Z</time>
      </trkpt>
      <trkpt lat="45.95032" lon="6.52528">
        <ele>1637.74</ele>
        <time>2019-03-20T10:20:29Z</time>
      </trkpt>
      <trkpt lat="45.95032" lon="6.52526">
        <ele>1638.7</ele>
        <time>2019-03-20T10:20:34Z</time>
      </trkpt>
      <trkpt lat="45.95036" lon="6.52526">
        <ele>1638.7</ele>
        <time>2019-03-20T10:21:38Z</time>
      </trkpt>
      <trkpt lat="45.95038" lon="6.52525">
        <ele>1638.22</ele>
        <time>2019-03-20T10:21:49Z</time>
      </trkpt>
      <trkpt lat="45.95038" lon="6.52525">
        <ele>1638.22</ele>
        <time>2019-03-20T10:22:17Z</time>
      </trkpt>
      <trkpt lat="45.95039" lon="6.52524">
        <ele>1638.7</ele>
        <time>2019-03-20T10:22:47Z</time>
      </trkpt>
      <trkpt lat="45.95037" lon="6.52526">
        <ele>1638.7</ele>
        <time>2019-03-20T10:23:29Z</time>
      </trkpt>
      <trkpt lat="45.95037" lon="6.52526">
        <ele>1638.7</ele>
        <time>2019-03-20T10:23:55Z</time>
      </trkpt>
      <trkpt lat="45.95039" lon="6.52523">
        <ele>1638.7</ele>
        <time>2019-03-20T10:24:12Z</time>
      </trkpt>
      <trkpt lat="45.95039" lon="6.52523">
        <ele>1639.19</ele>
        <time>2019-03-20T10:24:37Z</time>
      </trkpt>
      <trkpt lat="45.95036" lon="6.52535">
        <ele>1640.15</ele>
        <time>2019-03-20T10:26:06Z</time>
      </trkpt>
      <trkpt lat="45.95029" lon="6.52542">
        <ele>1643.03</ele>
        <time>2019-03-20T10:26:21Z</time>
      </trkpt>
      <trkpt lat="45.95026" lon="6.52545">
        <ele>1643.99</ele>
        <time>2019-03-20T10:26:25Z</time>
      </trkpt>
      <trkpt lat="45.95016" lon="6.52547">
        <ele>1646.4</ele>
        <time>2019-03-20T10:26:41Z</time>
      </trkpt>
      <trkpt lat="45.95011" lon="6.52547">
        <ele>1646.88</ele>
        <time>2019-03-20T10:26:46Z</time>
      </trkpt>
      <trkpt lat="45.94994" lon="6.52543">
        <ele>1650.24</ele>
        <time>2019-03-20T10:27:10Z</time>
      </trkpt>
      <trkpt lat="45.94985" lon="6.5254">
        <ele>1653.12</ele>
        <time>2019-03-20T10:27:29Z</time>
      </trkpt>
      <trkpt lat="45.94975" lon="6.52537">
        <ele>1656.49</ele>
        <time>2019-03-20T10:27:46Z</time>
      </trkpt>
      <trkpt lat="45.94966" lon="6.52535">
        <ele>1659.37</ele>
        <time>2019-03-20T10:28:06Z</time>
      </trkpt>
      <trkpt lat="45.94956" lon="6.52536">
        <ele>1662.26</ele>
        <time>2019-03-20T10:28:25Z</time>
      </trkpt>
      <trkpt lat="45.94945" lon="6.52537">
        <ele>1665.62</ele>
        <time>2019-03-20T10:28:45Z</time>
      </trkpt>
      <trkpt lat="45.94937" lon="6.52536">
        <ele>1668.51</ele>
        <time>2019-03-20T10:29:01Z</time>
      </trkpt>
      <trkpt lat="45.94927" lon="6.52537">
        <ele>1671.39</ele>
        <time>2019-03-20T10:29:21Z</time>
      </trkpt>
      <trkpt lat="45.94916" lon="6.52532">
        <ele>1674.75</ele>
        <time>2019-03-20T10:29:45Z</time>
      </trkpt>
      <trkpt lat="45.94906" lon="6.52522">
        <ele>1677.64</ele>
        <time>2019-03-20T10:30:11Z</time>
      </trkpt>
      <trkpt lat="45.94901" lon="6.52513">
        <ele>1681</ele>
        <time>2019-03-20T10:30:32Z</time>
      </trkpt>
      <trkpt lat="45.94901" lon="6.52522">
        <ele>1683.89</ele>
        <time>2019-03-20T10:30:50Z</time>
      </trkpt>
      <trkpt lat="45.9489" lon="6.52518">
        <ele>1686.77</ele>
        <time>2019-03-20T10:31:21Z</time>
      </trkpt>
      <trkpt lat="45.94879" lon="6.52515">
        <ele>1690.14</ele>
        <time>2019-03-20T10:31:40Z</time>
      </trkpt>
      <trkpt lat="45.94876" lon="6.52514">
        <ele>1691.1</ele>
        <time>2019-03-20T10:31:45Z</time>
      </trkpt>
      <trkpt lat="45.94866" lon="6.52514">
        <ele>1693.98</ele>
        <time>2019-03-20T10:32:04Z</time>
      </trkpt>
      <trkpt lat="45.94862" lon="6.52514">
        <ele>1697.34</ele>
        <time>2019-03-20T10:32:19Z</time>
      </trkpt>
      <trkpt lat="45.94842" lon="6.5252">
        <ele>1699.75</ele>
        <time>2019-03-20T10:32:53Z</time>
      </trkpt>
      <trkpt lat="45.94841" lon="6.52519">
        <ele>1699.75</ele>
        <time>2019-03-20T10:32:54Z</time>
      </trkpt>
      <trkpt lat="45.9484" lon="6.52518">
        <ele>1699.75</ele>
        <time>2019-03-20T10:32:55Z</time>
      </trkpt>
      <trkpt lat="45.94829" lon="6.52497">
        <ele>1696.38</ele>
        <time>2019-03-20T10:33:01Z</time>
      </trkpt>
      <trkpt lat="45.94821" lon="6.52482">
        <ele>1693.5</ele>
        <time>2019-03-20T10:33:04Z</time>
      </trkpt>
      <trkpt lat="45.94815" lon="6.52474">
        <ele>1692.06</ele>
        <time>2019-03-20T10:33:07Z</time>
      </trkpt>
      <trkpt lat="45.94802" lon="6.52462">
        <ele>1689.65</ele>
        <time>2019-03-20T10:33:39Z</time>
      </trkpt>
      <trkpt lat="45.94801" lon="6.52462">
        <ele>1689.65</ele>
        <time>2019-03-20T10:33:40Z</time>
      </trkpt>
      <trkpt lat="45.948" lon="6.52462">
        <ele>1689.65</ele>
        <time>2019-03-20T10:33:41Z</time>
      </trkpt>
      <trkpt lat="45.94798" lon="6.52461">
        <ele>1689.65</ele>
        <time>2019-03-20T10:33:43Z</time>
      </trkpt>
      <trkpt lat="45.94795" lon="6.52458">
        <ele>1690.14</ele>
        <time>2019-03-20T10:34:01Z</time>
      </trkpt>
      <trkpt lat="45.94795" lon="6.52455">
        <ele>1690.14</ele>
        <time>2019-03-20T10:34:02Z</time>
      </trkpt>
      <trkpt lat="45.94794" lon="6.52452">
        <ele>1689.65</ele>
        <time>2019-03-20T10:34:03Z</time>
      </trkpt>
      <trkpt lat="45.9479" lon="6.52427">
        <ele>1686.29</ele>
        <time>2019-03-20T10:34:09Z</time>
      </trkpt>
      <trkpt lat="45.9478" lon="6.52401">
        <ele>1682.93</ele>
        <time>2019-03-20T10:34:15Z</time>
      </trkpt>
      <trkpt lat="45.94771" lon="6.52381">
        <ele>1679.56</ele>
        <time>2019-03-20T10:34:22Z</time>
      </trkpt>
      <trkpt lat="45.94765" lon="6.52352">
        <ele>1676.2</ele>
        <time>2019-03-20T10:34:35Z</time>
      </trkpt>
      <trkpt lat="45.94761" lon="6.52335">
        <ele>1674.27</ele>
        <time>2019-03-20T10:34:39Z</time>
      </trkpt>
      <trkpt lat="45.94758" lon="6.52328">
        <ele>1672.83</ele>
        <time>2019-03-20T10:34:40Z</time>
      </trkpt>
      <trkpt lat="45.94752" lon="6.52314">
        <ele>1668.99</ele>
        <time>2019-03-20T10:34:42Z</time>
      </trkpt>
      <trkpt lat="45.94746" lon="6.52302">
        <ele>1666.58</ele>
        <time>2019-03-20T10:34:44Z</time>
      </trkpt>
      <trkpt lat="45.94744" lon="6.52299">
        <ele>1666.58</ele>
        <time>2019-03-20T10:34:45Z</time>
      </trkpt>
      <trkpt lat="45.94743" lon="6.52298">
        <ele>1666.58</ele>
        <time>2019-03-20T10:34:46Z</time>
      </trkpt>
      <trkpt lat="45.94742" lon="6.52297">
        <ele>1666.58</ele>
        <time>2019-03-20T10:34:47Z</time>
      </trkpt>
      <trkpt lat="45.94741" lon="6.52296">
        <ele>1666.58</ele>
        <time>2019-03-20T10:34:48Z</time>
      </trkpt>
      <trkpt lat="45.94738" lon="6.52293">
        <ele>1667.54</ele>
        <time>2019-03-20T10:34:53Z</time>
      </trkpt>
      <trkpt lat="45.94735" lon="6.52287">
        <ele>1668.02</ele>
        <time>2019-03-20T10:35:13Z</time>
      </trkpt>
      <trkpt lat="45.94725" lon="6.52272">
        <ele>1668.02</ele>
        <time>2019-03-20T10:35:24Z</time>
      </trkpt>
      <trkpt lat="45.94723" lon="6.52272">
        <ele>1667.54</ele>
        <time>2019-03-20T10:35:25Z</time>
      </trkpt>
      <trkpt lat="45.94722" lon="6.52271">
        <ele>1667.06</ele>
        <time>2019-03-20T10:35:26Z</time>
      </trkpt>
      <trkpt lat="45.94721" lon="6.52271">
        <ele>1667.06</ele>
        <time>2019-03-20T10:35:27Z</time>
      </trkpt>
      <trkpt lat="45.9472" lon="6.52271">
        <ele>1667.06</ele>
        <time>2019-03-20T10:35:28Z</time>
      </trkpt>
      <trkpt lat="45.94705" lon="6.52267">
        <ele>1667.54</ele>
        <time>2019-03-20T10:35:45Z</time>
      </trkpt>
      <trkpt lat="45.94695" lon="6.52257">
        <ele>1670.43</ele>
        <time>2019-03-20T10:36:06Z</time>
      </trkpt>
      <trkpt lat="45.94694" lon="6.52256">
        <ele>1670.43</ele>
        <time>2019-03-20T10:36:07Z</time>
      </trkpt>
      <trkpt lat="45.94676" lon="6.52253">
        <ele>1672.35</ele>
        <time>2019-03-20T10:36:35Z</time>
      </trkpt>
      <trkpt lat="45.94667" lon="6.52263">
        <ele>1673.79</ele>
        <time>2019-03-20T10:36:51Z</time>
      </trkpt>
      <trkpt lat="45.94666" lon="6.52265">
        <ele>1673.79</ele>
        <time>2019-03-20T10:36:53Z</time>
      </trkpt>
      <trkpt lat="45.94665" lon="6.52266">
        <ele>1673.79</ele>
        <time>2019-03-20T10:36:54Z</time>
      </trkpt>
      <trkpt lat="45.9466" lon="6.52268">
        <ele>1674.27</ele>
        <time>2019-03-20T10:37:01Z</time>
      </trkpt>
      <trkpt lat="45.94652" lon="6.52269">
        <ele>1676.2</ele>
        <time>2019-03-20T10:37:27Z</time>
      </trkpt>
      <trkpt lat="45.94648" lon="6.52266">
        <ele>1677.16</ele>
        <time>2019-03-20T10:37:37Z</time>
      </trkpt>
      <trkpt lat="45.94647" lon="6.52265">
        <ele>1677.16</ele>
        <time>2019-03-20T10:37:38Z</time>
      </trkpt>
      <trkpt lat="45.94628" lon="6.52254">
        <ele>1678.6</ele>
        <time>2019-03-20T10:38:04Z</time>
      </trkpt>
      <trkpt lat="45.94621" lon="6.52255">
        <ele>1680.52</ele>
        <time>2019-03-20T10:38:15Z</time>
      </trkpt>
      <trkpt lat="45.94578" lon="6.5223">
        <ele>1683.41</ele>
        <time>2019-03-20T10:39:09Z</time>
      </trkpt>
      <trkpt lat="45.94566" lon="6.52222">
        <ele>1686.29</ele>
        <time>2019-03-20T10:39:35Z</time>
      </trkpt>
      <trkpt lat="45.94564" lon="6.52221">
        <ele>1686.77</ele>
        <time>2019-03-20T10:39:37Z</time>
      </trkpt>
      <trkpt lat="45.94559" lon="6.5222">
        <ele>1688.21</ele>
        <time>2019-03-20T10:39:44Z</time>
      </trkpt>
      <trkpt lat="45.94549" lon="6.52219">
        <ele>1691.1</ele>
        <time>2019-03-20T10:40:02Z</time>
      </trkpt>
      <trkpt lat="45.94542" lon="6.52226">
        <ele>1693.98</ele>
        <time>2019-03-20T10:40:20Z</time>
      </trkpt>
      <trkpt lat="45.94536" lon="6.52229">
        <ele>1697.34</ele>
        <time>2019-03-20T10:40:35Z</time>
      </trkpt>
      <trkpt lat="45.94531" lon="6.52235">
        <ele>1700.71</ele>
        <time>2019-03-20T10:40:51Z</time>
      </trkpt>
      <trkpt lat="45.94525" lon="6.52238">
        <ele>1703.59</ele>
        <time>2019-03-20T10:41:06Z</time>
      </trkpt>
      <trkpt lat="45.94518" lon="6.52243">
        <ele>1706.96</ele>
        <time>2019-03-20T10:41:23Z</time>
      </trkpt>
      <trkpt lat="45.94508" lon="6.52254">
        <ele>1709.84</ele>
        <time>2019-03-20T10:41:57Z</time>
      </trkpt>
      <trkpt lat="45.945" lon="6.52247">
        <ele>1713.21</ele>
        <time>2019-03-20T10:42:15Z</time>
      </trkpt>
      <trkpt lat="45.94496" lon="6.52258">
        <ele>1715.61</ele>
        <time>2019-03-20T10:43:12Z</time>
      </trkpt>
      <trkpt lat="45.9449" lon="6.52259">
        <ele>1715.13</ele>
        <time>2019-03-20T10:44:18Z</time>
      </trkpt>
      <trkpt lat="45.94491" lon="6.52259">
        <ele>1716.09</ele>
        <time>2019-03-20T10:44:39Z</time>
      </trkpt>
      <trkpt lat="45.94489" lon="6.52259">
        <ele>1715.61</ele>
        <time>2019-03-20T10:45:18Z</time>
      </trkpt>
      <trkpt lat="45.94487" lon="6.52261">
        <ele>1715.61</ele>
        <time>2019-03-20T10:45:24Z</time>
      </trkpt>
      <trkpt lat="45.94487" lon="6.52262">
        <ele>1715.61</ele>
        <time>2019-03-20T10:45:25Z</time>
      </trkpt>
      <trkpt lat="45.94486" lon="6.52263">
        <ele>1715.61</ele>
        <time>2019-03-20T10:45:26Z</time>
      </trkpt>
      <trkpt lat="45.94485" lon="6.52264">
        <ele>1715.61</ele>
        <time>2019-03-20T10:45:27Z</time>
      </trkpt>
      <trkpt lat="45.94472" lon="6.52275">
        <ele>1718.97</ele>
        <time>2019-03-20T10:45:49Z</time>
      </trkpt>
      <trkpt lat="45.94465" lon="6.5228">
        <ele>1722.34</ele>
        <time>2019-03-20T10:46:07Z</time>
      </trkpt>
      <trkpt lat="45.94466" lon="6.52292">
        <ele>1725.22</ele>
        <time>2019-03-20T10:46:24Z</time>
      </trkpt>
      <trkpt lat="45.9446" lon="6.52293">
        <ele>1728.11</ele>
        <time>2019-03-20T10:46:45Z</time>
      </trkpt>
      <trkpt lat="45.94455" lon="6.52298">
        <ele>1730.99</ele>
        <time>2019-03-20T10:47:17Z</time>
      </trkpt>
      <trkpt lat="45.94451" lon="6.52298">
        <ele>1734.36</ele>
        <time>2019-03-20T10:48:05Z</time>
      </trkpt>
      <trkpt lat="45.94446" lon="6.52303">
        <ele>1737.24</ele>
        <time>2019-03-20T10:48:28Z</time>
      </trkpt>
      <trkpt lat="45.94442" lon="6.52302">
        <ele>1740.6</ele>
        <time>2019-03-20T10:48:57Z</time>
      </trkpt>
      <trkpt lat="45.94443" lon="6.52314">
        <ele>1743.49</ele>
        <time>2019-03-20T10:49:15Z</time>
      </trkpt>
      <trkpt lat="45.94433" lon="6.52308">
        <ele>1746.37</ele>
        <time>2019-03-20T10:49:40Z</time>
      </trkpt>
      <trkpt lat="45.94429" lon="6.52311">
        <ele>1749.74</ele>
        <time>2019-03-20T10:50:01Z</time>
      </trkpt>
      <trkpt lat="45.9442" lon="6.52313">
        <ele>1750.7</ele>
        <time>2019-03-20T10:50:16Z</time>
      </trkpt>
      <trkpt lat="45.94413" lon="6.52318">
        <ele>1748.78</ele>
        <time>2019-03-20T10:50:21Z</time>
      </trkpt>
      <trkpt lat="45.94413" lon="6.52319">
        <ele>1748.29</ele>
        <time>2019-03-20T10:50:22Z</time>
      </trkpt>
      <trkpt lat="45.94411" lon="6.52321">
        <ele>1747.33</ele>
        <time>2019-03-20T10:50:23Z</time>
      </trkpt>
      <trkpt lat="45.94405" lon="6.52328">
        <ele>1743.97</ele>
        <time>2019-03-20T10:50:28Z</time>
      </trkpt>
      <trkpt lat="45.94385" lon="6.52335">
        <ele>1743.01</ele>
        <time>2019-03-20T10:50:48Z</time>
      </trkpt>
      <trkpt lat="45.94357" lon="6.52339">
        <ele>1743.97</ele>
        <time>2019-03-20T10:51:27Z</time>
      </trkpt>
      <trkpt lat="45.94338" lon="6.52341">
        <ele>1746.85</ele>
        <time>2019-03-20T10:51:52Z</time>
      </trkpt>
      <trkpt lat="45.94334" lon="6.52344">
        <ele>1748.78</ele>
        <time>2019-03-20T10:52:00Z</time>
      </trkpt>
      <trkpt lat="45.94335" lon="6.5235">
        <ele>1751.66</ele>
        <time>2019-03-20T10:52:16Z</time>
      </trkpt>
      <trkpt lat="45.94322" lon="6.52348">
        <ele>1754.54</ele>
        <time>2019-03-20T10:52:48Z</time>
      </trkpt>
      <trkpt lat="45.94313" lon="6.52348">
        <ele>1757.91</ele>
        <time>2019-03-20T10:53:03Z</time>
      </trkpt>
      <trkpt lat="45.94309" lon="6.52348">
        <ele>1758.87</ele>
        <time>2019-03-20T10:53:12Z</time>
      </trkpt>
      <trkpt lat="45.94295" lon="6.52347">
        <ele>1762.23</ele>
        <time>2019-03-20T10:53:35Z</time>
      </trkpt>
      <trkpt lat="45.9429" lon="6.52346">
        <ele>1764.16</ele>
        <time>2019-03-20T10:53:45Z</time>
      </trkpt>
      <trkpt lat="45.94285" lon="6.52348">
        <ele>1767.04</ele>
        <time>2019-03-20T10:53:56Z</time>
      </trkpt>
      <trkpt lat="45.94284" lon="6.52358">
        <ele>1770.41</ele>
        <time>2019-03-20T10:54:13Z</time>
      </trkpt>
      <trkpt lat="45.94283" lon="6.5237">
        <ele>1773.29</ele>
        <time>2019-03-20T10:54:28Z</time>
      </trkpt>
      <trkpt lat="45.94284" lon="6.52382">
        <ele>1776.17</ele>
        <time>2019-03-20T10:54:43Z</time>
      </trkpt>
      <trkpt lat="45.94278" lon="6.52389">
        <ele>1779.06</ele>
        <time>2019-03-20T10:55:01Z</time>
      </trkpt>
      <trkpt lat="45.94268" lon="6.52385">
        <ele>1782.42</ele>
        <time>2019-03-20T10:55:18Z</time>
      </trkpt>
      <trkpt lat="45.94264" lon="6.52381">
        <ele>1783.86</ele>
        <time>2019-03-20T10:55:26Z</time>
      </trkpt>
      <trkpt lat="45.94262" lon="6.52379">
        <ele>1785.31</ele>
        <time>2019-03-20T10:56:09Z</time>
      </trkpt>
      <trkpt lat="45.94262" lon="6.52379">
        <ele>1784.82</ele>
        <time>2019-03-20T10:56:34Z</time>
      </trkpt>
      <trkpt lat="45.94261" lon="6.52376">
        <ele>1785.31</ele>
        <time>2019-03-20T10:57:21Z</time>
      </trkpt>
      <trkpt lat="45.94257" lon="6.5238">
        <ele>1786.27</ele>
        <time>2019-03-20T10:57:53Z</time>
      </trkpt>
      <trkpt lat="45.94248" lon="6.52383">
        <ele>1789.63</ele>
        <time>2019-03-20T10:58:09Z</time>
      </trkpt>
      <trkpt lat="45.94241" lon="6.52389">
        <ele>1792.52</ele>
        <time>2019-03-20T10:58:23Z</time>
      </trkpt>
      <trkpt lat="45.94234" lon="6.52392">
        <ele>1795.88</ele>
        <time>2019-03-20T10:58:36Z</time>
      </trkpt>
      <trkpt lat="45.94226" lon="6.52397">
        <ele>1798.76</ele>
        <time>2019-03-20T10:58:52Z</time>
      </trkpt>
      <trkpt lat="45.94217" lon="6.52398">
        <ele>1801.65</ele>
        <time>2019-03-20T10:59:08Z</time>
      </trkpt>
      <trkpt lat="45.94211" lon="6.52398">
        <ele>1805.01</ele>
        <time>2019-03-20T10:59:24Z</time>
      </trkpt>
      <trkpt lat="45.94215" lon="6.52411">
        <ele>1808.38</ele>
        <time>2019-03-20T10:59:41Z</time>
      </trkpt>
      <trkpt lat="45.94218" lon="6.52423">
        <ele>1811.26</ele>
        <time>2019-03-20T10:59:58Z</time>
      </trkpt>
      <trkpt lat="45.94222" lon="6.52432">
        <ele>1814.63</ele>
        <time>2019-03-20T11:00:13Z</time>
      </trkpt>
      <trkpt lat="45.94218" lon="6.52438">
        <ele>1817.51</ele>
        <time>2019-03-20T11:00:32Z</time>
      </trkpt>
      <trkpt lat="45.94211" lon="6.52442">
        <ele>1820.87</ele>
        <time>2019-03-20T11:00:47Z</time>
      </trkpt>
      <trkpt lat="45.94209" lon="6.52449">
        <ele>1823.76</ele>
        <time>2019-03-20T11:01:00Z</time>
      </trkpt>
      <trkpt lat="45.94209" lon="6.52455">
        <ele>1825.2</ele>
        <time>2019-03-20T11:01:06Z</time>
      </trkpt>
      <trkpt lat="45.9421" lon="6.52457">
        <ele>1825.2</ele>
        <time>2019-03-20T11:01:08Z</time>
      </trkpt>
      <trkpt lat="45.94206" lon="6.52467">
        <ele>1828.56</ele>
        <time>2019-03-20T11:01:27Z</time>
      </trkpt>
      <trkpt lat="45.94208" lon="6.52473">
        <ele>1831.45</ele>
        <time>2019-03-20T11:01:42Z</time>
      </trkpt>
      <trkpt lat="45.94214" lon="6.52483">
        <ele>1834.81</ele>
        <time>2019-03-20T11:02:00Z</time>
      </trkpt>
      <trkpt lat="45.94218" lon="6.52497">
        <ele>1837.7</ele>
        <time>2019-03-20T11:02:16Z</time>
      </trkpt>
      <trkpt lat="45.94215" lon="6.52504">
        <ele>1841.06</ele>
        <time>2019-03-20T11:02:38Z</time>
      </trkpt>
      <trkpt lat="45.94205" lon="6.52502">
        <ele>1844.43</ele>
        <time>2019-03-20T11:02:55Z</time>
      </trkpt>
      <trkpt lat="45.94199" lon="6.52505">
        <ele>1847.31</ele>
        <time>2019-03-20T11:03:07Z</time>
      </trkpt>
      <trkpt lat="45.94193" lon="6.52516">
        <ele>1850.19</ele>
        <time>2019-03-20T11:03:25Z</time>
      </trkpt>
      <trkpt lat="45.94189" lon="6.52526">
        <ele>1853.56</ele>
        <time>2019-03-20T11:03:39Z</time>
      </trkpt>
      <trkpt lat="45.94188" lon="6.52529">
        <ele>1855</ele>
        <time>2019-03-20T11:03:45Z</time>
      </trkpt>
      <trkpt lat="45.94184" lon="6.52539">
        <ele>1857.89</ele>
        <time>2019-03-20T11:04:01Z</time>
      </trkpt>
      <trkpt lat="45.94183" lon="6.52552">
        <ele>1861.25</ele>
        <time>2019-03-20T11:04:16Z</time>
      </trkpt>
      <trkpt lat="45.94186" lon="6.52563">
        <ele>1864.13</ele>
        <time>2019-03-20T11:04:32Z</time>
      </trkpt>
      <trkpt lat="45.94186" lon="6.52574">
        <ele>1867.5</ele>
        <time>2019-03-20T11:04:47Z</time>
      </trkpt>
      <trkpt lat="45.94185" lon="6.52583">
        <ele>1870.38</ele>
        <time>2019-03-20T11:05:04Z</time>
      </trkpt>
      <trkpt lat="45.94177" lon="6.52587">
        <ele>1873.75</ele>
        <time>2019-03-20T11:05:18Z</time>
      </trkpt>
      <trkpt lat="45.94171" lon="6.5259">
        <ele>1876.63</ele>
        <time>2019-03-20T11:05:32Z</time>
      </trkpt>
      <trkpt lat="45.94163" lon="6.52596">
        <ele>1879.51</ele>
        <time>2019-03-20T11:05:49Z</time>
      </trkpt>
      <trkpt lat="45.94154" lon="6.52595">
        <ele>1882.88</ele>
        <time>2019-03-20T11:06:06Z</time>
      </trkpt>
      <trkpt lat="45.94151" lon="6.52591">
        <ele>1883.36</ele>
        <time>2019-03-20T11:06:10Z</time>
      </trkpt>
      <trkpt lat="45.94144" lon="6.52588">
        <ele>1886.72</ele>
        <time>2019-03-20T11:06:27Z</time>
      </trkpt>
      <trkpt lat="45.94136" lon="6.52593">
        <ele>1889.61</ele>
        <time>2019-03-20T11:06:44Z</time>
      </trkpt>
      <trkpt lat="45.94132" lon="6.52599">
        <ele>1892.97</ele>
        <time>2019-03-20T11:06:59Z</time>
      </trkpt>
      <trkpt lat="45.94135" lon="6.52605">
        <ele>1894.42</ele>
        <time>2019-03-20T11:07:06Z</time>
      </trkpt>
      <trkpt lat="45.94136" lon="6.52608">
        <ele>1894.9</ele>
        <time>2019-03-20T11:07:10Z</time>
      </trkpt>
      <trkpt lat="45.94136" lon="6.5261">
        <ele>1895.38</ele>
        <time>2019-03-20T11:07:12Z</time>
      </trkpt>
      <trkpt lat="45.94136" lon="6.52612">
        <ele>1895.38</ele>
        <time>2019-03-20T11:07:14Z</time>
      </trkpt>
      <trkpt lat="45.94127" lon="6.52618">
        <ele>1898.74</ele>
        <time>2019-03-20T11:07:31Z</time>
      </trkpt>
      <trkpt lat="45.94123" lon="6.52619">
        <ele>1899.7</ele>
        <time>2019-03-20T11:07:37Z</time>
      </trkpt>
      <trkpt lat="45.9411" lon="6.52623">
        <ele>1902.59</ele>
        <time>2019-03-20T11:07:57Z</time>
      </trkpt>
      <trkpt lat="45.94098" lon="6.52628">
        <ele>1905.47</ele>
        <time>2019-03-20T11:08:15Z</time>
      </trkpt>
      <trkpt lat="45.94093" lon="6.52632">
        <ele>1908.83</ele>
        <time>2019-03-20T11:08:32Z</time>
      </trkpt>
      <trkpt lat="45.94104" lon="6.52647">
        <ele>1911.72</ele>
        <time>2019-03-20T11:08:53Z</time>
      </trkpt>
      <trkpt lat="45.94113" lon="6.52659">
        <ele>1914.6</ele>
        <time>2019-03-20T11:09:12Z</time>
      </trkpt>
      <trkpt lat="45.94116" lon="6.52666">
        <ele>1915.56</ele>
        <time>2019-03-20T11:09:20Z</time>
      </trkpt>
      <trkpt lat="45.9411" lon="6.52674">
        <ele>1918.93</ele>
        <time>2019-03-20T11:09:42Z</time>
      </trkpt>
      <trkpt lat="45.94097" lon="6.52675">
        <ele>1921.81</ele>
        <time>2019-03-20T11:10:00Z</time>
      </trkpt>
      <trkpt lat="45.94085" lon="6.52676">
        <ele>1925.18</ele>
        <time>2019-03-20T11:10:18Z</time>
      </trkpt>
      <trkpt lat="45.94082" lon="6.52677">
        <ele>1925.66</ele>
        <time>2019-03-20T11:10:23Z</time>
      </trkpt>
      <trkpt lat="45.9408" lon="6.52677">
        <ele>1925.66</ele>
        <time>2019-03-20T11:10:25Z</time>
      </trkpt>
      <trkpt lat="45.94079" lon="6.52677">
        <ele>1926.14</ele>
        <time>2019-03-20T11:10:27Z</time>
      </trkpt>
      <trkpt lat="45.94077" lon="6.52676">
        <ele>1926.62</ele>
        <time>2019-03-20T11:10:29Z</time>
      </trkpt>
      <trkpt lat="45.94076" lon="6.52675">
        <ele>1926.62</ele>
        <time>2019-03-20T11:10:31Z</time>
      </trkpt>
      <trkpt lat="45.94068" lon="6.52669">
        <ele>1929.98</ele>
        <time>2019-03-20T11:10:50Z</time>
      </trkpt>
      <trkpt lat="45.9407" lon="6.52678">
        <ele>1931.91</ele>
        <time>2019-03-20T11:11:01Z</time>
      </trkpt>
      <trkpt lat="45.94071" lon="6.52684">
        <ele>1932.87</ele>
        <time>2019-03-20T11:11:07Z</time>
      </trkpt>
      <trkpt lat="45.94076" lon="6.52695">
        <ele>1935.75</ele>
        <time>2019-03-20T11:11:23Z</time>
      </trkpt>
      <trkpt lat="45.94082" lon="6.52706">
        <ele>1939.12</ele>
        <time>2019-03-20T11:11:39Z</time>
      </trkpt>
      <trkpt lat="45.94083" lon="6.52707">
        <ele>1939.12</ele>
        <time>2019-03-20T11:11:40Z</time>
      </trkpt>
      <trkpt lat="45.94088" lon="6.52717">
        <ele>1941.52</ele>
        <time>2019-03-20T11:11:54Z</time>
      </trkpt>
      <trkpt lat="45.94091" lon="6.52725">
        <ele>1942.96</ele>
        <time>2019-03-20T11:12:02Z</time>
      </trkpt>
      <trkpt lat="45.94092" lon="6.52726">
        <ele>1943.44</ele>
        <time>2019-03-20T11:12:04Z</time>
      </trkpt>
      <trkpt lat="45.94093" lon="6.5273">
        <ele>1943.92</ele>
        <time>2019-03-20T11:12:08Z</time>
      </trkpt>
      <trkpt lat="45.94095" lon="6.52736">
        <ele>1944.88</ele>
        <time>2019-03-20T11:12:14Z</time>
      </trkpt>
      <trkpt lat="45.941" lon="6.52751">
        <ele>1947.77</ele>
        <time>2019-03-20T11:12:32Z</time>
      </trkpt>
      <trkpt lat="45.94109" lon="6.52756">
        <ele>1951.13</ele>
        <time>2019-03-20T11:12:49Z</time>
      </trkpt>
      <trkpt lat="45.9411" lon="6.52769">
        <ele>1952.57</ele>
        <time>2019-03-20T11:13:03Z</time>
      </trkpt>
      <trkpt lat="45.94109" lon="6.5277">
        <ele>1953.06</ele>
        <time>2019-03-20T11:13:05Z</time>
      </trkpt>
      <trkpt lat="45.94097" lon="6.52775">
        <ele>1955.94</ele>
        <time>2019-03-20T11:13:24Z</time>
      </trkpt>
      <trkpt lat="45.94094" lon="6.52778">
        <ele>1959.3</ele>
        <time>2019-03-20T11:13:42Z</time>
      </trkpt>
      <trkpt lat="45.94095" lon="6.52781">
        <ele>1959.78</ele>
        <time>2019-03-20T11:13:45Z</time>
      </trkpt>
      <trkpt lat="45.94102" lon="6.52804">
        <ele>1962.67</ele>
        <time>2019-03-20T11:14:05Z</time>
      </trkpt>
      <trkpt lat="45.94093" lon="6.52803">
        <ele>1966.03</ele>
        <time>2019-03-20T11:14:28Z</time>
      </trkpt>
      <trkpt lat="45.94091" lon="6.52802">
        <ele>1966.03</ele>
        <time>2019-03-20T11:14:30Z</time>
      </trkpt>
      <trkpt lat="45.94075" lon="6.52787">
        <ele>1969.4</ele>
        <time>2019-03-20T11:14:51Z</time>
      </trkpt>
      <trkpt lat="45.94075" lon="6.52796">
        <ele>1971.8</ele>
        <time>2019-03-20T11:15:15Z</time>
      </trkpt>
      <trkpt lat="45.94083" lon="6.52814">
        <ele>1975.17</ele>
        <time>2019-03-20T11:15:34Z</time>
      </trkpt>
      <trkpt lat="45.94072" lon="6.52815">
        <ele>1978.05</ele>
        <time>2019-03-20T11:15:57Z</time>
      </trkpt>
      <trkpt lat="45.9407" lon="6.52815">
        <ele>1978.53</ele>
        <time>2019-03-20T11:15:59Z</time>
      </trkpt>
      <trkpt lat="45.94064" lon="6.52808">
        <ele>1981.41</ele>
        <time>2019-03-20T11:16:16Z</time>
      </trkpt>
      <trkpt lat="45.94065" lon="6.52813">
        <ele>1981.9</ele>
        <time>2019-03-20T11:16:31Z</time>
      </trkpt>
      <trkpt lat="45.94064" lon="6.52824">
        <ele>1984.78</ele>
        <time>2019-03-20T11:16:56Z</time>
      </trkpt>
      <trkpt lat="45.94063" lon="6.52824">
        <ele>1985.26</ele>
        <time>2019-03-20T11:16:58Z</time>
      </trkpt>
      <trkpt lat="45.94053" lon="6.52817">
        <ele>1988.62</ele>
        <time>2019-03-20T11:17:15Z</time>
      </trkpt>
      <trkpt lat="45.94052" lon="6.52814">
        <ele>1988.62</ele>
        <time>2019-03-20T11:17:18Z</time>
      </trkpt>
      <trkpt lat="45.94047" lon="6.52808">
        <ele>1991.99</ele>
        <time>2019-03-20T11:17:53Z</time>
      </trkpt>
      <trkpt lat="45.94047" lon="6.52808">
        <ele>1991.51</ele>
        <time>2019-03-20T11:18:40Z</time>
      </trkpt>
      <trkpt lat="45.94048" lon="6.52806">
        <ele>1991.51</ele>
        <time>2019-03-20T11:19:03Z</time>
      </trkpt>
      <trkpt lat="45.94049" lon="6.52807">
        <ele>1991.03</ele>
        <time>2019-03-20T11:19:20Z</time>
      </trkpt>
      <trkpt lat="45.94048" lon="6.52808">
        <ele>1991.03</ele>
        <time>2019-03-20T11:19:38Z</time>
      </trkpt>
      <trkpt lat="45.94048" lon="6.52808">
        <ele>1991.51</ele>
        <time>2019-03-20T11:20:05Z</time>
      </trkpt>
      <trkpt lat="45.94047" lon="6.52809">
        <ele>1991.51</ele>
        <time>2019-03-20T11:20:41Z</time>
      </trkpt>
      <trkpt lat="45.94049" lon="6.52809">
        <ele>1991.03</ele>
        <time>2019-03-20T11:21:25Z</time>
      </trkpt>
      <trkpt lat="45.94048" lon="6.52808">
        <ele>1990.55</ele>
        <time>2019-03-20T11:22:05Z</time>
      </trkpt>
      <trkpt lat="45.94048" lon="6.52811">
        <ele>1990.55</ele>
        <time>2019-03-20T11:22:47Z</time>
      </trkpt>
      <trkpt lat="45.94049" lon="6.52808">
        <ele>1990.55</ele>
        <time>2019-03-20T11:23:53Z</time>
      </trkpt>
      <trkpt lat="45.94038" lon="6.52822">
        <ele>1993.43</ele>
        <time>2019-03-20T11:27:42Z</time>
      </trkpt>
      <trkpt lat="45.94038" lon="6.52822">
        <ele>1993.91</ele>
        <time>2019-03-20T11:27:43Z</time>
      </trkpt>
      <trkpt lat="45.94037" lon="6.52824">
        <ele>1994.39</ele>
        <time>2019-03-20T11:27:45Z</time>
      </trkpt>
      <trkpt lat="45.94036" lon="6.52825">
        <ele>1994.39</ele>
        <time>2019-03-20T11:27:47Z</time>
      </trkpt>
      <trkpt lat="45.94031" lon="6.52827">
        <ele>1995.83</ele>
        <time>2019-03-20T11:27:54Z</time>
      </trkpt>
      <trkpt lat="45.94029" lon="6.52833">
        <ele>1998.24</ele>
        <time>2019-03-20T11:28:07Z</time>
      </trkpt>
      <trkpt lat="45.94036" lon="6.52848">
        <ele>2000.64</ele>
        <time>2019-03-20T11:28:25Z</time>
      </trkpt>
      <trkpt lat="45.9403" lon="6.5285">
        <ele>2002.08</ele>
        <time>2019-03-20T11:28:36Z</time>
      </trkpt>
      <trkpt lat="45.94017" lon="6.52844">
        <ele>2004.97</ele>
        <time>2019-03-20T11:28:57Z</time>
      </trkpt>
      <trkpt lat="45.94014" lon="6.52844">
        <ele>2005.93</ele>
        <time>2019-03-20T11:29:02Z</time>
      </trkpt>
      <trkpt lat="45.94008" lon="6.52844">
        <ele>2007.37</ele>
        <time>2019-03-20T11:29:13Z</time>
      </trkpt>
      <trkpt lat="45.94005" lon="6.52845">
        <ele>2008.33</ele>
        <time>2019-03-20T11:29:17Z</time>
      </trkpt>
      <trkpt lat="45.94001" lon="6.52844">
        <ele>2008.81</ele>
        <time>2019-03-20T11:29:30Z</time>
      </trkpt>
      <trkpt lat="45.93997" lon="6.52841">
        <ele>2009.77</ele>
        <time>2019-03-20T11:29:36Z</time>
      </trkpt>
      <trkpt lat="45.93983" lon="6.52836">
        <ele>2012.66</ele>
        <time>2019-03-20T11:30:03Z</time>
      </trkpt>
      <trkpt lat="45.93979" lon="6.52833">
        <ele>2013.62</ele>
        <time>2019-03-20T11:30:09Z</time>
      </trkpt>
      <trkpt lat="45.93968" lon="6.52821">
        <ele>2016.02</ele>
        <time>2019-03-20T11:30:28Z</time>
      </trkpt>
      <trkpt lat="45.93965" lon="6.5283">
        <ele>2019.39</ele>
        <time>2019-03-20T11:30:45Z</time>
      </trkpt>
      <trkpt lat="45.93966" lon="6.52836">
        <ele>2019.87</ele>
        <time>2019-03-20T11:30:50Z</time>
      </trkpt>
      <trkpt lat="45.93967" lon="6.52846">
        <ele>2021.31</ele>
        <time>2019-03-20T11:31:00Z</time>
      </trkpt>
      <trkpt lat="45.9397" lon="6.52859">
        <ele>2023.23</ele>
        <time>2019-03-20T11:31:14Z</time>
      </trkpt>
      <trkpt lat="45.9397" lon="6.52861">
        <ele>2023.71</ele>
        <time>2019-03-20T11:31:16Z</time>
      </trkpt>
      <trkpt lat="45.93976" lon="6.52876">
        <ele>2026.12</ele>
        <time>2019-03-20T11:31:32Z</time>
      </trkpt>
      <trkpt lat="45.93977" lon="6.52879">
        <ele>2026.6</ele>
        <time>2019-03-20T11:31:36Z</time>
      </trkpt>
      <trkpt lat="45.93978" lon="6.52881">
        <ele>2026.6</ele>
        <time>2019-03-20T11:31:38Z</time>
      </trkpt>
      <trkpt lat="45.9398" lon="6.52884">
        <ele>2027.56</ele>
        <time>2019-03-20T11:31:42Z</time>
      </trkpt>
      <trkpt lat="45.93982" lon="6.52889">
        <ele>2028.04</ele>
        <time>2019-03-20T11:31:48Z</time>
      </trkpt>
      <trkpt lat="45.93983" lon="6.52891">
        <ele>2028.52</ele>
        <time>2019-03-20T11:31:50Z</time>
      </trkpt>
      <trkpt lat="45.93981" lon="6.52905">
        <ele>2031.4</ele>
        <time>2019-03-20T11:32:11Z</time>
      </trkpt>
      <trkpt lat="45.93977" lon="6.52905">
        <ele>2032.36</ele>
        <time>2019-03-20T11:32:17Z</time>
      </trkpt>
      <trkpt lat="45.93967" lon="6.5291">
        <ele>2034.77</ele>
        <time>2019-03-20T11:32:33Z</time>
      </trkpt>
      <trkpt lat="45.93956" lon="6.52922">
        <ele>2038.13</ele>
        <time>2019-03-20T11:32:53Z</time>
      </trkpt>
      <trkpt lat="45.93951" lon="6.52922">
        <ele>2039.57</ele>
        <time>2019-03-20T11:33:02Z</time>
      </trkpt>
      <trkpt lat="45.93943" lon="6.52921">
        <ele>2041.5</ele>
        <time>2019-03-20T11:33:13Z</time>
      </trkpt>
      <trkpt lat="45.93935" lon="6.52925">
        <ele>2043.42</ele>
        <time>2019-03-20T11:33:23Z</time>
      </trkpt>
      <trkpt lat="45.93935" lon="6.52929">
        <ele>2044.38</ele>
        <time>2019-03-20T11:33:31Z</time>
      </trkpt>
      <trkpt lat="45.93939" lon="6.52934">
        <ele>2045.82</ele>
        <time>2019-03-20T11:33:39Z</time>
      </trkpt>
      <trkpt lat="45.93942" lon="6.52938">
        <ele>2046.78</ele>
        <time>2019-03-20T11:33:45Z</time>
      </trkpt>
      <trkpt lat="45.93949" lon="6.52947">
        <ele>2048.71</ele>
        <time>2019-03-20T11:33:58Z</time>
      </trkpt>
      <trkpt lat="45.9395" lon="6.52949">
        <ele>2049.19</ele>
        <time>2019-03-20T11:34:00Z</time>
      </trkpt>
      <trkpt lat="45.93962" lon="6.52966">
        <ele>2052.07</ele>
        <time>2019-03-20T11:34:23Z</time>
      </trkpt>
      <trkpt lat="45.93966" lon="6.52975">
        <ele>2053.99</ele>
        <time>2019-03-20T11:34:51Z</time>
      </trkpt>
      <trkpt lat="45.93966" lon="6.52976">
        <ele>2054.47</ele>
        <time>2019-03-20T11:34:52Z</time>
      </trkpt>
      <trkpt lat="45.93974" lon="6.52991">
        <ele>2056.4</ele>
        <time>2019-03-20T11:35:10Z</time>
      </trkpt>
      <trkpt lat="45.93976" lon="6.52992">
        <ele>2056.88</ele>
        <time>2019-03-20T11:35:12Z</time>
      </trkpt>
      <trkpt lat="45.93978" lon="6.52995">
        <ele>2057.84</ele>
        <time>2019-03-20T11:35:16Z</time>
      </trkpt>
      <trkpt lat="45.93979" lon="6.52997">
        <ele>2057.84</ele>
        <time>2019-03-20T11:35:18Z</time>
      </trkpt>
      <trkpt lat="45.93988" lon="6.53014">
        <ele>2061.2</ele>
        <time>2019-03-20T11:35:39Z</time>
      </trkpt>
      <trkpt lat="45.93994" lon="6.53027">
        <ele>2064.09</ele>
        <time>2019-03-20T11:35:59Z</time>
      </trkpt>
      <trkpt lat="45.93985" lon="6.53032">
        <ele>2066.01</ele>
        <time>2019-03-20T11:36:13Z</time>
      </trkpt>
      <trkpt lat="45.93979" lon="6.53038">
        <ele>2068.89</ele>
        <time>2019-03-20T11:36:30Z</time>
      </trkpt>
      <trkpt lat="45.93985" lon="6.53046">
        <ele>2070.82</ele>
        <time>2019-03-20T11:36:41Z</time>
      </trkpt>
      <trkpt lat="45.93981" lon="6.53055">
        <ele>2073.22</ele>
        <time>2019-03-20T11:37:01Z</time>
      </trkpt>
      <trkpt lat="45.9397" lon="6.53058">
        <ele>2076.59</ele>
        <time>2019-03-20T11:37:20Z</time>
      </trkpt>
      <trkpt lat="45.9396" lon="6.53056">
        <ele>2079.47</ele>
        <time>2019-03-20T11:37:37Z</time>
      </trkpt>
      <trkpt lat="45.93957" lon="6.53069">
        <ele>2082.83</ele>
        <time>2019-03-20T11:38:05Z</time>
      </trkpt>
      <trkpt lat="45.93953" lon="6.53075">
        <ele>2085.24</ele>
        <time>2019-03-20T11:38:47Z</time>
      </trkpt>
      <trkpt lat="45.93941" lon="6.53067">
        <ele>2087.64</ele>
        <time>2019-03-20T11:39:02Z</time>
      </trkpt>
      <trkpt lat="45.93935" lon="6.5306">
        <ele>2090.04</ele>
        <time>2019-03-20T11:39:41Z</time>
      </trkpt>
      <trkpt lat="45.93932" lon="6.53061">
        <ele>2090.04</ele>
        <time>2019-03-20T11:39:46Z</time>
      </trkpt>
      <trkpt lat="45.93928" lon="6.53062">
        <ele>2091</ele>
        <time>2019-03-20T11:39:52Z</time>
      </trkpt>
      <trkpt lat="45.93924" lon="6.53071">
        <ele>2094.37</ele>
        <time>2019-03-20T11:40:11Z</time>
      </trkpt>
      <trkpt lat="45.93926" lon="6.53073">
        <ele>2093.89</ele>
        <time>2019-03-20T11:40:59Z</time>
      </trkpt>
      <trkpt lat="45.93923" lon="6.53073">
        <ele>2093.89</ele>
        <time>2019-03-20T11:41:38Z</time>
      </trkpt>
      <trkpt lat="45.93923" lon="6.53073">
        <ele>2093.89</ele>
        <time>2019-03-20T11:42:08Z</time>
      </trkpt>
      <trkpt lat="45.93928" lon="6.53076">
        <ele>2094.85</ele>
        <time>2019-03-20T11:43:26Z</time>
      </trkpt>
      <trkpt lat="45.93929" lon="6.53077">
        <ele>2095.33</ele>
        <time>2019-03-20T11:43:28Z</time>
      </trkpt>
      <trkpt lat="45.93929" lon="6.53078">
        <ele>2095.81</ele>
        <time>2019-03-20T11:43:29Z</time>
      </trkpt>
      <trkpt lat="45.93929" lon="6.5308">
        <ele>2095.81</ele>
        <time>2019-03-20T11:43:30Z</time>
      </trkpt>
      <trkpt lat="45.93922" lon="6.5309">
        <ele>2098.7</ele>
        <time>2019-03-20T11:43:49Z</time>
      </trkpt>
      <trkpt lat="45.93914" lon="6.53094">
        <ele>2101.1</ele>
        <time>2019-03-20T11:44:02Z</time>
      </trkpt>
      <trkpt lat="45.93902" lon="6.53111">
        <ele>2103.98</ele>
        <time>2019-03-20T11:44:24Z</time>
      </trkpt>
      <trkpt lat="45.93894" lon="6.53119">
        <ele>2105.91</ele>
        <time>2019-03-20T11:44:40Z</time>
      </trkpt>
      <trkpt lat="45.93873" lon="6.53121">
        <ele>2108.79</ele>
        <time>2019-03-20T11:45:03Z</time>
      </trkpt>
      <trkpt lat="45.93855" lon="6.53116">
        <ele>2112.15</ele>
        <time>2019-03-20T11:45:27Z</time>
      </trkpt>
      <trkpt lat="45.9384" lon="6.53103">
        <ele>2115.04</ele>
        <time>2019-03-20T11:45:52Z</time>
      </trkpt>
      <trkpt lat="45.93833" lon="6.531">
        <ele>2116.48</ele>
        <time>2019-03-20T11:46:02Z</time>
      </trkpt>
      <trkpt lat="45.93824" lon="6.53094">
        <ele>2117.92</ele>
        <time>2019-03-20T11:46:15Z</time>
      </trkpt>
      <trkpt lat="45.93821" lon="6.53092">
        <ele>2118.4</ele>
        <time>2019-03-20T11:46:19Z</time>
      </trkpt>
      <trkpt lat="45.93816" lon="6.53088">
        <ele>2119.36</ele>
        <time>2019-03-20T11:46:26Z</time>
      </trkpt>
      <trkpt lat="45.938" lon="6.53084">
        <ele>2122.73</ele>
        <time>2019-03-20T11:46:46Z</time>
      </trkpt>
      <trkpt lat="45.93792" lon="6.5309">
        <ele>2125.61</ele>
        <time>2019-03-20T11:47:02Z</time>
      </trkpt>
      <trkpt lat="45.938" lon="6.53103">
        <ele>2128.5</ele>
        <time>2019-03-20T11:47:26Z</time>
      </trkpt>
      <trkpt lat="45.93805" lon="6.53117">
        <ele>2131.86</ele>
        <time>2019-03-20T11:47:45Z</time>
      </trkpt>
      <trkpt lat="45.93809" lon="6.53127">
        <ele>2135.23</ele>
        <time>2019-03-20T11:48:05Z</time>
      </trkpt>
      <trkpt lat="45.93813" lon="6.53138">
        <ele>2138.11</ele>
        <time>2019-03-20T11:48:24Z</time>
      </trkpt>
      <trkpt lat="45.9382" lon="6.53149">
        <ele>2140.99</ele>
        <time>2019-03-20T11:48:43Z</time>
      </trkpt>
      <trkpt lat="45.93825" lon="6.53159">
        <ele>2144.36</ele>
        <time>2019-03-20T11:49:01Z</time>
      </trkpt>
      <trkpt lat="45.9381" lon="6.5316">
        <ele>2147.24</ele>
        <time>2019-03-20T11:49:27Z</time>
      </trkpt>
      <trkpt lat="45.93796" lon="6.53155">
        <ele>2150.13</ele>
        <time>2019-03-20T11:49:49Z</time>
      </trkpt>
      <trkpt lat="45.93789" lon="6.53152">
        <ele>2151.57</ele>
        <time>2019-03-20T11:49:59Z</time>
      </trkpt>
      <trkpt lat="45.93784" lon="6.53158">
        <ele>2154.93</ele>
        <time>2019-03-20T11:50:18Z</time>
      </trkpt>
      <trkpt lat="45.93794" lon="6.53177">
        <ele>2157.82</ele>
        <time>2019-03-20T11:50:41Z</time>
      </trkpt>
      <trkpt lat="45.93805" lon="6.53192">
        <ele>2161.18</ele>
        <time>2019-03-20T11:51:03Z</time>
      </trkpt>
      <trkpt lat="45.938" lon="6.53202">
        <ele>2163.58</ele>
        <time>2019-03-20T11:51:22Z</time>
      </trkpt>
      <trkpt lat="45.93785" lon="6.53202">
        <ele>2166.47</ele>
        <time>2019-03-20T11:51:41Z</time>
      </trkpt>
      <trkpt lat="45.93775" lon="6.53202">
        <ele>2169.83</ele>
        <time>2019-03-20T11:52:01Z</time>
      </trkpt>
      <trkpt lat="45.93781" lon="6.53215">
        <ele>2172.72</ele>
        <time>2019-03-20T11:52:19Z</time>
      </trkpt>
      <trkpt lat="45.93774" lon="6.53221">
        <ele>2176.08</ele>
        <time>2019-03-20T11:52:43Z</time>
      </trkpt>
      <trkpt lat="45.93764" lon="6.5322">
        <ele>2178.97</ele>
        <time>2019-03-20T11:53:02Z</time>
      </trkpt>
      <trkpt lat="45.93758" lon="6.53233">
        <ele>2181.85</ele>
        <time>2019-03-20T11:53:22Z</time>
      </trkpt>
      <trkpt lat="45.93758" lon="6.53241">
        <ele>2183.77</ele>
        <time>2019-03-20T11:54:05Z</time>
      </trkpt>
      <trkpt lat="45.93757" lon="6.53241">
        <ele>2183.77</ele>
        <time>2019-03-20T11:54:06Z</time>
      </trkpt>
      <trkpt lat="45.93757" lon="6.53243">
        <ele>2183.77</ele>
        <time>2019-03-20T11:54:47Z</time>
      </trkpt>
      <trkpt lat="45.93758" lon="6.53244">
        <ele>2183.77</ele>
        <time>2019-03-20T11:55:34Z</time>
      </trkpt>
      <trkpt lat="45.93754" lon="6.53261">
        <ele>2186.66</ele>
        <time>2019-03-20T11:55:57Z</time>
      </trkpt>
      <trkpt lat="45.93758" lon="6.53272">
        <ele>2190.02</ele>
        <time>2019-03-20T11:56:12Z</time>
      </trkpt>
      <trkpt lat="45.9376" lon="6.53277">
        <ele>2190.98</ele>
        <time>2019-03-20T11:56:18Z</time>
      </trkpt>
      <trkpt lat="45.93763" lon="6.53291">
        <ele>2194.35</ele>
        <time>2019-03-20T11:56:34Z</time>
      </trkpt>
      <trkpt lat="45.93766" lon="6.53309">
        <ele>2197.23</ele>
        <time>2019-03-20T11:56:51Z</time>
      </trkpt>
      <trkpt lat="45.9377" lon="6.53324">
        <ele>2200.59</ele>
        <time>2019-03-20T11:57:08Z</time>
      </trkpt>
      <trkpt lat="45.93773" lon="6.53338">
        <ele>2203.48</ele>
        <time>2019-03-20T11:57:24Z</time>
      </trkpt>
      <trkpt lat="45.93775" lon="6.53359">
        <ele>2206.84</ele>
        <time>2019-03-20T11:57:45Z</time>
      </trkpt>
      <trkpt lat="45.9378" lon="6.53376">
        <ele>2209.73</ele>
        <time>2019-03-20T11:58:02Z</time>
      </trkpt>
      <trkpt lat="45.9378" lon="6.53377">
        <ele>2210.21</ele>
        <time>2019-03-20T11:58:03Z</time>
      </trkpt>
      <trkpt lat="45.9378" lon="6.53379">
        <ele>2210.21</ele>
        <time>2019-03-20T11:58:05Z</time>
      </trkpt>
      <trkpt lat="45.93781" lon="6.53388">
        <ele>2212.13</ele>
        <time>2019-03-20T11:58:15Z</time>
      </trkpt>
      <trkpt lat="45.93781" lon="6.5339">
        <ele>2212.61</ele>
        <time>2019-03-20T11:58:17Z</time>
      </trkpt>
      <trkpt lat="45.93781" lon="6.53394">
        <ele>2212.61</ele>
        <time>2019-03-20T11:58:21Z</time>
      </trkpt>
      <trkpt lat="45.9378" lon="6.53409">
        <ele>2215.98</ele>
        <time>2019-03-20T11:58:40Z</time>
      </trkpt>
      <trkpt lat="45.93779" lon="6.53412">
        <ele>2216.46</ele>
        <time>2019-03-20T11:58:43Z</time>
      </trkpt>
      <trkpt lat="45.93777" lon="6.53429">
        <ele>2219.82</ele>
        <time>2019-03-20T11:59:00Z</time>
      </trkpt>
      <trkpt lat="45.93777" lon="6.53445">
        <ele>2222.71</ele>
        <time>2019-03-20T11:59:17Z</time>
      </trkpt>
      <trkpt lat="45.93777" lon="6.53461">
        <ele>2225.59</ele>
        <time>2019-03-20T11:59:36Z</time>
      </trkpt>
      <trkpt lat="45.9378" lon="6.53475">
        <ele>2228.95</ele>
        <time>2019-03-20T11:59:52Z</time>
      </trkpt>
      <trkpt lat="45.93783" lon="6.53491">
        <ele>2231.36</ele>
        <time>2019-03-20T12:00:12Z</time>
      </trkpt>
      <trkpt lat="45.93785" lon="6.53502">
        <ele>2234.72</ele>
        <time>2019-03-20T12:00:27Z</time>
      </trkpt>
      <trkpt lat="45.93783" lon="6.53516">
        <ele>2237.61</ele>
        <time>2019-03-20T12:00:44Z</time>
      </trkpt>
      <trkpt lat="45.93781" lon="6.5353">
        <ele>2240.97</ele>
        <time>2019-03-20T12:00:58Z</time>
      </trkpt>
      <trkpt lat="45.93781" lon="6.53543">
        <ele>2243.37</ele>
        <time>2019-03-20T12:01:12Z</time>
      </trkpt>
      <trkpt lat="45.93781" lon="6.53558">
        <ele>2246.74</ele>
        <time>2019-03-20T12:01:27Z</time>
      </trkpt>
      <trkpt lat="45.93779" lon="6.53571">
        <ele>2249.62</ele>
        <time>2019-03-20T12:01:42Z</time>
      </trkpt>
      <trkpt lat="45.93777" lon="6.53582">
        <ele>2252.51</ele>
        <time>2019-03-20T12:01:57Z</time>
      </trkpt>
      <trkpt lat="45.93775" lon="6.53595">
        <ele>2255.39</ele>
        <time>2019-03-20T12:02:12Z</time>
      </trkpt>
      <trkpt lat="45.93772" lon="6.53599">
        <ele>2256.83</ele>
        <time>2019-03-20T12:02:17Z</time>
      </trkpt>
      <trkpt lat="45.93766" lon="6.53609">
        <ele>2259.72</ele>
        <time>2019-03-20T12:02:32Z</time>
      </trkpt>
      <trkpt lat="45.93768" lon="6.53611">
        <ele>2263.08</ele>
        <time>2019-03-20T12:02:58Z</time>
      </trkpt>
      <trkpt lat="45.93775" lon="6.53613">
        <ele>2265.96</ele>
        <time>2019-03-20T12:03:14Z</time>
      </trkpt>
      <trkpt lat="45.93782" lon="6.53616">
        <ele>2269.33</ele>
        <time>2019-03-20T12:03:30Z</time>
      </trkpt>
      <trkpt lat="45.93791" lon="6.53613">
        <ele>2272.21</ele>
        <time>2019-03-20T12:03:45Z</time>
      </trkpt>
      <trkpt lat="45.938" lon="6.5361">
        <ele>2275.1</ele>
        <time>2019-03-20T12:04:01Z</time>
      </trkpt>
      <trkpt lat="45.93809" lon="6.53607">
        <ele>2278.46</ele>
        <time>2019-03-20T12:04:17Z</time>
      </trkpt>
      <trkpt lat="45.93806" lon="6.53623">
        <ele>2281.35</ele>
        <time>2019-03-20T12:04:48Z</time>
      </trkpt>
      <trkpt lat="45.93801" lon="6.53634">
        <ele>2284.23</ele>
        <time>2019-03-20T12:05:06Z</time>
      </trkpt>
      <trkpt lat="45.93796" lon="6.53646">
        <ele>2287.59</ele>
        <time>2019-03-20T12:05:22Z</time>
      </trkpt>
      <trkpt lat="45.9379" lon="6.53658">
        <ele>2290.48</ele>
        <time>2019-03-20T12:05:38Z</time>
      </trkpt>
      <trkpt lat="45.93785" lon="6.53665">
        <ele>2293.36</ele>
        <time>2019-03-20T12:05:51Z</time>
      </trkpt>
      <trkpt lat="45.93794" lon="6.53665">
        <ele>2296.73</ele>
        <time>2019-03-20T12:06:09Z</time>
      </trkpt>
      <trkpt lat="45.93803" lon="6.53667">
        <ele>2299.61</ele>
        <time>2019-03-20T12:06:25Z</time>
      </trkpt>
      <trkpt lat="45.93812" lon="6.5367">
        <ele>2302.98</ele>
        <time>2019-03-20T12:06:39Z</time>
      </trkpt>
      <trkpt lat="45.93822" lon="6.53671">
        <ele>2305.86</ele>
        <time>2019-03-20T12:06:55Z</time>
      </trkpt>
      <trkpt lat="45.93831" lon="6.53675">
        <ele>2309.22</ele>
        <time>2019-03-20T12:07:11Z</time>
      </trkpt>
      <trkpt lat="45.93839" lon="6.53673">
        <ele>2312.11</ele>
        <time>2019-03-20T12:07:27Z</time>
      </trkpt>
      <trkpt lat="45.93838" lon="6.53689">
        <ele>2314.99</ele>
        <time>2019-03-20T12:07:57Z</time>
      </trkpt>
      <trkpt lat="45.93833" lon="6.537">
        <ele>2318.36</ele>
        <time>2019-03-20T12:08:14Z</time>
      </trkpt>
      <trkpt lat="45.93823" lon="6.53711">
        <ele>2321.24</ele>
        <time>2019-03-20T12:08:31Z</time>
      </trkpt>
      <trkpt lat="45.9383" lon="6.53713">
        <ele>2324.61</ele>
        <time>2019-03-20T12:08:49Z</time>
      </trkpt>
      <trkpt lat="45.93837" lon="6.53716">
        <ele>2326.05</ele>
        <time>2019-03-20T12:08:59Z</time>
      </trkpt>
      <trkpt lat="45.9383" lon="6.53726">
        <ele>2328.93</ele>
        <time>2019-03-20T12:09:18Z</time>
      </trkpt>
      <trkpt lat="45.93829" lon="6.53728">
        <ele>2329.41</ele>
        <time>2019-03-20T12:09:21Z</time>
      </trkpt>
      <trkpt lat="45.93819" lon="6.53733">
        <ele>2332.78</ele>
        <time>2019-03-20T12:09:39Z</time>
      </trkpt>
      <trkpt lat="45.93805" lon="6.53739">
        <ele>2335.66</ele>
        <time>2019-03-20T12:10:01Z</time>
      </trkpt>
      <trkpt lat="45.9379" lon="6.53742">
        <ele>2339.02</ele>
        <time>2019-03-20T12:10:23Z</time>
      </trkpt>
      <trkpt lat="45.93781" lon="6.53741">
        <ele>2341.91</ele>
        <time>2019-03-20T12:10:39Z</time>
      </trkpt>
      <trkpt lat="45.93772" lon="6.53746">
        <ele>2344.79</ele>
        <time>2019-03-20T12:10:55Z</time>
      </trkpt>
      <trkpt lat="45.93769" lon="6.53754">
        <ele>2348.16</ele>
        <time>2019-03-20T12:11:10Z</time>
      </trkpt>
      <trkpt lat="45.93756" lon="6.53764">
        <ele>2349.12</ele>
        <time>2019-03-20T12:11:32Z</time>
      </trkpt>
      <trkpt lat="45.93755" lon="6.53764">
        <ele>2349.6</ele>
        <time>2019-03-20T12:11:33Z</time>
      </trkpt>
      <trkpt lat="45.93754" lon="6.53764">
        <ele>2349.6</ele>
        <time>2019-03-20T12:11:34Z</time>
      </trkpt>
      <trkpt lat="45.93753" lon="6.53763">
        <ele>2349.6</ele>
        <time>2019-03-20T12:11:35Z</time>
      </trkpt>
      <trkpt lat="45.93708" lon="6.53748">
        <ele>2349.12</ele>
        <time>2019-03-20T12:12:18Z</time>
      </trkpt>
      <trkpt lat="45.937" lon="6.53748">
        <ele>2349.6</ele>
        <time>2019-03-20T12:17:38Z</time>
      </trkpt>
      <trkpt lat="45.93714" lon="6.53751">
        <ele>2349.6</ele>
        <time>2019-03-20T12:18:34Z</time>
      </trkpt>
      <trkpt lat="45.93758" lon="6.53762">
        <ele>2349.6</ele>
        <time>2019-03-20T12:20:23Z</time>
      </trkpt>
      <trkpt lat="45.9376" lon="6.53761">
        <ele>2349.6</ele>
        <time>2019-03-20T12:20:28Z</time>
      </trkpt>
      <trkpt lat="45.9376" lon="6.5376">
        <ele>2349.6</ele>
        <time>2019-03-20T12:20:29Z</time>
      </trkpt>
      <trkpt lat="45.93772" lon="6.53751">
        <ele>2348.64</ele>
        <time>2019-03-20T12:20:45Z</time>
      </trkpt>
      <trkpt lat="45.93775" lon="6.5375">
        <ele>2349.12</ele>
        <time>2019-03-20T12:20:49Z</time>
      </trkpt>
      <trkpt lat="45.93777" lon="6.53749">
        <ele>2349.12</ele>
        <time>2019-03-20T12:20:51Z</time>
      </trkpt>
      <trkpt lat="45.93778" lon="6.53749">
        <ele>2349.12</ele>
        <time>2019-03-20T12:20:52Z</time>
      </trkpt>
      <trkpt lat="45.93779" lon="6.5375">
        <ele>2349.12</ele>
        <time>2019-03-20T12:20:53Z</time>
      </trkpt>
      <trkpt lat="45.9378" lon="6.5375">
        <ele>2349.12</ele>
        <time>2019-03-20T12:20:54Z</time>
      </trkpt>
      <trkpt lat="45.93782" lon="6.5375">
        <ele>2348.64</ele>
        <time>2019-03-20T12:20:55Z</time>
      </trkpt>
      <trkpt lat="45.93784" lon="6.5375">
        <ele>2348.64</ele>
        <time>2019-03-20T12:20:56Z</time>
      </trkpt>
      <trkpt lat="45.93785" lon="6.53751">
        <ele>2348.64</ele>
        <time>2019-03-20T12:20:57Z</time>
      </trkpt>
      <trkpt lat="45.93802" lon="6.5375">
        <ele>2345.75</ele>
        <time>2019-03-20T12:21:06Z</time>
      </trkpt>
      <trkpt lat="45.93805" lon="6.53748">
        <ele>2345.27</ele>
        <time>2019-03-20T12:21:10Z</time>
      </trkpt>
      <trkpt lat="45.93806" lon="6.53748">
        <ele>2345.27</ele>
        <time>2019-03-20T12:21:11Z</time>
      </trkpt>
      <trkpt lat="45.93814" lon="6.53745">
        <ele>2344.79</ele>
        <time>2019-03-20T12:21:21Z</time>
      </trkpt>
      <trkpt lat="45.93816" lon="6.53744">
        <ele>2344.79</ele>
        <time>2019-03-20T12:21:23Z</time>
      </trkpt>
      <trkpt lat="45.93817" lon="6.53744">
        <ele>2344.79</ele>
        <time>2019-03-20T12:21:25Z</time>
      </trkpt>
      <trkpt lat="45.93839" lon="6.53732">
        <ele>2341.43</ele>
        <time>2019-03-20T12:21:38Z</time>
      </trkpt>
      <trkpt lat="45.9386" lon="6.53711">
        <ele>2338.06</ele>
        <time>2019-03-20T12:21:55Z</time>
      </trkpt>
      <trkpt lat="45.93869" lon="6.53696">
        <ele>2336.14</ele>
        <time>2019-03-20T12:22:03Z</time>
      </trkpt>
      <trkpt lat="45.9387" lon="6.53694">
        <ele>2336.14</ele>
        <time>2019-03-20T12:22:04Z</time>
      </trkpt>
      <trkpt lat="45.93871" lon="6.53692">
        <ele>2335.66</ele>
        <time>2019-03-20T12:22:05Z</time>
      </trkpt>
      <trkpt lat="45.93872" lon="6.53689">
        <ele>2335.18</ele>
        <time>2019-03-20T12:22:06Z</time>
      </trkpt>
      <trkpt lat="45.93873" lon="6.53686">
        <ele>2335.18</ele>
        <time>2019-03-20T12:22:07Z</time>
      </trkpt>
      <trkpt lat="45.93882" lon="6.53658">
        <ele>2331.81</ele>
        <time>2019-03-20T12:22:19Z</time>
      </trkpt>
      <trkpt lat="45.93895" lon="6.53657">
        <ele>2332.78</ele>
        <time>2019-03-20T12:22:36Z</time>
      </trkpt>
      <trkpt lat="45.93898" lon="6.53657">
        <ele>2333.26</ele>
        <time>2019-03-20T12:22:40Z</time>
      </trkpt>
      <trkpt lat="45.93899" lon="6.53657">
        <ele>2333.26</ele>
        <time>2019-03-20T12:22:41Z</time>
      </trkpt>
      <trkpt lat="45.93926" lon="6.53658">
        <ele>2336.14</ele>
        <time>2019-03-20T12:23:14Z</time>
      </trkpt>
      <trkpt lat="45.93927" lon="6.53658">
        <ele>2336.14</ele>
        <time>2019-03-20T12:23:15Z</time>
      </trkpt>
      <trkpt lat="45.93928" lon="6.53658">
        <ele>2336.14</ele>
        <time>2019-03-20T12:23:16Z</time>
      </trkpt>
      <trkpt lat="45.93929" lon="6.53658">
        <ele>2336.62</ele>
        <time>2019-03-20T12:23:17Z</time>
      </trkpt>
      <trkpt lat="45.9393" lon="6.53658">
        <ele>2336.62</ele>
        <time>2019-03-20T12:23:18Z</time>
      </trkpt>
      <trkpt lat="45.93931" lon="6.53658">
        <ele>2336.62</ele>
        <time>2019-03-20T12:23:19Z</time>
      </trkpt>
      <trkpt lat="45.93966" lon="6.53662">
        <ele>2339.51</ele>
        <time>2019-03-20T12:24:03Z</time>
      </trkpt>
      <trkpt lat="45.93974" lon="6.53662">
        <ele>2340.95</ele>
        <time>2019-03-20T12:24:15Z</time>
      </trkpt>
      <trkpt lat="45.93987" lon="6.53662">
        <ele>2344.31</ele>
        <time>2019-03-20T12:24:48Z</time>
      </trkpt>
      <trkpt lat="45.93989" lon="6.53662">
        <ele>2344.31</ele>
        <time>2019-03-20T12:24:50Z</time>
      </trkpt>
      <trkpt lat="45.93989" lon="6.53663">
        <ele>2344.79</ele>
        <time>2019-03-20T12:24:51Z</time>
      </trkpt>
      <trkpt lat="45.93997" lon="6.53668">
        <ele>2347.2</ele>
        <time>2019-03-20T12:25:01Z</time>
      </trkpt>
      <trkpt lat="45.93997" lon="6.53669">
        <ele>2347.2</ele>
        <time>2019-03-20T12:25:02Z</time>
      </trkpt>
      <trkpt lat="45.93998" lon="6.5367">
        <ele>2347.2</ele>
        <time>2019-03-20T12:25:03Z</time>
      </trkpt>
      <trkpt lat="45.94006" lon="6.53686">
        <ele>2350.56</ele>
        <time>2019-03-20T12:25:23Z</time>
      </trkpt>
      <trkpt lat="45.94009" lon="6.53691">
        <ele>2351.52</ele>
        <time>2019-03-20T12:25:30Z</time>
      </trkpt>
      <trkpt lat="45.94031" lon="6.53722">
        <ele>2354.41</ele>
        <time>2019-03-20T12:26:03Z</time>
      </trkpt>
      <trkpt lat="45.94032" lon="6.53724">
        <ele>2354.89</ele>
        <time>2019-03-20T12:26:05Z</time>
      </trkpt>
      <trkpt lat="45.94033" lon="6.53725">
        <ele>2355.37</ele>
        <time>2019-03-20T12:26:06Z</time>
      </trkpt>
      <trkpt lat="45.94041" lon="6.53749">
        <ele>2358.25</ele>
        <time>2019-03-20T12:26:30Z</time>
      </trkpt>
      <trkpt lat="45.94046" lon="6.53766">
        <ele>2361.14</ele>
        <time>2019-03-20T12:26:47Z</time>
      </trkpt>
      <trkpt lat="45.94045" lon="6.5377">
        <ele>2362.1</ele>
        <time>2019-03-20T12:26:51Z</time>
      </trkpt>
      <trkpt lat="45.94044" lon="6.53788">
        <ele>2364.98</ele>
        <time>2019-03-20T12:27:06Z</time>
      </trkpt>
      <trkpt lat="45.94044" lon="6.53789">
        <ele>2364.98</ele>
        <time>2019-03-20T12:27:07Z</time>
      </trkpt>
      <trkpt lat="45.94043" lon="6.53804">
        <ele>2368.35</ele>
        <time>2019-03-20T12:27:25Z</time>
      </trkpt>
      <trkpt lat="45.94039" lon="6.53819">
        <ele>2371.23</ele>
        <time>2019-03-20T12:27:42Z</time>
      </trkpt>
      <trkpt lat="45.94039" lon="6.53833">
        <ele>2374.59</ele>
        <time>2019-03-20T12:27:57Z</time>
      </trkpt>
      <trkpt lat="45.94047" lon="6.53849">
        <ele>2377.48</ele>
        <time>2019-03-20T12:28:18Z</time>
      </trkpt>
      <trkpt lat="45.94049" lon="6.5385">
        <ele>2377.96</ele>
        <time>2019-03-20T12:28:20Z</time>
      </trkpt>
      <trkpt lat="45.94055" lon="6.5386">
        <ele>2380.36</ele>
        <time>2019-03-20T12:28:34Z</time>
      </trkpt>
      <trkpt lat="45.94057" lon="6.53862">
        <ele>2380.84</ele>
        <time>2019-03-20T12:28:36Z</time>
      </trkpt>
      <trkpt lat="45.94064" lon="6.53885">
        <ele>2384.21</ele>
        <time>2019-03-20T12:28:59Z</time>
      </trkpt>
      <trkpt lat="45.9407" lon="6.53903">
        <ele>2387.09</ele>
        <time>2019-03-20T12:29:20Z</time>
      </trkpt>
      <trkpt lat="45.9407" lon="6.5391">
        <ele>2388.53</ele>
        <time>2019-03-20T12:29:27Z</time>
      </trkpt>
      <trkpt lat="45.94066" lon="6.53928">
        <ele>2391.9</ele>
        <time>2019-03-20T12:29:46Z</time>
      </trkpt>
      <trkpt lat="45.94061" lon="6.53942">
        <ele>2394.78</ele>
        <time>2019-03-20T12:30:02Z</time>
      </trkpt>
      <trkpt lat="45.94054" lon="6.53954">
        <ele>2397.67</ele>
        <time>2019-03-20T12:30:18Z</time>
      </trkpt>
      <trkpt lat="45.94046" lon="6.53961">
        <ele>2401.03</ele>
        <time>2019-03-20T12:30:36Z</time>
      </trkpt>
      <trkpt lat="45.94038" lon="6.53965">
        <ele>2403.91</ele>
        <time>2019-03-20T12:31:44Z</time>
      </trkpt>
      <trkpt lat="45.94042" lon="6.53961">
        <ele>2403.43</ele>
        <time>2019-03-20T12:32:21Z</time>
      </trkpt>
      <trkpt lat="45.94044" lon="6.53965">
        <ele>2404.39</ele>
        <time>2019-03-20T12:32:37Z</time>
      </trkpt>
      <trkpt lat="45.94052" lon="6.53971">
        <ele>2406.32</ele>
        <time>2019-03-20T12:33:00Z</time>
      </trkpt>
      <trkpt lat="45.94061" lon="6.53977">
        <ele>2408.72</ele>
        <time>2019-03-20T12:33:18Z</time>
      </trkpt>
      <trkpt lat="45.94062" lon="6.53976">
        <ele>2409.2</ele>
        <time>2019-03-20T12:33:20Z</time>
      </trkpt>
      <trkpt lat="45.94074" lon="6.5397">
        <ele>2412.09</ele>
        <time>2019-03-20T12:34:05Z</time>
      </trkpt>
      <trkpt lat="45.94076" lon="6.5397">
        <ele>2412.09</ele>
        <time>2019-03-20T12:34:16Z</time>
      </trkpt>
      <trkpt lat="45.94077" lon="6.53969">
        <ele>2412.09</ele>
        <time>2019-03-20T12:34:17Z</time>
      </trkpt>
      <trkpt lat="45.9409" lon="6.53953">
        <ele>2414.97</ele>
        <time>2019-03-20T12:34:41Z</time>
      </trkpt>
      <trkpt lat="45.94091" lon="6.53952">
        <ele>2414.97</ele>
        <time>2019-03-20T12:34:42Z</time>
      </trkpt>
      <trkpt lat="45.94091" lon="6.5395">
        <ele>2416.41</ele>
        <time>2019-03-20T12:35:06Z</time>
      </trkpt>
      <trkpt lat="45.94091" lon="6.53953">
        <ele>2416.41</ele>
        <time>2019-03-20T12:35:37Z</time>
      </trkpt>
      <trkpt lat="45.94095" lon="6.53944">
        <ele>2416.41</ele>
        <time>2019-03-20T12:36:04Z</time>
      </trkpt>
      <trkpt lat="45.94102" lon="6.53931">
        <ele>2416.41</ele>
        <time>2019-03-20T12:36:35Z</time>
      </trkpt>
      <trkpt lat="45.94102" lon="6.5393">
        <ele>2416.41</ele>
        <time>2019-03-20T12:36:36Z</time>
      </trkpt>
      <trkpt lat="45.94103" lon="6.53929">
        <ele>2415.93</ele>
        <time>2019-03-20T12:36:37Z</time>
      </trkpt>
      <trkpt lat="45.94103" lon="6.53928">
        <ele>2415.93</ele>
        <time>2019-03-20T12:36:38Z</time>
      </trkpt>
      <trkpt lat="45.94112" lon="6.53934">
        <ele>2414.97</ele>
        <time>2019-03-20T12:38:20Z</time>
      </trkpt>
      <trkpt lat="45.94108" lon="6.53933">
        <ele>2414.49</ele>
        <time>2019-03-20T12:38:43Z</time>
      </trkpt>
      <trkpt lat="45.94101" lon="6.53918">
        <ele>2414.97</ele>
        <time>2019-03-20T12:44:31Z</time>
      </trkpt>
      <trkpt lat="45.94099" lon="6.53918">
        <ele>2414.97</ele>
        <time>2019-03-20T12:44:56Z</time>
      </trkpt>
      <trkpt lat="45.94098" lon="6.53919">
        <ele>2414.49</ele>
        <time>2019-03-20T12:45:21Z</time>
      </trkpt>
      <trkpt lat="45.94098" lon="6.53918">
        <ele>2414.01</ele>
        <time>2019-03-20T12:46:08Z</time>
      </trkpt>
      <trkpt lat="45.94098" lon="6.53919">
        <ele>2414.01</ele>
        <time>2019-03-20T12:46:27Z</time>
      </trkpt>
      <trkpt lat="45.94098" lon="6.53917">
        <ele>2414.01</ele>
        <time>2019-03-20T12:46:45Z</time>
      </trkpt>
      <trkpt lat="45.94098" lon="6.53918">
        <ele>2414.01</ele>
        <time>2019-03-20T12:47:06Z</time>
      </trkpt>
      <trkpt lat="45.94098" lon="6.53919">
        <ele>2414.01</ele>
        <time>2019-03-20T12:47:44Z</time>
      </trkpt>
      <trkpt lat="45.94097" lon="6.53918">
        <ele>2413.05</ele>
        <time>2019-03-20T12:49:49Z</time>
      </trkpt>
      <trkpt lat="45.94099" lon="6.53917">
        <ele>2412.57</ele>
        <time>2019-03-20T12:50:13Z</time>
      </trkpt>
      <trkpt lat="45.94098" lon="6.53916">
        <ele>2412.57</ele>
        <time>2019-03-20T12:50:34Z</time>
      </trkpt>
      <trkpt lat="45.94097" lon="6.53917">
        <ele>2412.57</ele>
        <time>2019-03-20T12:50:56Z</time>
      </trkpt>
      <trkpt lat="45.94098" lon="6.53918">
        <ele>2413.53</ele>
        <time>2019-03-20T12:51:24Z</time>
      </trkpt>
      <trkpt lat="45.94099" lon="6.5392">
        <ele>2412.09</ele>
        <time>2019-03-20T12:52:19Z</time>
      </trkpt>
      <trkpt lat="45.94099" lon="6.5392">
        <ele>2412.09</ele>
        <time>2019-03-20T12:52:40Z</time>
      </trkpt>
      <trkpt lat="45.94097" lon="6.53918">
        <ele>2412.57</ele>
        <time>2019-03-20T12:52:57Z</time>
      </trkpt>
      <trkpt lat="45.94098" lon="6.53917">
        <ele>2412.57</ele>
        <time>2019-03-20T12:54:50Z</time>
      </trkpt>
      <trkpt lat="45.94099" lon="6.53914">
        <ele>2413.05</ele>
        <time>2019-03-20T12:55:34Z</time>
      </trkpt>
      <trkpt lat="45.94098" lon="6.53917">
        <ele>2412.57</ele>
        <time>2019-03-20T12:57:13Z</time>
      </trkpt>
      <trkpt lat="45.94098" lon="6.53918">
        <ele>2412.57</ele>
        <time>2019-03-20T12:57:31Z</time>
      </trkpt>
      <trkpt lat="45.94097" lon="6.53918">
        <ele>2412.57</ele>
        <time>2019-03-20T12:57:46Z</time>
      </trkpt>
      <trkpt lat="45.94098" lon="6.53917">
        <ele>2412.57</ele>
        <time>2019-03-20T12:58:01Z</time>
      </trkpt>
      <trkpt lat="45.94098" lon="6.53917">
        <ele>2412.57</ele>
        <time>2019-03-20T12:58:16Z</time>
      </trkpt>
      <trkpt lat="45.94099" lon="6.53917">
        <ele>2412.57</ele>
        <time>2019-03-20T12:58:26Z</time>
      </trkpt>
      <trkpt lat="45.94098" lon="6.53918">
        <ele>2412.57</ele>
        <time>2019-03-20T12:58:46Z</time>
      </trkpt>
      <trkpt lat="45.94097" lon="6.53916">
        <ele>2413.05</ele>
        <time>2019-03-20T12:59:06Z</time>
      </trkpt>
      <trkpt lat="45.94097" lon="6.53916">
        <ele>2412.09</ele>
        <time>2019-03-20T12:59:30Z</time>
      </trkpt>
      <trkpt lat="45.94097" lon="6.53919">
        <ele>2412.57</ele>
        <time>2019-03-20T12:59:57Z</time>
      </trkpt>
      <trkpt lat="45.94098" lon="6.53919">
        <ele>2412.57</ele>
        <time>2019-03-20T13:00:20Z</time>
      </trkpt>
      <trkpt lat="45.94099" lon="6.53919">
        <ele>2412.57</ele>
        <time>2019-03-20T13:00:41Z</time>
      </trkpt>
      <trkpt lat="45.94099" lon="6.53919">
        <ele>2412.57</ele>
        <time>2019-03-20T13:01:03Z</time>
      </trkpt>
      <trkpt lat="45.94097" lon="6.53918">
        <ele>2412.57</ele>
        <time>2019-03-20T13:02:20Z</time>
      </trkpt>
      <trkpt lat="45.94097" lon="6.53918">
        <ele>2412.57</ele>
        <time>2019-03-20T13:02:37Z</time>
      </trkpt>
      <trkpt lat="45.94098" lon="6.53919">
        <ele>2412.09</ele>
        <time>2019-03-20T13:05:37Z</time>
      </trkpt>
      <trkpt lat="45.941" lon="6.53922">
        <ele>2412.57</ele>
        <time>2019-03-20T13:08:09Z</time>
      </trkpt>
      <trkpt lat="45.94099" lon="6.53919">
        <ele>2412.57</ele>
        <time>2019-03-20T13:09:02Z</time>
      </trkpt>
      <trkpt lat="45.94097" lon="6.53917">
        <ele>2412.09</ele>
        <time>2019-03-20T13:11:57Z</time>
      </trkpt>
      <trkpt lat="45.94096" lon="6.53918">
        <ele>2412.09</ele>
        <time>2019-03-20T13:12:09Z</time>
      </trkpt>
      <trkpt lat="45.94096" lon="6.53918">
        <ele>2412.09</ele>
        <time>2019-03-20T13:12:19Z</time>
      </trkpt>
      <trkpt lat="45.94096" lon="6.53918">
        <ele>2411.6</ele>
        <time>2019-03-20T13:12:29Z</time>
      </trkpt>
      <trkpt lat="45.94096" lon="6.53918">
        <ele>2411.6</ele>
        <time>2019-03-20T13:12:40Z</time>
      </trkpt>
      <trkpt lat="45.94096" lon="6.53918">
        <ele>2411.6</ele>
        <time>2019-03-20T13:12:51Z</time>
      </trkpt>
      <trkpt lat="45.94096" lon="6.53918">
        <ele>2411.6</ele>
        <time>2019-03-20T13:12:57Z</time>
      </trkpt>
      <trkpt lat="45.94096" lon="6.53918">
        <ele>2411.6</ele>
        <time>2019-03-20T13:13:04Z</time>
      </trkpt>
      <trkpt lat="45.94096" lon="6.53918">
        <ele>2411.6</ele>
        <time>2019-03-20T13:13:10Z</time>
      </trkpt>
      <trkpt lat="45.94096" lon="6.53918">
        <ele>2411.6</ele>
        <time>2019-03-20T13:13:17Z</time>
      </trkpt>
      <trkpt lat="45.94095" lon="6.53918">
        <ele>2411.6</ele>
        <time>2019-03-20T13:13:24Z</time>
      </trkpt>
      <trkpt lat="45.94095" lon="6.53918">
        <ele>2411.6</ele>
        <time>2019-03-20T13:13:31Z</time>
      </trkpt>
      <trkpt lat="45.94095" lon="6.53918">
        <ele>2411.12</ele>
        <time>2019-03-20T13:13:38Z</time>
      </trkpt>
      <trkpt lat="45.94095" lon="6.53918">
        <ele>2411.12</ele>
        <time>2019-03-20T13:13:45Z</time>
      </trkpt>
      <trkpt lat="45.94095" lon="6.53918">
        <ele>2411.12</ele>
        <time>2019-03-20T13:13:53Z</time>
      </trkpt>
      <trkpt lat="45.94095" lon="6.53918">
        <ele>2411.12</ele>
        <time>2019-03-20T13:14:04Z</time>
      </trkpt>
      <trkpt lat="45.94094" lon="6.53919">
        <ele>2411.12</ele>
        <time>2019-03-20T13:15:03Z</time>
      </trkpt>
      <trkpt lat="45.94093" lon="6.53919">
        <ele>2411.12</ele>
        <time>2019-03-20T13:16:30Z</time>
      </trkpt>
      <trkpt lat="45.94093" lon="6.53919">
        <ele>2411.12</ele>
        <time>2019-03-20T13:17:30Z</time>
      </trkpt>
      <trkpt lat="45.94093" lon="6.53919">
        <ele>2411.12</ele>
        <time>2019-03-20T13:18:08Z</time>
      </trkpt>
      <trkpt lat="45.94093" lon="6.53919">
        <ele>2411.12</ele>
        <time>2019-03-20T13:18:26Z</time>
      </trkpt>
      <trkpt lat="45.94093" lon="6.53919">
        <ele>2411.12</ele>
        <time>2019-03-20T13:18:59Z</time>
      </trkpt>
      <trkpt lat="45.94093" lon="6.53919">
        <ele>2410.64</ele>
        <time>2019-03-20T13:19:21Z</time>
      </trkpt>
      <trkpt lat="45.94093" lon="6.53919">
        <ele>2410.64</ele>
        <time>2019-03-20T13:19:38Z</time>
      </trkpt>
      <trkpt lat="45.94093" lon="6.53919">
        <ele>2411.12</ele>
        <time>2019-03-20T13:19:52Z</time>
      </trkpt>
      <trkpt lat="45.94095" lon="6.53919">
        <ele>2410.64</ele>
        <time>2019-03-20T13:20:41Z</time>
      </trkpt>
      <trkpt lat="45.94095" lon="6.53918">
        <ele>2411.12</ele>
        <time>2019-03-20T13:20:51Z</time>
      </trkpt>
      <trkpt lat="45.94095" lon="6.53918">
        <ele>2411.12</ele>
        <time>2019-03-20T13:20:59Z</time>
      </trkpt>
      <trkpt lat="45.94095" lon="6.53918">
        <ele>2411.12</ele>
        <time>2019-03-20T13:21:07Z</time>
      </trkpt>
      <trkpt lat="45.94095" lon="6.53918">
        <ele>2411.12</ele>
        <time>2019-03-20T13:21:16Z</time>
      </trkpt>
      <trkpt lat="45.94095" lon="6.53918">
        <ele>2411.6</ele>
        <time>2019-03-20T13:21:28Z</time>
      </trkpt>
      <trkpt lat="45.94095" lon="6.53918">
        <ele>2411.6</ele>
        <time>2019-03-20T13:21:40Z</time>
      </trkpt>
      <trkpt lat="45.94095" lon="6.53917">
        <ele>2411.6</ele>
        <time>2019-03-20T13:21:51Z</time>
      </trkpt>
      <trkpt lat="45.94095" lon="6.53917">
        <ele>2411.12</ele>
        <time>2019-03-20T13:22:04Z</time>
      </trkpt>
      <trkpt lat="45.94095" lon="6.53917">
        <ele>2411.6</ele>
        <time>2019-03-20T13:22:17Z</time>
      </trkpt>
      <trkpt lat="45.94095" lon="6.53916">
        <ele>2410.64</ele>
        <time>2019-03-20T13:22:32Z</time>
      </trkpt>
      <trkpt lat="45.94096" lon="6.53917">
        <ele>2410.16</ele>
        <time>2019-03-20T13:23:05Z</time>
      </trkpt>
      <trkpt lat="45.94097" lon="6.53917">
        <ele>2411.6</ele>
        <time>2019-03-20T13:23:43Z</time>
      </trkpt>
      <trkpt lat="45.94097" lon="6.53918">
        <ele>2411.12</ele>
        <time>2019-03-20T13:24:13Z</time>
      </trkpt>
      <trkpt lat="45.94098" lon="6.53917">
        <ele>2411.12</ele>
        <time>2019-03-20T13:24:36Z</time>
      </trkpt>
      <trkpt lat="45.94097" lon="6.53917">
        <ele>2410.64</ele>
        <time>2019-03-20T13:25:29Z</time>
      </trkpt>
      <trkpt lat="45.94097" lon="6.53917">
        <ele>2410.64</ele>
        <time>2019-03-20T13:26:25Z</time>
      </trkpt>
      <trkpt lat="45.94098" lon="6.53918">
        <ele>2411.12</ele>
        <time>2019-03-20T13:29:56Z</time>
      </trkpt>
      <trkpt lat="45.94098" lon="6.53918">
        <ele>2411.12</ele>
        <time>2019-03-20T13:30:14Z</time>
      </trkpt>
      <trkpt lat="45.94098" lon="6.53918">
        <ele>2411.12</ele>
        <time>2019-03-20T13:30:32Z</time>
      </trkpt>
      <trkpt lat="45.94098" lon="6.53918">
        <ele>2411.12</ele>
        <time>2019-03-20T13:31:01Z</time>
      </trkpt>
      <trkpt lat="45.94097" lon="6.53918">
        <ele>2411.12</ele>
        <time>2019-03-20T13:32:04Z</time>
      </trkpt>
      <trkpt lat="45.94097" lon="6.53918">
        <ele>2411.12</ele>
        <time>2019-03-20T13:32:37Z</time>
      </trkpt>
      <trkpt lat="45.94097" lon="6.53918">
        <ele>2411.6</ele>
        <time>2019-03-20T13:34:38Z</time>
      </trkpt>
      <trkpt lat="45.94097" lon="6.53918">
        <ele>2411.12</ele>
        <time>2019-03-20T13:35:20Z</time>
      </trkpt>
      <trkpt lat="45.94097" lon="6.53917">
        <ele>2411.12</ele>
        <time>2019-03-20T13:35:41Z</time>
      </trkpt>
      <trkpt lat="45.94097" lon="6.53918">
        <ele>2411.12</ele>
        <time>2019-03-20T13:36:15Z</time>
      </trkpt>
      <trkpt lat="45.94098" lon="6.53919">
        <ele>2411.6</ele>
        <time>2019-03-20T13:39:47Z</time>
      </trkpt>
      <trkpt lat="45.94099" lon="6.53919">
        <ele>2411.12</ele>
        <time>2019-03-20T13:40:08Z</time>
      </trkpt>
      <trkpt lat="45.94099" lon="6.53918">
        <ele>2411.6</ele>
        <time>2019-03-20T13:40:21Z</time>
      </trkpt>
      <trkpt lat="45.941" lon="6.53918">
        <ele>2411.6</ele>
        <time>2019-03-20T13:41:16Z</time>
      </trkpt>
      <trkpt lat="45.94101" lon="6.53918">
        <ele>2411.6</ele>
        <time>2019-03-20T13:41:50Z</time>
      </trkpt>
      <trkpt lat="45.941" lon="6.53919">
        <ele>2411.12</ele>
        <time>2019-03-20T13:44:15Z</time>
      </trkpt>
      <trkpt lat="45.94099" lon="6.53918">
        <ele>2411.12</ele>
        <time>2019-03-20T13:45:36Z</time>
      </trkpt>
      <trkpt lat="45.941" lon="6.53918">
        <ele>2411.6</ele>
        <time>2019-03-20T13:47:34Z</time>
      </trkpt>
      <trkpt lat="45.941" lon="6.53919">
        <ele>2410.64</ele>
        <time>2019-03-20T13:50:20Z</time>
      </trkpt>
      <trkpt lat="45.94099" lon="6.53919">
        <ele>2411.12</ele>
        <time>2019-03-20T13:51:56Z</time>
      </trkpt>
      <trkpt lat="45.94099" lon="6.53919">
        <ele>2410.64</ele>
        <time>2019-03-20T13:54:01Z</time>
      </trkpt>
      <trkpt lat="45.941" lon="6.53921">
        <ele>2411.12</ele>
        <time>2019-03-20T13:59:05Z</time>
      </trkpt>
      <trkpt lat="45.94097" lon="6.53918">
        <ele>2412.09</ele>
        <time>2019-03-20T13:59:38Z</time>
      </trkpt>
      <trkpt lat="45.94097" lon="6.53918">
        <ele>2412.09</ele>
        <time>2019-03-20T13:59:46Z</time>
      </trkpt>
      <trkpt lat="45.94097" lon="6.53917">
        <ele>2411.6</ele>
        <time>2019-03-20T13:59:56Z</time>
      </trkpt>
      <trkpt lat="45.94098" lon="6.53917">
        <ele>2412.09</ele>
        <time>2019-03-20T14:00:06Z</time>
      </trkpt>
      <trkpt lat="45.94098" lon="6.53918">
        <ele>2411.6</ele>
        <time>2019-03-20T14:00:20Z</time>
      </trkpt>
      <trkpt lat="45.94097" lon="6.53917">
        <ele>2411.6</ele>
        <time>2019-03-20T14:00:33Z</time>
      </trkpt>
      <trkpt lat="45.94098" lon="6.53918">
        <ele>2411.6</ele>
        <time>2019-03-20T14:01:18Z</time>
      </trkpt>
      <trkpt lat="45.94099" lon="6.53918">
        <ele>2411.6</ele>
        <time>2019-03-20T14:01:40Z</time>
      </trkpt>
      <trkpt lat="45.941" lon="6.53919">
        <ele>2411.6</ele>
        <time>2019-03-20T14:04:45Z</time>
      </trkpt>
      <trkpt lat="45.94098" lon="6.53917">
        <ele>2411.6</ele>
        <time>2019-03-20T14:05:06Z</time>
      </trkpt>
      <trkpt lat="45.94101" lon="6.53917">
        <ele>2411.6</ele>
        <time>2019-03-20T14:05:36Z</time>
      </trkpt>
      <trkpt lat="45.94101" lon="6.53917">
        <ele>2412.09</ele>
        <time>2019-03-20T14:07:00Z</time>
      </trkpt>
      <trkpt lat="45.94099" lon="6.53915">
        <ele>2412.09</ele>
        <time>2019-03-20T14:08:04Z</time>
      </trkpt>
      <trkpt lat="45.94106" lon="6.53919">
        <ele>2414.01</ele>
        <time>2019-03-20T14:10:18Z</time>
      </trkpt>
      <trkpt lat="45.94102" lon="6.53912">
        <ele>2414.01</ele>
        <time>2019-03-20T14:11:01Z</time>
      </trkpt>
      <trkpt lat="45.94102" lon="6.5391">
        <ele>2414.01</ele>
        <time>2019-03-20T14:11:02Z</time>
      </trkpt>
      <trkpt lat="45.94102" lon="6.53907">
        <ele>2413.53</ele>
        <time>2019-03-20T14:11:03Z</time>
      </trkpt>
      <trkpt lat="45.94102" lon="6.53864">
        <ele>2410.64</ele>
        <time>2019-03-20T14:11:12Z</time>
      </trkpt>
      <trkpt lat="45.941" lon="6.53847">
        <ele>2409.2</ele>
        <time>2019-03-20T14:11:19Z</time>
      </trkpt>
      <trkpt lat="45.94099" lon="6.53844">
        <ele>2408.24</ele>
        <time>2019-03-20T14:11:20Z</time>
      </trkpt>
      <trkpt lat="45.94092" lon="6.5384">
        <ele>2407.28</ele>
        <time>2019-03-20T14:11:21Z</time>
      </trkpt>
      <trkpt lat="45.94087" lon="6.53834">
        <ele>2404.39</ele>
        <time>2019-03-20T14:11:22Z</time>
      </trkpt>
      <trkpt lat="45.94084" lon="6.53825">
        <ele>2401.03</ele>
        <time>2019-03-20T14:11:23Z</time>
      </trkpt>
      <trkpt lat="45.94079" lon="6.53817">
        <ele>2396.7</ele>
        <time>2019-03-20T14:11:24Z</time>
      </trkpt>
      <trkpt lat="45.94073" lon="6.53807">
        <ele>2392.86</ele>
        <time>2019-03-20T14:11:25Z</time>
      </trkpt>
      <trkpt lat="45.9407" lon="6.53793">
        <ele>2386.61</ele>
        <time>2019-03-20T14:11:26Z</time>
      </trkpt>
      <trkpt lat="45.9407" lon="6.53778">
        <ele>2381.32</ele>
        <time>2019-03-20T14:11:27Z</time>
      </trkpt>
      <trkpt lat="45.94068" lon="6.53765">
        <ele>2379.4</ele>
        <time>2019-03-20T14:11:28Z</time>
      </trkpt>
      <trkpt lat="45.94065" lon="6.53754">
        <ele>2377</ele>
        <time>2019-03-20T14:11:29Z</time>
      </trkpt>
      <trkpt lat="45.9406" lon="6.53742">
        <ele>2374.59</ele>
        <time>2019-03-20T14:11:30Z</time>
      </trkpt>
      <trkpt lat="45.94051" lon="6.53736">
        <ele>2370.27</ele>
        <time>2019-03-20T14:11:31Z</time>
      </trkpt>
      <trkpt lat="45.94044" lon="6.53726">
        <ele>2364.98</ele>
        <time>2019-03-20T14:11:32Z</time>
      </trkpt>
      <trkpt lat="45.94038" lon="6.53714">
        <ele>2360.17</ele>
        <time>2019-03-20T14:11:33Z</time>
      </trkpt>
      <trkpt lat="45.9403" lon="6.53708">
        <ele>2356.81</ele>
        <time>2019-03-20T14:11:34Z</time>
      </trkpt>
      <trkpt lat="45.94021" lon="6.53702">
        <ele>2353.44</ele>
        <time>2019-03-20T14:11:35Z</time>
      </trkpt>
      <trkpt lat="45.94012" lon="6.53698">
        <ele>2351.04</ele>
        <time>2019-03-20T14:11:36Z</time>
      </trkpt>
      <trkpt lat="45.94005" lon="6.53693">
        <ele>2350.56</ele>
        <time>2019-03-20T14:11:37Z</time>
      </trkpt>
      <trkpt lat="45.94002" lon="6.53686">
        <ele>2350.56</ele>
        <time>2019-03-20T14:11:38Z</time>
      </trkpt>
      <trkpt lat="45.93999" lon="6.5368">
        <ele>2350.08</ele>
        <time>2019-03-20T14:11:39Z</time>
      </trkpt>
      <trkpt lat="45.93995" lon="6.53678">
        <ele>2349.6</ele>
        <time>2019-03-20T14:11:40Z</time>
      </trkpt>
      <trkpt lat="45.9399" lon="6.53677">
        <ele>2348.64</ele>
        <time>2019-03-20T14:11:41Z</time>
      </trkpt>
      <trkpt lat="45.93985" lon="6.53679">
        <ele>2348.16</ele>
        <time>2019-03-20T14:11:42Z</time>
      </trkpt>
      <trkpt lat="45.93982" lon="6.5368">
        <ele>2347.68</ele>
        <time>2019-03-20T14:11:43Z</time>
      </trkpt>
      <trkpt lat="45.93979" lon="6.5368">
        <ele>2347.68</ele>
        <time>2019-03-20T14:11:44Z</time>
      </trkpt>
      <trkpt lat="45.93976" lon="6.53679">
        <ele>2347.2</ele>
        <time>2019-03-20T14:11:45Z</time>
      </trkpt>
      <trkpt lat="45.93973" lon="6.53675">
        <ele>2346.72</ele>
        <time>2019-03-20T14:11:46Z</time>
      </trkpt>
      <trkpt lat="45.93971" lon="6.53669">
        <ele>2345.27</ele>
        <time>2019-03-20T14:11:47Z</time>
      </trkpt>
      <trkpt lat="45.93966" lon="6.53666">
        <ele>2343.83</ele>
        <time>2019-03-20T14:11:48Z</time>
      </trkpt>
      <trkpt lat="45.93961" lon="6.53665">
        <ele>2342.87</ele>
        <time>2019-03-20T14:11:49Z</time>
      </trkpt>
      <trkpt lat="45.93957" lon="6.53665">
        <ele>2341.91</ele>
        <time>2019-03-20T14:11:50Z</time>
      </trkpt>
      <trkpt lat="45.93953" lon="6.53665">
        <ele>2341.43</ele>
        <time>2019-03-20T14:11:51Z</time>
      </trkpt>
      <trkpt lat="45.93949" lon="6.53663">
        <ele>2340.95</ele>
        <time>2019-03-20T14:11:52Z</time>
      </trkpt>
      <trkpt lat="45.93944" lon="6.5366">
        <ele>2339.99</ele>
        <time>2019-03-20T14:11:53Z</time>
      </trkpt>
      <trkpt lat="45.93939" lon="6.53657">
        <ele>2338.54</ele>
        <time>2019-03-20T14:11:54Z</time>
      </trkpt>
      <trkpt lat="45.93934" lon="6.53652">
        <ele>2335.18</ele>
        <time>2019-03-20T14:11:55Z</time>
      </trkpt>
      <trkpt lat="45.9393" lon="6.53644">
        <ele>2332.3</ele>
        <time>2019-03-20T14:11:56Z</time>
      </trkpt>
      <trkpt lat="45.93932" lon="6.53636">
        <ele>2329.41</ele>
        <time>2019-03-20T14:11:57Z</time>
      </trkpt>
      <trkpt lat="45.93932" lon="6.53626">
        <ele>2327.01</ele>
        <time>2019-03-20T14:11:58Z</time>
      </trkpt>
      <trkpt lat="45.93931" lon="6.53616">
        <ele>2323.64</ele>
        <time>2019-03-20T14:11:59Z</time>
      </trkpt>
      <trkpt lat="45.93931" lon="6.53606">
        <ele>2320.76</ele>
        <time>2019-03-20T14:12:00Z</time>
      </trkpt>
      <trkpt lat="45.93931" lon="6.53595">
        <ele>2317.88</ele>
        <time>2019-03-20T14:12:01Z</time>
      </trkpt>
      <trkpt lat="45.93933" lon="6.53574">
        <ele>2314.51</ele>
        <time>2019-03-20T14:12:03Z</time>
      </trkpt>
      <trkpt lat="45.93934" lon="6.53563">
        <ele>2313.07</ele>
        <time>2019-03-20T14:12:04Z</time>
      </trkpt>
      <trkpt lat="45.93937" lon="6.53554">
        <ele>2311.15</ele>
        <time>2019-03-20T14:12:05Z</time>
      </trkpt>
      <trkpt lat="45.9394" lon="6.53546">
        <ele>2309.7</ele>
        <time>2019-03-20T14:12:06Z</time>
      </trkpt>
      <trkpt lat="45.93944" lon="6.53539">
        <ele>2309.22</ele>
        <time>2019-03-20T14:12:07Z</time>
      </trkpt>
      <trkpt lat="45.93948" lon="6.53534">
        <ele>2308.74</ele>
        <time>2019-03-20T14:12:08Z</time>
      </trkpt>
      <trkpt lat="45.93951" lon="6.53529">
        <ele>2308.26</ele>
        <time>2019-03-20T14:12:09Z</time>
      </trkpt>
      <trkpt lat="45.93955" lon="6.53526">
        <ele>2308.26</ele>
        <time>2019-03-20T14:12:10Z</time>
      </trkpt>
      <trkpt lat="45.93958" lon="6.53524">
        <ele>2308.26</ele>
        <time>2019-03-20T14:12:11Z</time>
      </trkpt>
      <trkpt lat="45.93961" lon="6.53523">
        <ele>2308.26</ele>
        <time>2019-03-20T14:12:12Z</time>
      </trkpt>
      <trkpt lat="45.93963" lon="6.53523">
        <ele>2308.26</ele>
        <time>2019-03-20T14:12:13Z</time>
      </trkpt>
      <trkpt lat="45.93965" lon="6.53523">
        <ele>2308.26</ele>
        <time>2019-03-20T14:12:14Z</time>
      </trkpt>
      <trkpt lat="45.93968" lon="6.53524">
        <ele>2308.26</ele>
        <time>2019-03-20T14:12:15Z</time>
      </trkpt>
      <trkpt lat="45.9397" lon="6.53524">
        <ele>2307.78</ele>
        <time>2019-03-20T14:12:16Z</time>
      </trkpt>
      <trkpt lat="45.93972" lon="6.53524">
        <ele>2307.78</ele>
        <time>2019-03-20T14:12:17Z</time>
      </trkpt>
      <trkpt lat="45.93974" lon="6.53522">
        <ele>2307.3</ele>
        <time>2019-03-20T14:12:18Z</time>
      </trkpt>
      <trkpt lat="45.93975" lon="6.5352">
        <ele>2307.3</ele>
        <time>2019-03-20T14:12:19Z</time>
      </trkpt>
      <trkpt lat="45.93976" lon="6.53518">
        <ele>2307.3</ele>
        <time>2019-03-20T14:12:20Z</time>
      </trkpt>
      <trkpt lat="45.93979" lon="6.53517">
        <ele>2306.82</ele>
        <time>2019-03-20T14:12:21Z</time>
      </trkpt>
      <trkpt lat="45.93982" lon="6.53517">
        <ele>2305.86</ele>
        <time>2019-03-20T14:12:22Z</time>
      </trkpt>
      <trkpt lat="45.93985" lon="6.53516">
        <ele>2304.9</ele>
        <time>2019-03-20T14:12:23Z</time>
      </trkpt>
      <trkpt lat="45.93988" lon="6.53517">
        <ele>2302.98</ele>
        <time>2019-03-20T14:12:24Z</time>
      </trkpt>
      <trkpt lat="45.9399" lon="6.53522">
        <ele>2302.01</ele>
        <time>2019-03-20T14:12:25Z</time>
      </trkpt>
      <trkpt lat="45.93993" lon="6.53527">
        <ele>2300.57</ele>
        <time>2019-03-20T14:12:26Z</time>
      </trkpt>
      <trkpt lat="45.93998" lon="6.53533">
        <ele>2299.61</ele>
        <time>2019-03-20T14:12:28Z</time>
      </trkpt>
      <trkpt lat="45.94003" lon="6.53534">
        <ele>2298.17</ele>
        <time>2019-03-20T14:12:29Z</time>
      </trkpt>
      <trkpt lat="45.94008" lon="6.53531">
        <ele>2296.25</ele>
        <time>2019-03-20T14:12:30Z</time>
      </trkpt>
      <trkpt lat="45.94015" lon="6.5353">
        <ele>2293.84</ele>
        <time>2019-03-20T14:12:31Z</time>
      </trkpt>
      <trkpt lat="45.9402" lon="6.53529">
        <ele>2292.4</ele>
        <time>2019-03-20T14:12:32Z</time>
      </trkpt>
      <trkpt lat="45.94025" lon="6.53527">
        <ele>2291.92</ele>
        <time>2019-03-20T14:12:33Z</time>
      </trkpt>
      <trkpt lat="45.94031" lon="6.53522">
        <ele>2292.4</ele>
        <time>2019-03-20T14:12:36Z</time>
      </trkpt>
      <trkpt lat="45.94034" lon="6.53522">
        <ele>2292.4</ele>
        <time>2019-03-20T14:12:53Z</time>
      </trkpt>
      <trkpt lat="45.94035" lon="6.53518">
        <ele>2291.92</ele>
        <time>2019-03-20T14:12:54Z</time>
      </trkpt>
      <trkpt lat="45.94041" lon="6.53507">
        <ele>2290</ele>
        <time>2019-03-20T14:12:57Z</time>
      </trkpt>
      <trkpt lat="45.9404" lon="6.535">
        <ele>2288.56</ele>
        <time>2019-03-20T14:12:58Z</time>
      </trkpt>
      <trkpt lat="45.9404" lon="6.53492">
        <ele>2285.19</ele>
        <time>2019-03-20T14:12:59Z</time>
      </trkpt>
      <trkpt lat="45.94043" lon="6.53483">
        <ele>2281.35</ele>
        <time>2019-03-20T14:13:00Z</time>
      </trkpt>
      <trkpt lat="45.94044" lon="6.53473">
        <ele>2278.46</ele>
        <time>2019-03-20T14:13:01Z</time>
      </trkpt>
      <trkpt lat="45.9404" lon="6.53463">
        <ele>2276.06</ele>
        <time>2019-03-20T14:13:02Z</time>
      </trkpt>
      <trkpt lat="45.94035" lon="6.53455">
        <ele>2269.81</ele>
        <time>2019-03-20T14:13:03Z</time>
      </trkpt>
      <trkpt lat="45.94031" lon="6.53445">
        <ele>2264.52</ele>
        <time>2019-03-20T14:13:04Z</time>
      </trkpt>
      <trkpt lat="45.94035" lon="6.53436">
        <ele>2258.75</ele>
        <time>2019-03-20T14:13:05Z</time>
      </trkpt>
      <trkpt lat="45.94039" lon="6.53429">
        <ele>2254.43</ele>
        <time>2019-03-20T14:13:06Z</time>
      </trkpt>
      <trkpt lat="45.94039" lon="6.53419">
        <ele>2251.54</ele>
        <time>2019-03-20T14:13:07Z</time>
      </trkpt>
      <trkpt lat="45.94035" lon="6.53411">
        <ele>2248.18</ele>
        <time>2019-03-20T14:13:08Z</time>
      </trkpt>
      <trkpt lat="45.94029" lon="6.53404">
        <ele>2243.85</ele>
        <time>2019-03-20T14:13:09Z</time>
      </trkpt>
      <trkpt lat="45.94026" lon="6.53393">
        <ele>2240.01</ele>
        <time>2019-03-20T14:13:10Z</time>
      </trkpt>
      <trkpt lat="45.94028" lon="6.53382">
        <ele>2235.2</ele>
        <time>2019-03-20T14:13:11Z</time>
      </trkpt>
      <trkpt lat="45.94029" lon="6.53371">
        <ele>2230.4</ele>
        <time>2019-03-20T14:13:12Z</time>
      </trkpt>
      <trkpt lat="45.94032" lon="6.5336">
        <ele>2224.63</ele>
        <time>2019-03-20T14:13:13Z</time>
      </trkpt>
      <trkpt lat="45.94036" lon="6.53351">
        <ele>2219.34</ele>
        <time>2019-03-20T14:13:14Z</time>
      </trkpt>
      <trkpt lat="45.94041" lon="6.53341">
        <ele>2215.98</ele>
        <time>2019-03-20T14:13:15Z</time>
      </trkpt>
      <trkpt lat="45.94045" lon="6.5333">
        <ele>2213.09</ele>
        <time>2019-03-20T14:13:16Z</time>
      </trkpt>
      <trkpt lat="45.94049" lon="6.5332">
        <ele>2210.21</ele>
        <time>2019-03-20T14:13:17Z</time>
      </trkpt>
      <trkpt lat="45.94057" lon="6.53313">
        <ele>2206.36</ele>
        <time>2019-03-20T14:13:18Z</time>
      </trkpt>
      <trkpt lat="45.94065" lon="6.53306">
        <ele>2202.52</ele>
        <time>2019-03-20T14:13:19Z</time>
      </trkpt>
      <trkpt lat="45.94072" lon="6.53301">
        <ele>2198.19</ele>
        <time>2019-03-20T14:13:20Z</time>
      </trkpt>
      <trkpt lat="45.94076" lon="6.53299">
        <ele>2197.23</ele>
        <time>2019-03-20T14:13:21Z</time>
      </trkpt>
      <trkpt lat="45.94079" lon="6.53299">
        <ele>2197.23</ele>
        <time>2019-03-20T14:13:22Z</time>
      </trkpt>
      <trkpt lat="45.94081" lon="6.533">
        <ele>2197.23</ele>
        <time>2019-03-20T14:13:23Z</time>
      </trkpt>
      <trkpt lat="45.94081" lon="6.53306">
        <ele>2197.23</ele>
        <time>2019-03-20T14:13:40Z</time>
      </trkpt>
      <trkpt lat="45.9408" lon="6.53305">
        <ele>2197.23</ele>
        <time>2019-03-20T14:13:41Z</time>
      </trkpt>
      <trkpt lat="45.94079" lon="6.53305">
        <ele>2194.83</ele>
        <time>2019-03-20T14:13:52Z</time>
      </trkpt>
      <trkpt lat="45.94078" lon="6.53302">
        <ele>2193.87</ele>
        <time>2019-03-20T14:13:53Z</time>
      </trkpt>
      <trkpt lat="45.94077" lon="6.533">
        <ele>2192.9</ele>
        <time>2019-03-20T14:13:54Z</time>
      </trkpt>
      <trkpt lat="45.94074" lon="6.53296">
        <ele>2189.54</ele>
        <time>2019-03-20T14:13:58Z</time>
      </trkpt>
      <trkpt lat="45.94078" lon="6.53291">
        <ele>2188.58</ele>
        <time>2019-03-20T14:14:20Z</time>
      </trkpt>
      <trkpt lat="45.94079" lon="6.53289">
        <ele>2187.62</ele>
        <time>2019-03-20T14:14:21Z</time>
      </trkpt>
      <trkpt lat="45.94079" lon="6.53287">
        <ele>2186.18</ele>
        <time>2019-03-20T14:14:22Z</time>
      </trkpt>
      <trkpt lat="45.94079" lon="6.53285">
        <ele>2185.21</ele>
        <time>2019-03-20T14:14:23Z</time>
      </trkpt>
      <trkpt lat="45.94081" lon="6.53281">
        <ele>2184.25</ele>
        <time>2019-03-20T14:14:24Z</time>
      </trkpt>
      <trkpt lat="45.94085" lon="6.53279">
        <ele>2182.33</ele>
        <time>2019-03-20T14:14:25Z</time>
      </trkpt>
      <trkpt lat="45.9409" lon="6.53277">
        <ele>2179.45</ele>
        <time>2019-03-20T14:14:26Z</time>
      </trkpt>
      <trkpt lat="45.94094" lon="6.53273">
        <ele>2177.04</ele>
        <time>2019-03-20T14:14:27Z</time>
      </trkpt>
      <trkpt lat="45.94097" lon="6.53264">
        <ele>2174.16</ele>
        <time>2019-03-20T14:14:28Z</time>
      </trkpt>
      <trkpt lat="45.94101" lon="6.53256">
        <ele>2169.83</ele>
        <time>2019-03-20T14:14:29Z</time>
      </trkpt>
      <trkpt lat="45.94105" lon="6.53251">
        <ele>2165.03</ele>
        <time>2019-03-20T14:14:30Z</time>
      </trkpt>
      <trkpt lat="45.94108" lon="6.53251">
        <ele>2161.66</ele>
        <time>2019-03-20T14:14:31Z</time>
      </trkpt>
      <trkpt lat="45.94109" lon="6.53253">
        <ele>2160.22</ele>
        <time>2019-03-20T14:14:33Z</time>
      </trkpt>
      <trkpt lat="45.9411" lon="6.53252">
        <ele>2160.22</ele>
        <time>2019-03-20T14:14:34Z</time>
      </trkpt>
      <trkpt lat="45.94114" lon="6.53248">
        <ele>2158.78</ele>
        <time>2019-03-20T14:14:36Z</time>
      </trkpt>
      <trkpt lat="45.94117" lon="6.53241">
        <ele>2156.86</ele>
        <time>2019-03-20T14:14:37Z</time>
      </trkpt>
      <trkpt lat="45.94119" lon="6.53233">
        <ele>2153.01</ele>
        <time>2019-03-20T14:14:38Z</time>
      </trkpt>
      <trkpt lat="45.94122" lon="6.53223">
        <ele>2149.16</ele>
        <time>2019-03-20T14:14:39Z</time>
      </trkpt>
      <trkpt lat="45.94123" lon="6.5321">
        <ele>2145.8</ele>
        <time>2019-03-20T14:14:40Z</time>
      </trkpt>
      <trkpt lat="45.94122" lon="6.53197">
        <ele>2140.03</ele>
        <time>2019-03-20T14:14:41Z</time>
      </trkpt>
      <trkpt lat="45.94124" lon="6.53187">
        <ele>2135.23</ele>
        <time>2019-03-20T14:14:42Z</time>
      </trkpt>
      <trkpt lat="45.94126" lon="6.53175">
        <ele>2131.38</ele>
        <time>2019-03-20T14:14:43Z</time>
      </trkpt>
      <trkpt lat="45.94125" lon="6.53163">
        <ele>2129.46</ele>
        <time>2019-03-20T14:14:44Z</time>
      </trkpt>
      <trkpt lat="45.94125" lon="6.5315">
        <ele>2123.21</ele>
        <time>2019-03-20T14:14:45Z</time>
      </trkpt>
      <trkpt lat="45.94124" lon="6.53134">
        <ele>2119.36</ele>
        <time>2019-03-20T14:14:46Z</time>
      </trkpt>
      <trkpt lat="45.94122" lon="6.53119">
        <ele>2114.56</ele>
        <time>2019-03-20T14:14:47Z</time>
      </trkpt>
      <trkpt lat="45.94121" lon="6.53105">
        <ele>2109.27</ele>
        <time>2019-03-20T14:14:48Z</time>
      </trkpt>
      <trkpt lat="45.94116" lon="6.53093">
        <ele>2104.46</ele>
        <time>2019-03-20T14:14:49Z</time>
      </trkpt>
      <trkpt lat="45.94111" lon="6.53081">
        <ele>2099.66</ele>
        <time>2019-03-20T14:14:50Z</time>
      </trkpt>
      <trkpt lat="45.94109" lon="6.53067">
        <ele>2095.33</ele>
        <time>2019-03-20T14:14:51Z</time>
      </trkpt>
      <trkpt lat="45.94106" lon="6.53054">
        <ele>2090.52</ele>
        <time>2019-03-20T14:14:52Z</time>
      </trkpt>
      <trkpt lat="45.94103" lon="6.53046">
        <ele>2087.64</ele>
        <time>2019-03-20T14:14:53Z</time>
      </trkpt>
      <trkpt lat="45.94103" lon="6.53037">
        <ele>2080.91</ele>
        <time>2019-03-20T14:14:54Z</time>
      </trkpt>
      <trkpt lat="45.94106" lon="6.53033">
        <ele>2078.03</ele>
        <time>2019-03-20T14:14:55Z</time>
      </trkpt>
      <trkpt lat="45.94108" lon="6.53032">
        <ele>2076.59</ele>
        <time>2019-03-20T14:14:56Z</time>
      </trkpt>
      <trkpt lat="45.94108" lon="6.5303">
        <ele>2075.62</ele>
        <time>2019-03-20T14:14:57Z</time>
      </trkpt>
      <trkpt lat="45.94106" lon="6.53033">
        <ele>2073.22</ele>
        <time>2019-03-20T14:15:04Z</time>
      </trkpt>
      <trkpt lat="45.94105" lon="6.53034">
        <ele>2073.22</ele>
        <time>2019-03-20T14:15:05Z</time>
      </trkpt>
      <trkpt lat="45.94104" lon="6.53031">
        <ele>2073.22</ele>
        <time>2019-03-20T14:15:08Z</time>
      </trkpt>
      <trkpt lat="45.94105" lon="6.53026">
        <ele>2071.78</ele>
        <time>2019-03-20T14:15:09Z</time>
      </trkpt>
      <trkpt lat="45.94106" lon="6.5302">
        <ele>2070.82</ele>
        <time>2019-03-20T14:15:10Z</time>
      </trkpt>
      <trkpt lat="45.94105" lon="6.53012">
        <ele>2068.89</ele>
        <time>2019-03-20T14:15:11Z</time>
      </trkpt>
      <trkpt lat="45.94105" lon="6.53003">
        <ele>2064.09</ele>
        <time>2019-03-20T14:15:12Z</time>
      </trkpt>
      <trkpt lat="45.94105" lon="6.52992">
        <ele>2060.72</ele>
        <time>2019-03-20T14:15:13Z</time>
      </trkpt>
      <trkpt lat="45.94104" lon="6.52983">
        <ele>2057.36</ele>
        <time>2019-03-20T14:15:14Z</time>
      </trkpt>
      <trkpt lat="45.94103" lon="6.52978">
        <ele>2054.96</ele>
        <time>2019-03-20T14:15:15Z</time>
      </trkpt>
      <trkpt lat="45.94098" lon="6.52977">
        <ele>2052.55</ele>
        <time>2019-03-20T14:15:16Z</time>
      </trkpt>
      <trkpt lat="45.94093" lon="6.52975">
        <ele>2051.11</ele>
        <time>2019-03-20T14:15:17Z</time>
      </trkpt>
      <trkpt lat="45.9409" lon="6.5297">
        <ele>2050.63</ele>
        <time>2019-03-20T14:15:18Z</time>
      </trkpt>
      <trkpt lat="45.94088" lon="6.52963">
        <ele>2049.19</ele>
        <time>2019-03-20T14:15:19Z</time>
      </trkpt>
      <trkpt lat="45.94084" lon="6.52956">
        <ele>2047.26</ele>
        <time>2019-03-20T14:15:20Z</time>
      </trkpt>
      <trkpt lat="45.94081" lon="6.5295">
        <ele>2044.38</ele>
        <time>2019-03-20T14:15:21Z</time>
      </trkpt>
      <trkpt lat="45.9408" lon="6.52944">
        <ele>2041.02</ele>
        <time>2019-03-20T14:15:22Z</time>
      </trkpt>
      <trkpt lat="45.94077" lon="6.52935">
        <ele>2037.17</ele>
        <time>2019-03-20T14:15:23Z</time>
      </trkpt>
      <trkpt lat="45.94074" lon="6.52927">
        <ele>2032.84</ele>
        <time>2019-03-20T14:15:24Z</time>
      </trkpt>
      <trkpt lat="45.94073" lon="6.52916">
        <ele>2029</ele>
        <time>2019-03-20T14:15:25Z</time>
      </trkpt>
      <trkpt lat="45.94072" lon="6.52905">
        <ele>2025.64</ele>
        <time>2019-03-20T14:15:26Z</time>
      </trkpt>
      <trkpt lat="45.94073" lon="6.52897">
        <ele>2022.27</ele>
        <time>2019-03-20T14:15:27Z</time>
      </trkpt>
      <trkpt lat="45.94076" lon="6.52893">
        <ele>2020.35</ele>
        <time>2019-03-20T14:15:28Z</time>
      </trkpt>
      <trkpt lat="45.94078" lon="6.52887">
        <ele>2017.46</ele>
        <time>2019-03-20T14:15:29Z</time>
      </trkpt>
      <trkpt lat="45.9408" lon="6.52881">
        <ele>2015.06</ele>
        <time>2019-03-20T14:15:30Z</time>
      </trkpt>
      <trkpt lat="45.94083" lon="6.52875">
        <ele>2012.18</ele>
        <time>2019-03-20T14:15:31Z</time>
      </trkpt>
      <trkpt lat="45.94082" lon="6.5287">
        <ele>2009.29</ele>
        <time>2019-03-20T14:15:32Z</time>
      </trkpt>
      <trkpt lat="45.94081" lon="6.52865">
        <ele>2007.37</ele>
        <time>2019-03-20T14:15:33Z</time>
      </trkpt>
      <trkpt lat="45.9408" lon="6.5286">
        <ele>2005.45</ele>
        <time>2019-03-20T14:15:34Z</time>
      </trkpt>
      <trkpt lat="45.94079" lon="6.52856">
        <ele>2003.52</ele>
        <time>2019-03-20T14:15:35Z</time>
      </trkpt>
      <trkpt lat="45.94081" lon="6.52852">
        <ele>2001.6</ele>
        <time>2019-03-20T14:15:36Z</time>
      </trkpt>
      <trkpt lat="45.94081" lon="6.52849">
        <ele>2000.16</ele>
        <time>2019-03-20T14:15:37Z</time>
      </trkpt>
      <trkpt lat="45.9408" lon="6.52848">
        <ele>1996.8</ele>
        <time>2019-03-20T14:15:40Z</time>
      </trkpt>
      <trkpt lat="45.94079" lon="6.52849">
        <ele>1995.83</ele>
        <time>2019-03-20T14:15:42Z</time>
      </trkpt>
      <trkpt lat="45.94077" lon="6.52849">
        <ele>1995.83</ele>
        <time>2019-03-20T14:15:48Z</time>
      </trkpt>
      <trkpt lat="45.94075" lon="6.52848">
        <ele>1995.83</ele>
        <time>2019-03-20T14:15:49Z</time>
      </trkpt>
      <trkpt lat="45.94073" lon="6.52844">
        <ele>1994.87</ele>
        <time>2019-03-20T14:15:50Z</time>
      </trkpt>
      <trkpt lat="45.94073" lon="6.52838">
        <ele>1993.43</ele>
        <time>2019-03-20T14:15:51Z</time>
      </trkpt>
      <trkpt lat="45.94073" lon="6.52831">
        <ele>1991.51</ele>
        <time>2019-03-20T14:15:52Z</time>
      </trkpt>
      <trkpt lat="45.94073" lon="6.52823">
        <ele>1988.62</ele>
        <time>2019-03-20T14:15:53Z</time>
      </trkpt>
      <trkpt lat="45.94076" lon="6.52818">
        <ele>1984.78</ele>
        <time>2019-03-20T14:15:54Z</time>
      </trkpt>
      <trkpt lat="45.94078" lon="6.52813">
        <ele>1982.86</ele>
        <time>2019-03-20T14:15:55Z</time>
      </trkpt>
      <trkpt lat="45.94079" lon="6.52806">
        <ele>1979.01</ele>
        <time>2019-03-20T14:15:56Z</time>
      </trkpt>
      <trkpt lat="45.94082" lon="6.528">
        <ele>1975.65</ele>
        <time>2019-03-20T14:15:57Z</time>
      </trkpt>
      <trkpt lat="45.94086" lon="6.52795">
        <ele>1972.28</ele>
        <time>2019-03-20T14:15:58Z</time>
      </trkpt>
      <trkpt lat="45.9409" lon="6.52789">
        <ele>1969.4</ele>
        <time>2019-03-20T14:15:59Z</time>
      </trkpt>
      <trkpt lat="45.94096" lon="6.52783">
        <ele>1965.55</ele>
        <time>2019-03-20T14:16:00Z</time>
      </trkpt>
      <trkpt lat="45.941" lon="6.52777">
        <ele>1961.71</ele>
        <time>2019-03-20T14:16:01Z</time>
      </trkpt>
      <trkpt lat="45.94102" lon="6.5277">
        <ele>1959.3</ele>
        <time>2019-03-20T14:16:02Z</time>
      </trkpt>
      <trkpt lat="45.94104" lon="6.52762">
        <ele>1955.46</ele>
        <time>2019-03-20T14:16:03Z</time>
      </trkpt>
      <trkpt lat="45.94106" lon="6.52754">
        <ele>1952.57</ele>
        <time>2019-03-20T14:16:04Z</time>
      </trkpt>
      <trkpt lat="45.94108" lon="6.52747">
        <ele>1949.21</ele>
        <time>2019-03-20T14:16:05Z</time>
      </trkpt>
      <trkpt lat="45.94109" lon="6.52739">
        <ele>1946.33</ele>
        <time>2019-03-20T14:16:06Z</time>
      </trkpt>
      <trkpt lat="45.94112" lon="6.52731">
        <ele>1942.96</ele>
        <time>2019-03-20T14:16:07Z</time>
      </trkpt>
      <trkpt lat="45.94116" lon="6.52725">
        <ele>1939.12</ele>
        <time>2019-03-20T14:16:08Z</time>
      </trkpt>
      <trkpt lat="45.94118" lon="6.52719">
        <ele>1936.23</ele>
        <time>2019-03-20T14:16:09Z</time>
      </trkpt>
      <trkpt lat="45.94121" lon="6.52712">
        <ele>1933.35</ele>
        <time>2019-03-20T14:16:10Z</time>
      </trkpt>
      <trkpt lat="45.94125" lon="6.52706">
        <ele>1930.95</ele>
        <time>2019-03-20T14:16:11Z</time>
      </trkpt>
      <trkpt lat="45.94127" lon="6.52699">
        <ele>1926.62</ele>
        <time>2019-03-20T14:16:12Z</time>
      </trkpt>
      <trkpt lat="45.9413" lon="6.5269">
        <ele>1924.22</ele>
        <time>2019-03-20T14:16:13Z</time>
      </trkpt>
      <trkpt lat="45.94132" lon="6.5268">
        <ele>1919.89</ele>
        <time>2019-03-20T14:16:14Z</time>
      </trkpt>
      <trkpt lat="45.94137" lon="6.5267">
        <ele>1915.56</ele>
        <time>2019-03-20T14:16:15Z</time>
      </trkpt>
      <trkpt lat="45.94142" lon="6.52662">
        <ele>1911.24</ele>
        <time>2019-03-20T14:16:16Z</time>
      </trkpt>
      <trkpt lat="45.94147" lon="6.52653">
        <ele>1907.39</ele>
        <time>2019-03-20T14:16:17Z</time>
      </trkpt>
      <trkpt lat="45.94151" lon="6.52644">
        <ele>1904.03</ele>
        <time>2019-03-20T14:16:18Z</time>
      </trkpt>
      <trkpt lat="45.94152" lon="6.52634">
        <ele>1901.14</ele>
        <time>2019-03-20T14:16:19Z</time>
      </trkpt>
      <trkpt lat="45.94155" lon="6.52625">
        <ele>1898.26</ele>
        <time>2019-03-20T14:16:20Z</time>
      </trkpt>
      <trkpt lat="45.9416" lon="6.5262">
        <ele>1894.9</ele>
        <time>2019-03-20T14:16:21Z</time>
      </trkpt>
      <trkpt lat="45.94165" lon="6.52613">
        <ele>1892.01</ele>
        <time>2019-03-20T14:16:22Z</time>
      </trkpt>
      <trkpt lat="45.9417" lon="6.52606">
        <ele>1888.17</ele>
        <time>2019-03-20T14:16:23Z</time>
      </trkpt>
      <trkpt lat="45.94175" lon="6.52599">
        <ele>1884.8</ele>
        <time>2019-03-20T14:16:24Z</time>
      </trkpt>
      <trkpt lat="45.94181" lon="6.52593">
        <ele>1881.44</ele>
        <time>2019-03-20T14:16:25Z</time>
      </trkpt>
      <trkpt lat="45.94188" lon="6.52587">
        <ele>1876.63</ele>
        <time>2019-03-20T14:16:26Z</time>
      </trkpt>
      <trkpt lat="45.94195" lon="6.52582">
        <ele>1873.75</ele>
        <time>2019-03-20T14:16:27Z</time>
      </trkpt>
      <trkpt lat="45.94198" lon="6.52573">
        <ele>1870.86</ele>
        <time>2019-03-20T14:16:28Z</time>
      </trkpt>
      <trkpt lat="45.94201" lon="6.52564">
        <ele>1867.98</ele>
        <time>2019-03-20T14:16:29Z</time>
      </trkpt>
      <trkpt lat="45.94204" lon="6.52552">
        <ele>1863.17</ele>
        <time>2019-03-20T14:16:30Z</time>
      </trkpt>
      <trkpt lat="45.94206" lon="6.52543">
        <ele>1859.33</ele>
        <time>2019-03-20T14:16:31Z</time>
      </trkpt>
      <trkpt lat="45.94208" lon="6.52535">
        <ele>1856.92</ele>
        <time>2019-03-20T14:16:32Z</time>
      </trkpt>
      <trkpt lat="45.9421" lon="6.52528">
        <ele>1855</ele>
        <time>2019-03-20T14:16:33Z</time>
      </trkpt>
      <trkpt lat="45.94213" lon="6.52525">
        <ele>1853.08</ele>
        <time>2019-03-20T14:16:34Z</time>
      </trkpt>
      <trkpt lat="45.94213" lon="6.52525">
        <ele>1851.16</ele>
        <time>2019-03-20T14:16:37Z</time>
      </trkpt>
      <trkpt lat="45.94218" lon="6.52524">
        <ele>1849.23</ele>
        <time>2019-03-20T14:17:02Z</time>
      </trkpt>
      <trkpt lat="45.94221" lon="6.52518">
        <ele>1848.27</ele>
        <time>2019-03-20T14:17:03Z</time>
      </trkpt>
      <trkpt lat="45.94225" lon="6.52513">
        <ele>1846.35</ele>
        <time>2019-03-20T14:17:04Z</time>
      </trkpt>
      <trkpt lat="45.9423" lon="6.52509">
        <ele>1842.02</ele>
        <time>2019-03-20T14:17:05Z</time>
      </trkpt>
      <trkpt lat="45.94234" lon="6.52504">
        <ele>1839.62</ele>
        <time>2019-03-20T14:17:06Z</time>
      </trkpt>
      <trkpt lat="45.94237" lon="6.52496">
        <ele>1836.26</ele>
        <time>2019-03-20T14:17:07Z</time>
      </trkpt>
      <trkpt lat="45.94241" lon="6.52489">
        <ele>1831.93</ele>
        <time>2019-03-20T14:17:08Z</time>
      </trkpt>
      <trkpt lat="45.94245" lon="6.52483">
        <ele>1829.05</ele>
        <time>2019-03-20T14:17:09Z</time>
      </trkpt>
      <trkpt lat="45.94246" lon="6.52476">
        <ele>1826.64</ele>
        <time>2019-03-20T14:17:10Z</time>
      </trkpt>
      <trkpt lat="45.94249" lon="6.5247">
        <ele>1823.76</ele>
        <time>2019-03-20T14:17:11Z</time>
      </trkpt>
      <trkpt lat="45.94252" lon="6.52462">
        <ele>1821.84</ele>
        <time>2019-03-20T14:17:12Z</time>
      </trkpt>
      <trkpt lat="45.94254" lon="6.52454">
        <ele>1819.43</ele>
        <time>2019-03-20T14:17:13Z</time>
      </trkpt>
      <trkpt lat="45.94257" lon="6.52447">
        <ele>1816.07</ele>
        <time>2019-03-20T14:17:14Z</time>
      </trkpt>
      <trkpt lat="45.94264" lon="6.52434">
        <ele>1809.82</ele>
        <time>2019-03-20T14:17:16Z</time>
      </trkpt>
      <trkpt lat="45.94268" lon="6.52428">
        <ele>1806.45</ele>
        <time>2019-03-20T14:17:17Z</time>
      </trkpt>
      <trkpt lat="45.9427" lon="6.52422">
        <ele>1803.57</ele>
        <time>2019-03-20T14:17:18Z</time>
      </trkpt>
      <trkpt lat="45.94272" lon="6.52414">
        <ele>1800.69</ele>
        <time>2019-03-20T14:17:19Z</time>
      </trkpt>
      <trkpt lat="45.94275" lon="6.52407">
        <ele>1796.84</ele>
        <time>2019-03-20T14:17:20Z</time>
      </trkpt>
      <trkpt lat="45.94278" lon="6.52399">
        <ele>1794.44</ele>
        <time>2019-03-20T14:17:21Z</time>
      </trkpt>
      <trkpt lat="45.9428" lon="6.5239">
        <ele>1789.63</ele>
        <time>2019-03-20T14:17:22Z</time>
      </trkpt>
      <trkpt lat="45.94284" lon="6.52383">
        <ele>1785.31</ele>
        <time>2019-03-20T14:17:23Z</time>
      </trkpt>
      <trkpt lat="45.94289" lon="6.5238">
        <ele>1781.46</ele>
        <time>2019-03-20T14:17:24Z</time>
      </trkpt>
      <trkpt lat="45.94293" lon="6.52378">
        <ele>1778.58</ele>
        <time>2019-03-20T14:17:25Z</time>
      </trkpt>
      <trkpt lat="45.94296" lon="6.52374">
        <ele>1775.69</ele>
        <time>2019-03-20T14:17:26Z</time>
      </trkpt>
      <trkpt lat="45.94296" lon="6.52368">
        <ele>1773.29</ele>
        <time>2019-03-20T14:17:27Z</time>
      </trkpt>
      <trkpt lat="45.94298" lon="6.52363">
        <ele>1771.37</ele>
        <time>2019-03-20T14:17:28Z</time>
      </trkpt>
      <trkpt lat="45.94299" lon="6.52358">
        <ele>1768.96</ele>
        <time>2019-03-20T14:17:29Z</time>
      </trkpt>
      <trkpt lat="45.943" lon="6.52351">
        <ele>1767.04</ele>
        <time>2019-03-20T14:17:30Z</time>
      </trkpt>
      <trkpt lat="45.94302" lon="6.52349">
        <ele>1765.12</ele>
        <time>2019-03-20T14:17:31Z</time>
      </trkpt>
      <trkpt lat="45.94303" lon="6.52349">
        <ele>1763.2</ele>
        <time>2019-03-20T14:17:32Z</time>
      </trkpt>
      <trkpt lat="45.94305" lon="6.5235">
        <ele>1762.23</ele>
        <time>2019-03-20T14:17:33Z</time>
      </trkpt>
      <trkpt lat="45.94307" lon="6.5235">
        <ele>1761.27</ele>
        <time>2019-03-20T14:17:34Z</time>
      </trkpt>
      <trkpt lat="45.94309" lon="6.52351">
        <ele>1760.79</ele>
        <time>2019-03-20T14:17:35Z</time>
      </trkpt>
      <trkpt lat="45.94312" lon="6.52352">
        <ele>1760.31</ele>
        <time>2019-03-20T14:17:36Z</time>
      </trkpt>
      <trkpt lat="45.94313" lon="6.52353">
        <ele>1759.83</ele>
        <time>2019-03-20T14:17:37Z</time>
      </trkpt>
      <trkpt lat="45.94314" lon="6.52354">
        <ele>1759.83</ele>
        <time>2019-03-20T14:17:38Z</time>
      </trkpt>
      <trkpt lat="45.94315" lon="6.52354">
        <ele>1759.83</ele>
        <time>2019-03-20T14:17:39Z</time>
      </trkpt>
      <trkpt lat="45.94316" lon="6.52354">
        <ele>1759.83</ele>
        <time>2019-03-20T14:17:40Z</time>
      </trkpt>
      <trkpt lat="45.94321" lon="6.52355">
        <ele>1758.87</ele>
        <time>2019-03-20T14:17:43Z</time>
      </trkpt>
      <trkpt lat="45.94324" lon="6.52355">
        <ele>1758.87</ele>
        <time>2019-03-20T14:17:44Z</time>
      </trkpt>
      <trkpt lat="45.94326" lon="6.52356">
        <ele>1758.39</ele>
        <time>2019-03-20T14:17:45Z</time>
      </trkpt>
      <trkpt lat="45.94328" lon="6.52356">
        <ele>1758.39</ele>
        <time>2019-03-20T14:17:46Z</time>
      </trkpt>
      <trkpt lat="45.9433" lon="6.52357">
        <ele>1757.91</ele>
        <time>2019-03-20T14:17:47Z</time>
      </trkpt>
      <trkpt lat="45.94333" lon="6.52357">
        <ele>1757.43</ele>
        <time>2019-03-20T14:17:48Z</time>
      </trkpt>
      <trkpt lat="45.94334" lon="6.52354">
        <ele>1756.47</ele>
        <time>2019-03-20T14:17:49Z</time>
      </trkpt>
      <trkpt lat="45.94334" lon="6.5235">
        <ele>1755.5</ele>
        <time>2019-03-20T14:17:50Z</time>
      </trkpt>
      <trkpt lat="45.94339" lon="6.52344">
        <ele>1751.66</ele>
        <time>2019-03-20T14:17:52Z</time>
      </trkpt>
      <trkpt lat="45.94342" lon="6.52338">
        <ele>1749.74</ele>
        <time>2019-03-20T14:17:54Z</time>
      </trkpt>
      <trkpt lat="45.94346" lon="6.52328">
        <ele>1745.89</ele>
        <time>2019-03-20T14:17:56Z</time>
      </trkpt>
      <trkpt lat="45.94349" lon="6.52326">
        <ele>1743.97</ele>
        <time>2019-03-20T14:17:57Z</time>
      </trkpt>
      <trkpt lat="45.94352" lon="6.52327">
        <ele>1742.53</ele>
        <time>2019-03-20T14:17:58Z</time>
      </trkpt>
      <trkpt lat="45.9436" lon="6.52326">
        <ele>1741.08</ele>
        <time>2019-03-20T14:18:00Z</time>
      </trkpt>
      <trkpt lat="45.94365" lon="6.52326">
        <ele>1740.6</ele>
        <time>2019-03-20T14:18:01Z</time>
      </trkpt>
      <trkpt lat="45.94375" lon="6.52325">
        <ele>1737.24</ele>
        <time>2019-03-20T14:18:03Z</time>
      </trkpt>
      <trkpt lat="45.94384" lon="6.52322">
        <ele>1736.76</ele>
        <time>2019-03-20T14:18:05Z</time>
      </trkpt>
      <trkpt lat="45.94388" lon="6.52319">
        <ele>1736.28</ele>
        <time>2019-03-20T14:18:06Z</time>
      </trkpt>
      <trkpt lat="45.94392" lon="6.52315">
        <ele>1736.28</ele>
        <time>2019-03-20T14:18:07Z</time>
      </trkpt>
      <trkpt lat="45.94395" lon="6.52311">
        <ele>1735.8</ele>
        <time>2019-03-20T14:18:08Z</time>
      </trkpt>
      <trkpt lat="45.94398" lon="6.52307">
        <ele>1734.84</ele>
        <time>2019-03-20T14:18:09Z</time>
      </trkpt>
      <trkpt lat="45.94401" lon="6.52304">
        <ele>1734.36</ele>
        <time>2019-03-20T14:18:10Z</time>
      </trkpt>
      <trkpt lat="45.94404" lon="6.52301">
        <ele>1733.88</ele>
        <time>2019-03-20T14:18:11Z</time>
      </trkpt>
      <trkpt lat="45.94407" lon="6.52298">
        <ele>1733.39</ele>
        <time>2019-03-20T14:18:12Z</time>
      </trkpt>
      <trkpt lat="45.94408" lon="6.52296">
        <ele>1733.39</ele>
        <time>2019-03-20T14:18:13Z</time>
      </trkpt>
      <trkpt lat="45.9441" lon="6.52293">
        <ele>1733.39</ele>
        <time>2019-03-20T14:18:14Z</time>
      </trkpt>
      <trkpt lat="45.94416" lon="6.52284">
        <ele>1732.43</ele>
        <time>2019-03-20T14:18:17Z</time>
      </trkpt>
      <trkpt lat="45.94422" lon="6.5227">
        <ele>1729.55</ele>
        <time>2019-03-20T14:18:20Z</time>
      </trkpt>
      <trkpt lat="45.94423" lon="6.52268">
        <ele>1729.55</ele>
        <time>2019-03-20T14:18:21Z</time>
      </trkpt>
      <trkpt lat="45.94426" lon="6.52267">
        <ele>1730.03</ele>
        <time>2019-03-20T14:18:25Z</time>
      </trkpt>
      <trkpt lat="45.94428" lon="6.52266">
        <ele>1729.55</ele>
        <time>2019-03-20T14:18:28Z</time>
      </trkpt>
      <trkpt lat="45.94445" lon="6.52257">
        <ele>1726.18</ele>
        <time>2019-03-20T14:18:39Z</time>
      </trkpt>
      <trkpt lat="45.94447" lon="6.52254">
        <ele>1725.22</ele>
        <time>2019-03-20T14:18:40Z</time>
      </trkpt>
      <trkpt lat="45.94449" lon="6.52255">
        <ele>1723.78</ele>
        <time>2019-03-20T14:18:41Z</time>
      </trkpt>
      <trkpt lat="45.9445" lon="6.52256">
        <ele>1722.82</ele>
        <time>2019-03-20T14:18:42Z</time>
      </trkpt>
      <trkpt lat="45.94451" lon="6.52257">
        <ele>1721.38</ele>
        <time>2019-03-20T14:18:43Z</time>
      </trkpt>
      <trkpt lat="45.94452" lon="6.52258">
        <ele>1720.9</ele>
        <time>2019-03-20T14:18:44Z</time>
      </trkpt>
      <trkpt lat="45.94454" lon="6.5226">
        <ele>1720.42</ele>
        <time>2019-03-20T14:18:45Z</time>
      </trkpt>
      <trkpt lat="45.94456" lon="6.52262">
        <ele>1719.46</ele>
        <time>2019-03-20T14:18:46Z</time>
      </trkpt>
      <trkpt lat="45.94459" lon="6.52264">
        <ele>1718.49</ele>
        <time>2019-03-20T14:18:47Z</time>
      </trkpt>
      <trkpt lat="45.94469" lon="6.52273">
        <ele>1716.09</ele>
        <time>2019-03-20T14:18:51Z</time>
      </trkpt>
      <trkpt lat="45.9447" lon="6.52272">
        <ele>1716.09</ele>
        <time>2019-03-20T14:18:52Z</time>
      </trkpt>
      <trkpt lat="45.94473" lon="6.52271">
        <ele>1716.09</ele>
        <time>2019-03-20T14:18:53Z</time>
      </trkpt>
      <trkpt lat="45.94475" lon="6.52271">
        <ele>1715.61</ele>
        <time>2019-03-20T14:18:54Z</time>
      </trkpt>
      <trkpt lat="45.94477" lon="6.52271">
        <ele>1715.13</ele>
        <time>2019-03-20T14:18:55Z</time>
      </trkpt>
      <trkpt lat="45.9448" lon="6.5227">
        <ele>1714.65</ele>
        <time>2019-03-20T14:18:56Z</time>
      </trkpt>
      <trkpt lat="45.94483" lon="6.52267">
        <ele>1714.17</ele>
        <time>2019-03-20T14:18:57Z</time>
      </trkpt>
      <trkpt lat="45.94485" lon="6.5226">
        <ele>1712.73</ele>
        <time>2019-03-20T14:18:58Z</time>
      </trkpt>
      <trkpt lat="45.9449" lon="6.52257">
        <ele>1711.28</ele>
        <time>2019-03-20T14:18:59Z</time>
      </trkpt>
      <trkpt lat="45.94494" lon="6.52254">
        <ele>1710.32</ele>
        <time>2019-03-20T14:19:00Z</time>
      </trkpt>
      <trkpt lat="45.94498" lon="6.52253">
        <ele>1709.84</ele>
        <time>2019-03-20T14:19:01Z</time>
      </trkpt>
      <trkpt lat="45.94502" lon="6.52252">
        <ele>1709.36</ele>
        <time>2019-03-20T14:19:02Z</time>
      </trkpt>
      <trkpt lat="45.94504" lon="6.52251">
        <ele>1708.88</ele>
        <time>2019-03-20T14:19:03Z</time>
      </trkpt>
      <trkpt lat="45.94506" lon="6.52251">
        <ele>1708.88</ele>
        <time>2019-03-20T14:19:04Z</time>
      </trkpt>
      <trkpt lat="45.94508" lon="6.52252">
        <ele>1708.4</ele>
        <time>2019-03-20T14:19:05Z</time>
      </trkpt>
      <trkpt lat="45.9451" lon="6.52252">
        <ele>1708.4</ele>
        <time>2019-03-20T14:19:06Z</time>
      </trkpt>
      <trkpt lat="45.94512" lon="6.5225">
        <ele>1707.44</ele>
        <time>2019-03-20T14:19:07Z</time>
      </trkpt>
      <trkpt lat="45.94514" lon="6.52246">
        <ele>1706.48</ele>
        <time>2019-03-20T14:19:08Z</time>
      </trkpt>
      <trkpt lat="45.94518" lon="6.52239">
        <ele>1703.59</ele>
        <time>2019-03-20T14:19:10Z</time>
      </trkpt>
      <trkpt lat="45.94521" lon="6.52237">
        <ele>1702.63</ele>
        <time>2019-03-20T14:19:11Z</time>
      </trkpt>
      <trkpt lat="45.94522" lon="6.52237">
        <ele>1702.15</ele>
        <time>2019-03-20T14:19:12Z</time>
      </trkpt>
      <trkpt lat="45.94524" lon="6.52236">
        <ele>1701.67</ele>
        <time>2019-03-20T14:19:13Z</time>
      </trkpt>
      <trkpt lat="45.94527" lon="6.52235">
        <ele>1701.19</ele>
        <time>2019-03-20T14:19:14Z</time>
      </trkpt>
      <trkpt lat="45.9453" lon="6.52235">
        <ele>1700.71</ele>
        <time>2019-03-20T14:19:15Z</time>
      </trkpt>
      <trkpt lat="45.94535" lon="6.52234">
        <ele>1697.83</ele>
        <time>2019-03-20T14:19:28Z</time>
      </trkpt>
      <trkpt lat="45.94537" lon="6.52235">
        <ele>1696.86</ele>
        <time>2019-03-20T14:19:29Z</time>
      </trkpt>
      <trkpt lat="45.9454" lon="6.52235">
        <ele>1696.38</ele>
        <time>2019-03-20T14:19:30Z</time>
      </trkpt>
      <trkpt lat="45.9454" lon="6.5223">
        <ele>1695.9</ele>
        <time>2019-03-20T14:19:31Z</time>
      </trkpt>
      <trkpt lat="45.94541" lon="6.52227">
        <ele>1694.46</ele>
        <time>2019-03-20T14:19:32Z</time>
      </trkpt>
      <trkpt lat="45.94543" lon="6.52225">
        <ele>1693.02</ele>
        <time>2019-03-20T14:19:33Z</time>
      </trkpt>
      <trkpt lat="45.94546" lon="6.52224">
        <ele>1691.58</ele>
        <time>2019-03-20T14:19:34Z</time>
      </trkpt>
      <trkpt lat="45.94548" lon="6.52223">
        <ele>1691.1</ele>
        <time>2019-03-20T14:19:35Z</time>
      </trkpt>
      <trkpt lat="45.9455" lon="6.5222">
        <ele>1690.14</ele>
        <time>2019-03-20T14:19:36Z</time>
      </trkpt>
      <trkpt lat="45.94552" lon="6.52218">
        <ele>1689.17</ele>
        <time>2019-03-20T14:19:37Z</time>
      </trkpt>
      <trkpt lat="45.94555" lon="6.52217">
        <ele>1688.21</ele>
        <time>2019-03-20T14:19:38Z</time>
      </trkpt>
      <trkpt lat="45.94557" lon="6.52218">
        <ele>1686.77</ele>
        <time>2019-03-20T14:19:39Z</time>
      </trkpt>
      <trkpt lat="45.94558" lon="6.52217">
        <ele>1685.81</ele>
        <time>2019-03-20T14:19:41Z</time>
      </trkpt>
      <trkpt lat="45.94572" lon="6.52224">
        <ele>1682.44</ele>
        <time>2019-03-20T14:19:48Z</time>
      </trkpt>
      <trkpt lat="45.9458" lon="6.5223">
        <ele>1681</ele>
        <time>2019-03-20T14:19:50Z</time>
      </trkpt>
      <trkpt lat="45.94584" lon="6.52231">
        <ele>1680.04</ele>
        <time>2019-03-20T14:19:51Z</time>
      </trkpt>
      <trkpt lat="45.94589" lon="6.52233">
        <ele>1679.56</ele>
        <time>2019-03-20T14:19:52Z</time>
      </trkpt>
      <trkpt lat="45.94597" lon="6.52237">
        <ele>1678.12</ele>
        <time>2019-03-20T14:19:54Z</time>
      </trkpt>
      <trkpt lat="45.94635" lon="6.52253">
        <ele>1675.23</ele>
        <time>2019-03-20T14:20:06Z</time>
      </trkpt>
      <trkpt lat="45.9464" lon="6.52256">
        <ele>1674.75</ele>
        <time>2019-03-20T14:20:07Z</time>
      </trkpt>
      <trkpt lat="45.94644" lon="6.52259">
        <ele>1673.79</ele>
        <time>2019-03-20T14:20:08Z</time>
      </trkpt>
      <trkpt lat="45.94648" lon="6.52261">
        <ele>1673.31</ele>
        <time>2019-03-20T14:20:09Z</time>
      </trkpt>
      <trkpt lat="45.9465" lon="6.52264">
        <ele>1672.83</ele>
        <time>2019-03-20T14:20:10Z</time>
      </trkpt>
      <trkpt lat="45.94653" lon="6.52265">
        <ele>1672.83</ele>
        <time>2019-03-20T14:20:11Z</time>
      </trkpt>
      <trkpt lat="45.94658" lon="6.52266">
        <ele>1671.87</ele>
        <time>2019-03-20T14:20:12Z</time>
      </trkpt>
      <trkpt lat="45.94664" lon="6.52265">
        <ele>1671.39</ele>
        <time>2019-03-20T14:20:13Z</time>
      </trkpt>
      <trkpt lat="45.94668" lon="6.52263">
        <ele>1670.43</ele>
        <time>2019-03-20T14:20:14Z</time>
      </trkpt>
      <trkpt lat="45.94673" lon="6.5226">
        <ele>1669.95</ele>
        <time>2019-03-20T14:20:15Z</time>
      </trkpt>
      <trkpt lat="45.94677" lon="6.52258">
        <ele>1669.47</ele>
        <time>2019-03-20T14:20:16Z</time>
      </trkpt>
      <trkpt lat="45.9468" lon="6.52258">
        <ele>1668.99</ele>
        <time>2019-03-20T14:20:17Z</time>
      </trkpt>
      <trkpt lat="45.94688" lon="6.52256">
        <ele>1669.47</ele>
        <time>2019-03-20T14:20:21Z</time>
      </trkpt>
      <trkpt lat="45.9469" lon="6.52256">
        <ele>1668.99</ele>
        <time>2019-03-20T14:20:22Z</time>
      </trkpt>
      <trkpt lat="45.94693" lon="6.52258">
        <ele>1668.99</ele>
        <time>2019-03-20T14:20:27Z</time>
      </trkpt>
      <trkpt lat="45.94695" lon="6.5226">
        <ele>1668.51</ele>
        <time>2019-03-20T14:20:28Z</time>
      </trkpt>
      <trkpt lat="45.94701" lon="6.52261">
        <ele>1668.02</ele>
        <time>2019-03-20T14:20:43Z</time>
      </trkpt>
      <trkpt lat="45.94702" lon="6.52263">
        <ele>1668.02</ele>
        <time>2019-03-20T14:20:44Z</time>
      </trkpt>
      <trkpt lat="45.94705" lon="6.52265">
        <ele>1667.54</ele>
        <time>2019-03-20T14:20:45Z</time>
      </trkpt>
      <trkpt lat="45.94707" lon="6.52266">
        <ele>1667.06</ele>
        <time>2019-03-20T14:20:46Z</time>
      </trkpt>
      <trkpt lat="45.94711" lon="6.52267">
        <ele>1666.58</ele>
        <time>2019-03-20T14:20:47Z</time>
      </trkpt>
      <trkpt lat="45.94722" lon="6.52269">
        <ele>1663.7</ele>
        <time>2019-03-20T14:20:49Z</time>
      </trkpt>
      <trkpt lat="45.94727" lon="6.5227">
        <ele>1662.74</ele>
        <time>2019-03-20T14:20:50Z</time>
      </trkpt>
      <trkpt lat="45.94732" lon="6.52272">
        <ele>1661.78</ele>
        <time>2019-03-20T14:20:51Z</time>
      </trkpt>
      <trkpt lat="45.94738" lon="6.52276">
        <ele>1663.22</ele>
        <time>2019-03-20T14:20:55Z</time>
      </trkpt>
      <trkpt lat="45.94739" lon="6.52276">
        <ele>1663.22</ele>
        <time>2019-03-20T14:20:56Z</time>
      </trkpt>
      <trkpt lat="45.9474" lon="6.52276">
        <ele>1663.7</ele>
        <time>2019-03-20T14:20:57Z</time>
      </trkpt>
      <trkpt lat="45.94743" lon="6.52276">
        <ele>1664.18</ele>
        <time>2019-03-20T14:21:19Z</time>
      </trkpt>
      <trkpt lat="45.94745" lon="6.52277">
        <ele>1664.18</ele>
        <time>2019-03-20T14:21:20Z</time>
      </trkpt>
      <trkpt lat="45.94747" lon="6.52279">
        <ele>1664.18</ele>
        <time>2019-03-20T14:21:21Z</time>
      </trkpt>
      <trkpt lat="45.94749" lon="6.52281">
        <ele>1663.7</ele>
        <time>2019-03-20T14:21:22Z</time>
      </trkpt>
      <trkpt lat="45.94752" lon="6.52284">
        <ele>1663.7</ele>
        <time>2019-03-20T14:21:23Z</time>
      </trkpt>
      <trkpt lat="45.94796" lon="6.52304">
        <ele>1660.33</ele>
        <time>2019-03-20T14:21:41Z</time>
      </trkpt>
      <trkpt lat="45.94809" lon="6.52313">
        <ele>1657.45</ele>
        <time>2019-03-20T14:21:45Z</time>
      </trkpt>
      <trkpt lat="45.94813" lon="6.52315">
        <ele>1656.97</ele>
        <time>2019-03-20T14:22:17Z</time>
      </trkpt>
      <trkpt lat="45.94815" lon="6.52315">
        <ele>1656.97</ele>
        <time>2019-03-20T14:22:18Z</time>
      </trkpt>
      <trkpt lat="45.94817" lon="6.52316">
        <ele>1656.01</ele>
        <time>2019-03-20T14:22:19Z</time>
      </trkpt>
      <trkpt lat="45.9482" lon="6.52317">
        <ele>1655.05</ele>
        <time>2019-03-20T14:22:20Z</time>
      </trkpt>
      <trkpt lat="45.94822" lon="6.52319">
        <ele>1654.57</ele>
        <time>2019-03-20T14:22:21Z</time>
      </trkpt>
      <trkpt lat="45.94834" lon="6.52332">
        <ele>1651.2</ele>
        <time>2019-03-20T14:22:26Z</time>
      </trkpt>
      <trkpt lat="45.94836" lon="6.5233">
        <ele>1650.24</ele>
        <time>2019-03-20T14:22:27Z</time>
      </trkpt>
      <trkpt lat="45.94839" lon="6.52326">
        <ele>1649.28</ele>
        <time>2019-03-20T14:22:28Z</time>
      </trkpt>
      <trkpt lat="45.94843" lon="6.52323">
        <ele>1648.32</ele>
        <time>2019-03-20T14:22:29Z</time>
      </trkpt>
      <trkpt lat="45.94846" lon="6.52321">
        <ele>1646.4</ele>
        <time>2019-03-20T14:22:30Z</time>
      </trkpt>
      <trkpt lat="45.9485" lon="6.52318">
        <ele>1644.47</ele>
        <time>2019-03-20T14:22:31Z</time>
      </trkpt>
      <trkpt lat="45.94853" lon="6.52317">
        <ele>1643.03</ele>
        <time>2019-03-20T14:22:32Z</time>
      </trkpt>
      <trkpt lat="45.94855" lon="6.52314">
        <ele>1641.59</ele>
        <time>2019-03-20T14:22:33Z</time>
      </trkpt>
      <trkpt lat="45.94857" lon="6.52311">
        <ele>1639.67</ele>
        <time>2019-03-20T14:22:34Z</time>
      </trkpt>
      <trkpt lat="45.94859" lon="6.52308">
        <ele>1638.22</ele>
        <time>2019-03-20T14:22:35Z</time>
      </trkpt>
      <trkpt lat="45.94862" lon="6.52305">
        <ele>1636.3</ele>
        <time>2019-03-20T14:22:36Z</time>
      </trkpt>
      <trkpt lat="45.94864" lon="6.523">
        <ele>1634.38</ele>
        <time>2019-03-20T14:22:37Z</time>
      </trkpt>
      <trkpt lat="45.94867" lon="6.52297">
        <ele>1631.98</ele>
        <time>2019-03-20T14:22:38Z</time>
      </trkpt>
      <trkpt lat="45.94869" lon="6.52292">
        <ele>1630.53</ele>
        <time>2019-03-20T14:22:39Z</time>
      </trkpt>
      <trkpt lat="45.9487" lon="6.52288">
        <ele>1628.61</ele>
        <time>2019-03-20T14:22:40Z</time>
      </trkpt>
      <trkpt lat="45.94872" lon="6.52284">
        <ele>1627.17</ele>
        <time>2019-03-20T14:22:41Z</time>
      </trkpt>
      <trkpt lat="45.94874" lon="6.52282">
        <ele>1626.21</ele>
        <time>2019-03-20T14:22:42Z</time>
      </trkpt>
      <trkpt lat="45.94877" lon="6.52281">
        <ele>1623.8</ele>
        <time>2019-03-20T14:22:43Z</time>
      </trkpt>
      <trkpt lat="45.9488" lon="6.52278">
        <ele>1622.84</ele>
        <time>2019-03-20T14:22:44Z</time>
      </trkpt>
      <trkpt lat="45.94882" lon="6.52272">
        <ele>1620.44</ele>
        <time>2019-03-20T14:22:45Z</time>
      </trkpt>
      <trkpt lat="45.94885" lon="6.52269">
        <ele>1618.04</ele>
        <time>2019-03-20T14:22:46Z</time>
      </trkpt>
      <trkpt lat="45.94888" lon="6.52267">
        <ele>1616.11</ele>
        <time>2019-03-20T14:22:47Z</time>
      </trkpt>
      <trkpt lat="45.94891" lon="6.52264">
        <ele>1615.15</ele>
        <time>2019-03-20T14:22:48Z</time>
      </trkpt>
      <trkpt lat="45.94894" lon="6.52261">
        <ele>1613.71</ele>
        <time>2019-03-20T14:22:49Z</time>
      </trkpt>
      <trkpt lat="45.949" lon="6.52255">
        <ele>1609.86</ele>
        <time>2019-03-20T14:22:51Z</time>
      </trkpt>
      <trkpt lat="45.94901" lon="6.5225">
        <ele>1608.42</ele>
        <time>2019-03-20T14:22:52Z</time>
      </trkpt>
      <trkpt lat="45.94902" lon="6.52244">
        <ele>1606.98</ele>
        <time>2019-03-20T14:22:53Z</time>
      </trkpt>
      <trkpt lat="45.94905" lon="6.5224">
        <ele>1606.02</ele>
        <time>2019-03-20T14:22:54Z</time>
      </trkpt>
      <trkpt lat="45.94908" lon="6.52238">
        <ele>1604.1</ele>
        <time>2019-03-20T14:22:55Z</time>
      </trkpt>
      <trkpt lat="45.94912" lon="6.52238">
        <ele>1603.14</ele>
        <time>2019-03-20T14:22:56Z</time>
      </trkpt>
      <trkpt lat="45.94913" lon="6.52239">
        <ele>1602.17</ele>
        <time>2019-03-20T14:22:57Z</time>
      </trkpt>
      <trkpt lat="45.94914" lon="6.5224">
        <ele>1601.69</ele>
        <time>2019-03-20T14:22:59Z</time>
      </trkpt>
      <trkpt lat="45.94915" lon="6.52241">
        <ele>1601.21</ele>
        <time>2019-03-20T14:23:02Z</time>
      </trkpt>
      <trkpt lat="45.94918" lon="6.52239">
        <ele>1600.73</ele>
        <time>2019-03-20T14:23:03Z</time>
      </trkpt>
      <trkpt lat="45.94921" lon="6.52238">
        <ele>1599.77</ele>
        <time>2019-03-20T14:23:04Z</time>
      </trkpt>
      <trkpt lat="45.94923" lon="6.52239">
        <ele>1599.29</ele>
        <time>2019-03-20T14:23:05Z</time>
      </trkpt>
      <trkpt lat="45.94926" lon="6.5224">
        <ele>1597.85</ele>
        <time>2019-03-20T14:23:06Z</time>
      </trkpt>
      <trkpt lat="45.94929" lon="6.52243">
        <ele>1596.89</ele>
        <time>2019-03-20T14:23:07Z</time>
      </trkpt>
      <trkpt lat="45.94931" lon="6.52246">
        <ele>1594.96</ele>
        <time>2019-03-20T14:23:08Z</time>
      </trkpt>
      <trkpt lat="45.94938" lon="6.52255">
        <ele>1591.12</ele>
        <time>2019-03-20T14:23:11Z</time>
      </trkpt>
      <trkpt lat="45.94941" lon="6.52257">
        <ele>1590.16</ele>
        <time>2019-03-20T14:23:12Z</time>
      </trkpt>
      <trkpt lat="45.94944" lon="6.5226">
        <ele>1588.72</ele>
        <time>2019-03-20T14:23:13Z</time>
      </trkpt>
      <trkpt lat="45.94946" lon="6.52263">
        <ele>1587.75</ele>
        <time>2019-03-20T14:23:14Z</time>
      </trkpt>
      <trkpt lat="45.94948" lon="6.52263">
        <ele>1587.27</ele>
        <time>2019-03-20T14:23:15Z</time>
      </trkpt>
      <trkpt lat="45.94951" lon="6.52262">
        <ele>1586.79</ele>
        <time>2019-03-20T14:23:16Z</time>
      </trkpt>
      <trkpt lat="45.94954" lon="6.52264">
        <ele>1585.83</ele>
        <time>2019-03-20T14:23:17Z</time>
      </trkpt>
      <trkpt lat="45.94955" lon="6.52266">
        <ele>1585.35</ele>
        <time>2019-03-20T14:23:18Z</time>
      </trkpt>
      <trkpt lat="45.94957" lon="6.52267">
        <ele>1584.39</ele>
        <time>2019-03-20T14:23:19Z</time>
      </trkpt>
      <trkpt lat="45.94959" lon="6.52269">
        <ele>1584.39</ele>
        <time>2019-03-20T14:23:20Z</time>
      </trkpt>
      <trkpt lat="45.94964" lon="6.52272">
        <ele>1582.47</ele>
        <time>2019-03-20T14:23:22Z</time>
      </trkpt>
      <trkpt lat="45.94968" lon="6.52273">
        <ele>1581.51</ele>
        <time>2019-03-20T14:23:23Z</time>
      </trkpt>
      <trkpt lat="45.94971" lon="6.52275">
        <ele>1580.06</ele>
        <time>2019-03-20T14:23:24Z</time>
      </trkpt>
      <trkpt lat="45.94974" lon="6.52277">
        <ele>1579.1</ele>
        <time>2019-03-20T14:23:25Z</time>
      </trkpt>
      <trkpt lat="45.94978" lon="6.52278">
        <ele>1578.62</ele>
        <time>2019-03-20T14:23:26Z</time>
      </trkpt>
      <trkpt lat="45.94982" lon="6.52279">
        <ele>1578.14</ele>
        <time>2019-03-20T14:23:27Z</time>
      </trkpt>
      <trkpt lat="45.94984" lon="6.52279">
        <ele>1577.66</ele>
        <time>2019-03-20T14:23:28Z</time>
      </trkpt>
      <trkpt lat="45.94985" lon="6.5228">
        <ele>1577.18</ele>
        <time>2019-03-20T14:23:29Z</time>
      </trkpt>
      <trkpt lat="45.94989" lon="6.52282">
        <ele>1575.74</ele>
        <time>2019-03-20T14:23:35Z</time>
      </trkpt>
      <trkpt lat="45.9499" lon="6.52284">
        <ele>1575.74</ele>
        <time>2019-03-20T14:23:36Z</time>
      </trkpt>
      <trkpt lat="45.94991" lon="6.52286">
        <ele>1575.26</ele>
        <time>2019-03-20T14:23:37Z</time>
      </trkpt>
      <trkpt lat="45.94991" lon="6.52288">
        <ele>1574.78</ele>
        <time>2019-03-20T14:23:38Z</time>
      </trkpt>
      <trkpt lat="45.94992" lon="6.5229">
        <ele>1574.3</ele>
        <time>2019-03-20T14:23:39Z</time>
      </trkpt>
      <trkpt lat="45.94993" lon="6.52293">
        <ele>1573.33</ele>
        <time>2019-03-20T14:23:43Z</time>
      </trkpt>
      <trkpt lat="45.94996" lon="6.52297">
        <ele>1572.37</ele>
        <time>2019-03-20T14:23:50Z</time>
      </trkpt>
      <trkpt lat="45.94998" lon="6.52301">
        <ele>1571.89</ele>
        <time>2019-03-20T14:23:51Z</time>
      </trkpt>
      <trkpt lat="45.95" lon="6.52306">
        <ele>1570.93</ele>
        <time>2019-03-20T14:23:52Z</time>
      </trkpt>
      <trkpt lat="45.95004" lon="6.52313">
        <ele>1569.01</ele>
        <time>2019-03-20T14:23:53Z</time>
      </trkpt>
      <trkpt lat="45.95008" lon="6.52322">
        <ele>1567.57</ele>
        <time>2019-03-20T14:23:54Z</time>
      </trkpt>
      <trkpt lat="45.95012" lon="6.52329">
        <ele>1565.16</ele>
        <time>2019-03-20T14:23:55Z</time>
      </trkpt>
      <trkpt lat="45.95017" lon="6.52336">
        <ele>1564.2</ele>
        <time>2019-03-20T14:23:57Z</time>
      </trkpt>
      <trkpt lat="45.95024" lon="6.52335">
        <ele>1564.2</ele>
        <time>2019-03-20T14:24:09Z</time>
      </trkpt>
      <trkpt lat="45.95025" lon="6.52334">
        <ele>1562.76</ele>
        <time>2019-03-20T14:24:10Z</time>
      </trkpt>
      <trkpt lat="45.95026" lon="6.52333">
        <ele>1561.8</ele>
        <time>2019-03-20T14:24:11Z</time>
      </trkpt>
      <trkpt lat="45.95027" lon="6.5233">
        <ele>1560.84</ele>
        <time>2019-03-20T14:24:12Z</time>
      </trkpt>
      <trkpt lat="45.95029" lon="6.52329">
        <ele>1559.88</ele>
        <time>2019-03-20T14:24:13Z</time>
      </trkpt>
      <trkpt lat="45.95032" lon="6.52328">
        <ele>1556.99</ele>
        <time>2019-03-20T14:24:17Z</time>
      </trkpt>
      <trkpt lat="45.95033" lon="6.5233">
        <ele>1556.99</ele>
        <time>2019-03-20T14:24:18Z</time>
      </trkpt>
      <trkpt lat="45.95036" lon="6.52334">
        <ele>1555.55</ele>
        <time>2019-03-20T14:24:25Z</time>
      </trkpt>
      <trkpt lat="45.95036" lon="6.52334">
        <ele>1555.55</ele>
        <time>2019-03-20T14:24:26Z</time>
      </trkpt>
      <trkpt lat="45.95038" lon="6.52336">
        <ele>1555.55</ele>
        <time>2019-03-20T14:24:27Z</time>
      </trkpt>
      <trkpt lat="45.95039" lon="6.52338">
        <ele>1555.55</ele>
        <time>2019-03-20T14:24:28Z</time>
      </trkpt>
      <trkpt lat="45.95041" lon="6.5234">
        <ele>1555.55</ele>
        <time>2019-03-20T14:24:29Z</time>
      </trkpt>
      <trkpt lat="45.95043" lon="6.52342">
        <ele>1555.07</ele>
        <time>2019-03-20T14:24:30Z</time>
      </trkpt>
      <trkpt lat="45.95045" lon="6.52345">
        <ele>1554.59</ele>
        <time>2019-03-20T14:24:31Z</time>
      </trkpt>
      <trkpt lat="45.95048" lon="6.52348">
        <ele>1553.63</ele>
        <time>2019-03-20T14:24:32Z</time>
      </trkpt>
      <trkpt lat="45.95051" lon="6.52351">
        <ele>1552.67</ele>
        <time>2019-03-20T14:24:33Z</time>
      </trkpt>
      <trkpt lat="45.95055" lon="6.52354">
        <ele>1551.71</ele>
        <time>2019-03-20T14:24:34Z</time>
      </trkpt>
      <trkpt lat="45.9506" lon="6.52361">
        <ele>1550.74</ele>
        <time>2019-03-20T14:24:36Z</time>
      </trkpt>
      <trkpt lat="45.95103" lon="6.52381">
        <ele>1547.38</ele>
        <time>2019-03-20T14:24:49Z</time>
      </trkpt>
      <trkpt lat="45.95109" lon="6.52385">
        <ele>1545.46</ele>
        <time>2019-03-20T14:24:51Z</time>
      </trkpt>
      <trkpt lat="45.95112" lon="6.52388">
        <ele>1544.98</ele>
        <time>2019-03-20T14:24:52Z</time>
      </trkpt>
      <trkpt lat="45.95116" lon="6.52394">
        <ele>1544.01</ele>
        <time>2019-03-20T14:24:54Z</time>
      </trkpt>
      <trkpt lat="45.95132" lon="6.52412">
        <ele>1540.65</ele>
        <time>2019-03-20T14:25:00Z</time>
      </trkpt>
      <trkpt lat="45.95151" lon="6.52427">
        <ele>1540.65</ele>
        <time>2019-03-20T14:25:14Z</time>
      </trkpt>
      <trkpt lat="45.95159" lon="6.52428">
        <ele>1538.73</ele>
        <time>2019-03-20T14:25:17Z</time>
      </trkpt>
      <trkpt lat="45.95159" lon="6.52424">
        <ele>1538.73</ele>
        <time>2019-03-20T14:25:24Z</time>
      </trkpt>
      <trkpt lat="45.95158" lon="6.52421">
        <ele>1537.77</ele>
        <time>2019-03-20T14:25:25Z</time>
      </trkpt>
      <trkpt lat="45.95158" lon="6.52412">
        <ele>1535.84</ele>
        <time>2019-03-20T14:25:27Z</time>
      </trkpt>
      <trkpt lat="45.9516" lon="6.52408">
        <ele>1533.92</ele>
        <time>2019-03-20T14:25:28Z</time>
      </trkpt>
      <trkpt lat="45.95161" lon="6.52404">
        <ele>1532.96</ele>
        <time>2019-03-20T14:25:29Z</time>
      </trkpt>
      <trkpt lat="45.9516" lon="6.524">
        <ele>1531.52</ele>
        <time>2019-03-20T14:25:30Z</time>
      </trkpt>
      <trkpt lat="45.95157" lon="6.52397">
        <ele>1530.56</ele>
        <time>2019-03-20T14:25:31Z</time>
      </trkpt>
      <trkpt lat="45.95156" lon="6.52393">
        <ele>1529.59</ele>
        <time>2019-03-20T14:25:32Z</time>
      </trkpt>
      <trkpt lat="45.95157" lon="6.52388">
        <ele>1528.15</ele>
        <time>2019-03-20T14:25:33Z</time>
      </trkpt>
      <trkpt lat="45.95159" lon="6.52385">
        <ele>1526.23</ele>
        <time>2019-03-20T14:25:34Z</time>
      </trkpt>
      <trkpt lat="45.9516" lon="6.52381">
        <ele>1525.75</ele>
        <time>2019-03-20T14:25:35Z</time>
      </trkpt>
      <trkpt lat="45.95161" lon="6.52378">
        <ele>1524.31</ele>
        <time>2019-03-20T14:25:36Z</time>
      </trkpt>
      <trkpt lat="45.95162" lon="6.52375">
        <ele>1522.39</ele>
        <time>2019-03-20T14:25:37Z</time>
      </trkpt>
      <trkpt lat="45.95164" lon="6.52374">
        <ele>1520.94</ele>
        <time>2019-03-20T14:25:38Z</time>
      </trkpt>
      <trkpt lat="45.95165" lon="6.52373">
        <ele>1519.98</ele>
        <time>2019-03-20T14:25:39Z</time>
      </trkpt>
      <trkpt lat="45.95166" lon="6.52372">
        <ele>1519.5</ele>
        <time>2019-03-20T14:25:40Z</time>
      </trkpt>
      <trkpt lat="45.95166" lon="6.5237">
        <ele>1519.02</ele>
        <time>2019-03-20T14:25:41Z</time>
      </trkpt>
      <trkpt lat="45.95166" lon="6.52368">
        <ele>1518.54</ele>
        <time>2019-03-20T14:25:42Z</time>
      </trkpt>
      <trkpt lat="45.95166" lon="6.52365">
        <ele>1517.1</ele>
        <time>2019-03-20T14:25:43Z</time>
      </trkpt>
      <trkpt lat="45.95167" lon="6.52363">
        <ele>1515.66</ele>
        <time>2019-03-20T14:25:44Z</time>
      </trkpt>
      <trkpt lat="45.95168" lon="6.52362">
        <ele>1514.21</ele>
        <time>2019-03-20T14:25:45Z</time>
      </trkpt>
      <trkpt lat="45.95168" lon="6.52362">
        <ele>1513.25</ele>
        <time>2019-03-20T14:25:47Z</time>
      </trkpt>
      <trkpt lat="45.95166" lon="6.52356">
        <ele>1512.77</ele>
        <time>2019-03-20T14:25:49Z</time>
      </trkpt>
      <trkpt lat="45.95165" lon="6.52353">
        <ele>1512.29</ele>
        <time>2019-03-20T14:25:50Z</time>
      </trkpt>
      <trkpt lat="45.95166" lon="6.5235">
        <ele>1510.37</ele>
        <time>2019-03-20T14:25:51Z</time>
      </trkpt>
      <trkpt lat="45.95168" lon="6.52346">
        <ele>1508.45</ele>
        <time>2019-03-20T14:25:52Z</time>
      </trkpt>
      <trkpt lat="45.95168" lon="6.52342">
        <ele>1507</ele>
        <time>2019-03-20T14:25:53Z</time>
      </trkpt>
      <trkpt lat="45.95168" lon="6.52338">
        <ele>1504.6</ele>
        <time>2019-03-20T14:25:54Z</time>
      </trkpt>
      <trkpt lat="45.95169" lon="6.52334">
        <ele>1502.68</ele>
        <time>2019-03-20T14:25:55Z</time>
      </trkpt>
      <trkpt lat="45.95171" lon="6.52332">
        <ele>1501.24</ele>
        <time>2019-03-20T14:25:56Z</time>
      </trkpt>
      <trkpt lat="45.95173" lon="6.5233">
        <ele>1499.79</ele>
        <time>2019-03-20T14:25:57Z</time>
      </trkpt>
      <trkpt lat="45.95172" lon="6.52327">
        <ele>1497.87</ele>
        <time>2019-03-20T14:25:58Z</time>
      </trkpt>
      <trkpt lat="45.95173" lon="6.52323">
        <ele>1496.43</ele>
        <time>2019-03-20T14:25:59Z</time>
      </trkpt>
      <trkpt lat="45.95174" lon="6.52321">
        <ele>1494.51</ele>
        <time>2019-03-20T14:26:00Z</time>
      </trkpt>
      <trkpt lat="45.95174" lon="6.52317">
        <ele>1492.58</ele>
        <time>2019-03-20T14:26:01Z</time>
      </trkpt>
      <trkpt lat="45.95175" lon="6.52312">
        <ele>1490.66</ele>
        <time>2019-03-20T14:26:02Z</time>
      </trkpt>
      <trkpt lat="45.95176" lon="6.52309">
        <ele>1489.7</ele>
        <time>2019-03-20T14:26:03Z</time>
      </trkpt>
      <trkpt lat="45.95177" lon="6.52304">
        <ele>1488.26</ele>
        <time>2019-03-20T14:26:04Z</time>
      </trkpt>
      <trkpt lat="45.95177" lon="6.52299">
        <ele>1486.34</ele>
        <time>2019-03-20T14:26:05Z</time>
      </trkpt>
      <trkpt lat="45.95178" lon="6.52293">
        <ele>1484.41</ele>
        <time>2019-03-20T14:26:06Z</time>
      </trkpt>
      <trkpt lat="45.9518" lon="6.52288">
        <ele>1482.49</ele>
        <time>2019-03-20T14:26:07Z</time>
      </trkpt>
      <trkpt lat="45.95182" lon="6.52283">
        <ele>1480.57</ele>
        <time>2019-03-20T14:26:08Z</time>
      </trkpt>
      <trkpt lat="45.95185" lon="6.52278">
        <ele>1479.13</ele>
        <time>2019-03-20T14:26:09Z</time>
      </trkpt>
      <trkpt lat="45.95184" lon="6.52273">
        <ele>1478.16</ele>
        <time>2019-03-20T14:26:10Z</time>
      </trkpt>
      <trkpt lat="45.95182" lon="6.5227">
        <ele>1477.2</ele>
        <time>2019-03-20T14:26:11Z</time>
      </trkpt>
      <trkpt lat="45.95179" lon="6.52266">
        <ele>1475.76</ele>
        <time>2019-03-20T14:26:12Z</time>
      </trkpt>
      <trkpt lat="45.95177" lon="6.52264">
        <ele>1473.84</ele>
        <time>2019-03-20T14:26:13Z</time>
      </trkpt>
      <trkpt lat="45.95176" lon="6.52261">
        <ele>1472.4</ele>
        <time>2019-03-20T14:26:14Z</time>
      </trkpt>
      <trkpt lat="45.95173" lon="6.52261">
        <ele>1471.44</ele>
        <time>2019-03-20T14:26:15Z</time>
      </trkpt>
      <trkpt lat="45.95171" lon="6.52262">
        <ele>1470.95</ele>
        <time>2019-03-20T14:26:16Z</time>
      </trkpt>
      <trkpt lat="45.95169" lon="6.52264">
        <ele>1470.47</ele>
        <time>2019-03-20T14:26:17Z</time>
      </trkpt>
      <trkpt lat="45.95152" lon="6.52272">
        <ele>1466.63</ele>
        <time>2019-03-20T14:26:24Z</time>
      </trkpt>
      <trkpt lat="45.95148" lon="6.52272">
        <ele>1465.67</ele>
        <time>2019-03-20T14:26:25Z</time>
      </trkpt>
      <trkpt lat="45.95145" lon="6.52271">
        <ele>1465.19</ele>
        <time>2019-03-20T14:26:26Z</time>
      </trkpt>
      <trkpt lat="45.95135" lon="6.52264">
        <ele>1463.26</ele>
        <time>2019-03-20T14:26:30Z</time>
      </trkpt>
      <trkpt lat="45.95137" lon="6.52261">
        <ele>1462.3</ele>
        <time>2019-03-20T14:26:31Z</time>
      </trkpt>
      <trkpt lat="45.9514" lon="6.52258">
        <ele>1460.38</ele>
        <time>2019-03-20T14:26:33Z</time>
      </trkpt>
      <trkpt lat="45.95139" lon="6.52255">
        <ele>1458.46</ele>
        <time>2019-03-20T14:26:34Z</time>
      </trkpt>
      <trkpt lat="45.95141" lon="6.52244">
        <ele>1458.46</ele>
        <time>2019-03-20T14:26:37Z</time>
      </trkpt>
      <trkpt lat="45.95141" lon="6.5224">
        <ele>1457.5</ele>
        <time>2019-03-20T14:26:38Z</time>
      </trkpt>
      <trkpt lat="45.95141" lon="6.52236">
        <ele>1453.17</ele>
        <time>2019-03-20T14:26:39Z</time>
      </trkpt>
      <trkpt lat="45.95141" lon="6.52233">
        <ele>1449.81</ele>
        <time>2019-03-20T14:26:40Z</time>
      </trkpt>
      <trkpt lat="45.95137" lon="6.52232">
        <ele>1447.88</ele>
        <time>2019-03-20T14:26:41Z</time>
      </trkpt>
      <trkpt lat="45.95135" lon="6.5223">
        <ele>1446.92</ele>
        <time>2019-03-20T14:26:42Z</time>
      </trkpt>
      <trkpt lat="45.95133" lon="6.52229">
        <ele>1445.48</ele>
        <time>2019-03-20T14:26:43Z</time>
      </trkpt>
      <trkpt lat="45.95125" lon="6.52221">
        <ele>1442.6</ele>
        <time>2019-03-20T14:26:47Z</time>
      </trkpt>
      <trkpt lat="45.95126" lon="6.52218">
        <ele>1441.63</ele>
        <time>2019-03-20T14:26:48Z</time>
      </trkpt>
      <trkpt lat="45.95127" lon="6.52217">
        <ele>1439.71</ele>
        <time>2019-03-20T14:26:49Z</time>
      </trkpt>
      <trkpt lat="45.95127" lon="6.52214">
        <ele>1438.75</ele>
        <time>2019-03-20T14:26:50Z</time>
      </trkpt>
      <trkpt lat="45.95125" lon="6.52211">
        <ele>1437.31</ele>
        <time>2019-03-20T14:26:51Z</time>
      </trkpt>
      <trkpt lat="45.95123" lon="6.52208">
        <ele>1435.87</ele>
        <time>2019-03-20T14:26:52Z</time>
      </trkpt>
      <trkpt lat="45.95124" lon="6.52204">
        <ele>1433.94</ele>
        <time>2019-03-20T14:26:53Z</time>
      </trkpt>
      <trkpt lat="45.95124" lon="6.52201">
        <ele>1432.5</ele>
        <time>2019-03-20T14:26:54Z</time>
      </trkpt>
      <trkpt lat="45.95122" lon="6.52198">
        <ele>1430.58</ele>
        <time>2019-03-20T14:26:55Z</time>
      </trkpt>
      <trkpt lat="45.95121" lon="6.52194">
        <ele>1429.14</ele>
        <time>2019-03-20T14:26:56Z</time>
      </trkpt>
      <trkpt lat="45.95121" lon="6.52191">
        <ele>1427.21</ele>
        <time>2019-03-20T14:26:57Z</time>
      </trkpt>
      <trkpt lat="45.95122" lon="6.52187">
        <ele>1425.77</ele>
        <time>2019-03-20T14:26:58Z</time>
      </trkpt>
      <trkpt lat="45.95121" lon="6.52183">
        <ele>1424.33</ele>
        <time>2019-03-20T14:26:59Z</time>
      </trkpt>
      <trkpt lat="45.95119" lon="6.5218">
        <ele>1422.41</ele>
        <time>2019-03-20T14:27:00Z</time>
      </trkpt>
      <trkpt lat="45.95119" lon="6.52179">
        <ele>1420.97</ele>
        <time>2019-03-20T14:27:01Z</time>
      </trkpt>
      <trkpt lat="45.95109" lon="6.5217">
        <ele>1418.08</ele>
        <time>2019-03-20T14:27:05Z</time>
      </trkpt>
      <trkpt lat="45.95105" lon="6.52167">
        <ele>1416.64</ele>
        <time>2019-03-20T14:27:07Z</time>
      </trkpt>
      <trkpt lat="45.95105" lon="6.52164">
        <ele>1415.68</ele>
        <time>2019-03-20T14:27:08Z</time>
      </trkpt>
      <trkpt lat="45.95107" lon="6.52162">
        <ele>1414.72</ele>
        <time>2019-03-20T14:27:09Z</time>
      </trkpt>
      <trkpt lat="45.95109" lon="6.52161">
        <ele>1413.28</ele>
        <time>2019-03-20T14:27:10Z</time>
      </trkpt>
      <trkpt lat="45.95111" lon="6.52158">
        <ele>1412.31</ele>
        <time>2019-03-20T14:27:11Z</time>
      </trkpt>
      <trkpt lat="45.9511" lon="6.52155">
        <ele>1411.83</ele>
        <time>2019-03-20T14:27:12Z</time>
      </trkpt>
      <trkpt lat="45.95109" lon="6.52151">
        <ele>1409.91</ele>
        <time>2019-03-20T14:27:13Z</time>
      </trkpt>
      <trkpt lat="45.9511" lon="6.52148">
        <ele>1407.99</ele>
        <time>2019-03-20T14:27:14Z</time>
      </trkpt>
      <trkpt lat="45.9511" lon="6.52144">
        <ele>1406.07</ele>
        <time>2019-03-20T14:27:15Z</time>
      </trkpt>
      <trkpt lat="45.95108" lon="6.5214">
        <ele>1404.62</ele>
        <time>2019-03-20T14:27:16Z</time>
      </trkpt>
      <trkpt lat="45.95105" lon="6.52138">
        <ele>1403.18</ele>
        <time>2019-03-20T14:27:17Z</time>
      </trkpt>
      <trkpt lat="45.95104" lon="6.52137">
        <ele>1402.7</ele>
        <time>2019-03-20T14:27:18Z</time>
      </trkpt>
      <trkpt lat="45.95102" lon="6.52135">
        <ele>1402.22</ele>
        <time>2019-03-20T14:27:19Z</time>
      </trkpt>
      <trkpt lat="45.95101" lon="6.52134">
        <ele>1401.26</ele>
        <time>2019-03-20T14:27:20Z</time>
      </trkpt>
      <trkpt lat="45.95102" lon="6.52131">
        <ele>1400.78</ele>
        <time>2019-03-20T14:27:21Z</time>
      </trkpt>
      <trkpt lat="45.95104" lon="6.52129">
        <ele>1399.82</ele>
        <time>2019-03-20T14:27:22Z</time>
      </trkpt>
      <trkpt lat="45.95106" lon="6.52128">
        <ele>1397.89</ele>
        <time>2019-03-20T14:27:23Z</time>
      </trkpt>
      <trkpt lat="45.95107" lon="6.52125">
        <ele>1395.97</ele>
        <time>2019-03-20T14:27:25Z</time>
      </trkpt>
      <trkpt lat="45.95106" lon="6.52122">
        <ele>1395.01</ele>
        <time>2019-03-20T14:27:26Z</time>
      </trkpt>
      <trkpt lat="45.95105" lon="6.52118">
        <ele>1393.57</ele>
        <time>2019-03-20T14:27:27Z</time>
      </trkpt>
      <trkpt lat="45.95102" lon="6.52114">
        <ele>1393.09</ele>
        <time>2019-03-20T14:27:28Z</time>
      </trkpt>
      <trkpt lat="45.951" lon="6.52112">
        <ele>1391.17</ele>
        <time>2019-03-20T14:27:29Z</time>
      </trkpt>
      <trkpt lat="45.951" lon="6.5211">
        <ele>1390.2</ele>
        <time>2019-03-20T14:27:30Z</time>
      </trkpt>
      <trkpt lat="45.951" lon="6.52107">
        <ele>1389.24</ele>
        <time>2019-03-20T14:27:31Z</time>
      </trkpt>
      <trkpt lat="45.95102" lon="6.52106">
        <ele>1387.8</ele>
        <time>2019-03-20T14:27:33Z</time>
      </trkpt>
      <trkpt lat="45.95103" lon="6.52105">
        <ele>1387.32</ele>
        <time>2019-03-20T14:27:35Z</time>
      </trkpt>
      <trkpt lat="45.95105" lon="6.52102">
        <ele>1385.4</ele>
        <time>2019-03-20T14:27:38Z</time>
      </trkpt>
      <trkpt lat="45.95106" lon="6.52099">
        <ele>1383.96</ele>
        <time>2019-03-20T14:27:40Z</time>
      </trkpt>
      <trkpt lat="45.95106" lon="6.52097">
        <ele>1382.99</ele>
        <time>2019-03-20T14:27:41Z</time>
      </trkpt>
      <trkpt lat="45.95107" lon="6.52095">
        <ele>1382.03</ele>
        <time>2019-03-20T14:27:42Z</time>
      </trkpt>
      <trkpt lat="45.95107" lon="6.52093">
        <ele>1380.59</ele>
        <time>2019-03-20T14:27:43Z</time>
      </trkpt>
      <trkpt lat="45.95107" lon="6.52092">
        <ele>1380.11</ele>
        <time>2019-03-20T14:27:44Z</time>
      </trkpt>
      <trkpt lat="45.95107" lon="6.52092">
        <ele>1378.19</ele>
        <time>2019-03-20T14:27:47Z</time>
      </trkpt>
      <trkpt lat="45.951" lon="6.52078">
        <ele>1375.3</ele>
        <time>2019-03-20T14:28:00Z</time>
      </trkpt>
      <trkpt lat="45.95101" lon="6.52072">
        <ele>1372.42</ele>
        <time>2019-03-20T14:28:06Z</time>
      </trkpt>
      <trkpt lat="45.95102" lon="6.52071">
        <ele>1371.46</ele>
        <time>2019-03-20T14:28:07Z</time>
      </trkpt>
      <trkpt lat="45.95102" lon="6.5207">
        <ele>1370.98</ele>
        <time>2019-03-20T14:28:08Z</time>
      </trkpt>
      <trkpt lat="45.95107" lon="6.52065">
        <ele>1368.09</ele>
        <time>2019-03-20T14:28:17Z</time>
      </trkpt>
      <trkpt lat="45.95111" lon="6.52063">
        <ele>1364.73</ele>
        <time>2019-03-20T14:28:22Z</time>
      </trkpt>
      <trkpt lat="45.95112" lon="6.52064">
        <ele>1364.25</ele>
        <time>2019-03-20T14:28:23Z</time>
      </trkpt>
      <trkpt lat="45.95113" lon="6.52065">
        <ele>1363.77</ele>
        <time>2019-03-20T14:28:24Z</time>
      </trkpt>
      <trkpt lat="45.95114" lon="6.52066">
        <ele>1362.81</ele>
        <time>2019-03-20T14:28:26Z</time>
      </trkpt>
      <trkpt lat="45.9512" lon="6.52066">
        <ele>1360.4</ele>
        <time>2019-03-20T14:28:37Z</time>
      </trkpt>
      <trkpt lat="45.95122" lon="6.52068">
        <ele>1360.4</ele>
        <time>2019-03-20T14:28:39Z</time>
      </trkpt>
      <trkpt lat="45.95136" lon="6.52072">
        <ele>1357.04</ele>
        <time>2019-03-20T14:28:50Z</time>
      </trkpt>
      <trkpt lat="45.95151" lon="6.52068">
        <ele>1353.67</ele>
        <time>2019-03-20T14:28:59Z</time>
      </trkpt>
      <trkpt lat="45.95152" lon="6.52064">
        <ele>1352.71</ele>
        <time>2019-03-20T14:29:02Z</time>
      </trkpt>
      <trkpt lat="45.95151" lon="6.52061">
        <ele>1352.23</ele>
        <time>2019-03-20T14:29:03Z</time>
      </trkpt>
      <trkpt lat="45.95152" lon="6.52058">
        <ele>1350.79</ele>
        <time>2019-03-20T14:29:04Z</time>
      </trkpt>
      <trkpt lat="45.95154" lon="6.52056">
        <ele>1349.83</ele>
        <time>2019-03-20T14:29:05Z</time>
      </trkpt>
      <trkpt lat="45.95155" lon="6.52053">
        <ele>1348.87</ele>
        <time>2019-03-20T14:29:06Z</time>
      </trkpt>
      <trkpt lat="45.95156" lon="6.52049">
        <ele>1347.91</ele>
        <time>2019-03-20T14:29:07Z</time>
      </trkpt>
      <trkpt lat="45.95157" lon="6.52047">
        <ele>1346.46</ele>
        <time>2019-03-20T14:29:08Z</time>
      </trkpt>
      <trkpt lat="45.95158" lon="6.52043">
        <ele>1344.54</ele>
        <time>2019-03-20T14:29:09Z</time>
      </trkpt>
      <trkpt lat="45.95157" lon="6.52038">
        <ele>1343.58</ele>
        <time>2019-03-20T14:29:10Z</time>
      </trkpt>
      <trkpt lat="45.95158" lon="6.52035">
        <ele>1341.18</ele>
        <time>2019-03-20T14:29:11Z</time>
      </trkpt>
      <trkpt lat="45.9516" lon="6.52032">
        <ele>1339.25</ele>
        <time>2019-03-20T14:29:12Z</time>
      </trkpt>
      <trkpt lat="45.95163" lon="6.5203">
        <ele>1337.81</ele>
        <time>2019-03-20T14:29:13Z</time>
      </trkpt>
      <trkpt lat="45.95166" lon="6.52028">
        <ele>1336.85</ele>
        <time>2019-03-20T14:29:14Z</time>
      </trkpt>
      <trkpt lat="45.95166" lon="6.52023">
        <ele>1334.93</ele>
        <time>2019-03-20T14:29:15Z</time>
      </trkpt>
      <trkpt lat="45.95165" lon="6.52019">
        <ele>1333.97</ele>
        <time>2019-03-20T14:29:16Z</time>
      </trkpt>
      <trkpt lat="45.95163" lon="6.52017">
        <ele>1332.52</ele>
        <time>2019-03-20T14:29:17Z</time>
      </trkpt>
      <trkpt lat="45.95161" lon="6.52015">
        <ele>1331.56</ele>
        <time>2019-03-20T14:29:18Z</time>
      </trkpt>
      <trkpt lat="45.95159" lon="6.52012">
        <ele>1331.08</ele>
        <time>2019-03-20T14:29:19Z</time>
      </trkpt>
      <trkpt lat="45.95156" lon="6.52009">
        <ele>1329.64</ele>
        <time>2019-03-20T14:29:20Z</time>
      </trkpt>
      <trkpt lat="45.95155" lon="6.52005">
        <ele>1329.16</ele>
        <time>2019-03-20T14:29:21Z</time>
      </trkpt>
      <trkpt lat="45.95153" lon="6.52001">
        <ele>1328.2</ele>
        <time>2019-03-20T14:29:22Z</time>
      </trkpt>
      <trkpt lat="45.95153" lon="6.51999">
        <ele>1326.76</ele>
        <time>2019-03-20T14:29:23Z</time>
      </trkpt>
      <trkpt lat="45.95155" lon="6.51996">
        <ele>1325.31</ele>
        <time>2019-03-20T14:29:24Z</time>
      </trkpt>
      <trkpt lat="45.95158" lon="6.51995">
        <ele>1324.35</ele>
        <time>2019-03-20T14:29:25Z</time>
      </trkpt>
      <trkpt lat="45.95161" lon="6.51994">
        <ele>1323.39</ele>
        <time>2019-03-20T14:29:26Z</time>
      </trkpt>
      <trkpt lat="45.95165" lon="6.51993">
        <ele>1322.43</ele>
        <time>2019-03-20T14:29:27Z</time>
      </trkpt>
      <trkpt lat="45.95166" lon="6.51992">
        <ele>1321.95</ele>
        <time>2019-03-20T14:29:28Z</time>
      </trkpt>
      <trkpt lat="45.95167" lon="6.5199">
        <ele>1321.95</ele>
        <time>2019-03-20T14:29:29Z</time>
      </trkpt>
      <trkpt lat="45.95168" lon="6.51987">
        <ele>1320.99</ele>
        <time>2019-03-20T14:29:30Z</time>
      </trkpt>
      <trkpt lat="45.95169" lon="6.51985">
        <ele>1320.03</ele>
        <time>2019-03-20T14:29:31Z</time>
      </trkpt>
      <trkpt lat="45.95169" lon="6.51981">
        <ele>1319.07</ele>
        <time>2019-03-20T14:29:32Z</time>
      </trkpt>
      <trkpt lat="45.9517" lon="6.51976">
        <ele>1317.62</ele>
        <time>2019-03-20T14:29:33Z</time>
      </trkpt>
      <trkpt lat="45.95172" lon="6.51974">
        <ele>1316.18</ele>
        <time>2019-03-20T14:29:34Z</time>
      </trkpt>
      <trkpt lat="45.95173" lon="6.5197">
        <ele>1315.22</ele>
        <time>2019-03-20T14:29:35Z</time>
      </trkpt>
      <trkpt lat="45.95171" lon="6.51968">
        <ele>1314.74</ele>
        <time>2019-03-20T14:29:36Z</time>
      </trkpt>
      <trkpt lat="45.95168" lon="6.51965">
        <ele>1313.3</ele>
        <time>2019-03-20T14:29:37Z</time>
      </trkpt>
      <trkpt lat="45.95166" lon="6.51962">
        <ele>1312.34</ele>
        <time>2019-03-20T14:29:38Z</time>
      </trkpt>
      <trkpt lat="45.95167" lon="6.51959">
        <ele>1311.38</ele>
        <time>2019-03-20T14:29:39Z</time>
      </trkpt>
      <trkpt lat="45.95167" lon="6.51954">
        <ele>1310.41</ele>
        <time>2019-03-20T14:29:40Z</time>
      </trkpt>
      <trkpt lat="45.95167" lon="6.51949">
        <ele>1308.97</ele>
        <time>2019-03-20T14:29:41Z</time>
      </trkpt>
      <trkpt lat="45.95167" lon="6.51947">
        <ele>1308.01</ele>
        <time>2019-03-20T14:29:42Z</time>
      </trkpt>
      <trkpt lat="45.95167" lon="6.51944">
        <ele>1306.57</ele>
        <time>2019-03-20T14:29:43Z</time>
      </trkpt>
      <trkpt lat="45.95166" lon="6.5194">
        <ele>1306.09</ele>
        <time>2019-03-20T14:29:44Z</time>
      </trkpt>
      <trkpt lat="45.95165" lon="6.51936">
        <ele>1305.13</ele>
        <time>2019-03-20T14:29:45Z</time>
      </trkpt>
      <trkpt lat="45.95165" lon="6.51932">
        <ele>1303.2</ele>
        <time>2019-03-20T14:29:46Z</time>
      </trkpt>
      <trkpt lat="45.95165" lon="6.51928">
        <ele>1301.76</ele>
        <time>2019-03-20T14:29:47Z</time>
      </trkpt>
      <trkpt lat="45.95164" lon="6.51924">
        <ele>1300.8</ele>
        <time>2019-03-20T14:29:48Z</time>
      </trkpt>
      <trkpt lat="45.95162" lon="6.51921">
        <ele>1299.36</ele>
        <time>2019-03-20T14:29:49Z</time>
      </trkpt>
      <trkpt lat="45.95161" lon="6.5192">
        <ele>1298.4</ele>
        <time>2019-03-20T14:29:50Z</time>
      </trkpt>
      <trkpt lat="45.9516" lon="6.51918">
        <ele>1297.92</ele>
        <time>2019-03-20T14:29:51Z</time>
      </trkpt>
      <trkpt lat="45.95159" lon="6.51917">
        <ele>1297.44</ele>
        <time>2019-03-20T14:29:52Z</time>
      </trkpt>
      <trkpt lat="45.95159" lon="6.51915">
        <ele>1296.48</ele>
        <time>2019-03-20T14:29:53Z</time>
      </trkpt>
      <trkpt lat="45.95157" lon="6.51914">
        <ele>1295.99</ele>
        <time>2019-03-20T14:29:54Z</time>
      </trkpt>
      <trkpt lat="45.95154" lon="6.51911">
        <ele>1295.51</ele>
        <time>2019-03-20T14:29:55Z</time>
      </trkpt>
      <trkpt lat="45.9515" lon="6.51908">
        <ele>1294.55</ele>
        <time>2019-03-20T14:29:56Z</time>
      </trkpt>
      <trkpt lat="45.95147" lon="6.51905">
        <ele>1293.11</ele>
        <time>2019-03-20T14:29:57Z</time>
      </trkpt>
      <trkpt lat="45.95146" lon="6.51902">
        <ele>1292.15</ele>
        <time>2019-03-20T14:29:58Z</time>
      </trkpt>
      <trkpt lat="45.95147" lon="6.51899">
        <ele>1291.19</ele>
        <time>2019-03-20T14:29:59Z</time>
      </trkpt>
      <trkpt lat="45.95149" lon="6.51896">
        <ele>1290.23</ele>
        <time>2019-03-20T14:30:00Z</time>
      </trkpt>
      <trkpt lat="45.9515" lon="6.51894">
        <ele>1288.78</ele>
        <time>2019-03-20T14:30:01Z</time>
      </trkpt>
      <trkpt lat="45.95151" lon="6.51891">
        <ele>1287.82</ele>
        <time>2019-03-20T14:30:02Z</time>
      </trkpt>
      <trkpt lat="45.9515" lon="6.51889">
        <ele>1286.86</ele>
        <time>2019-03-20T14:30:03Z</time>
      </trkpt>
      <trkpt lat="45.95147" lon="6.51887">
        <ele>1286.38</ele>
        <time>2019-03-20T14:30:04Z</time>
      </trkpt>
      <trkpt lat="45.95145" lon="6.51884">
        <ele>1285.42</ele>
        <time>2019-03-20T14:30:05Z</time>
      </trkpt>
      <trkpt lat="45.95144" lon="6.51882">
        <ele>1284.46</ele>
        <time>2019-03-20T14:30:06Z</time>
      </trkpt>
      <trkpt lat="45.95145" lon="6.5188">
        <ele>1283.5</ele>
        <time>2019-03-20T14:30:07Z</time>
      </trkpt>
      <trkpt lat="45.95144" lon="6.51878">
        <ele>1283.02</ele>
        <time>2019-03-20T14:30:08Z</time>
      </trkpt>
      <trkpt lat="45.95143" lon="6.51877">
        <ele>1281.57</ele>
        <time>2019-03-20T14:30:09Z</time>
      </trkpt>
      <trkpt lat="45.95134" lon="6.51873">
        <ele>1278.69</ele>
        <time>2019-03-20T14:30:15Z</time>
      </trkpt>
      <trkpt lat="45.9513" lon="6.51869">
        <ele>1276.77</ele>
        <time>2019-03-20T14:30:18Z</time>
      </trkpt>
      <trkpt lat="45.95116" lon="6.51858">
        <ele>1273.4</ele>
        <time>2019-03-20T14:30:25Z</time>
      </trkpt>
      <trkpt lat="45.95113" lon="6.51853">
        <ele>1271.48</ele>
        <time>2019-03-20T14:30:28Z</time>
      </trkpt>
      <trkpt lat="45.95111" lon="6.51851">
        <ele>1271</ele>
        <time>2019-03-20T14:30:29Z</time>
      </trkpt>
      <trkpt lat="45.95105" lon="6.51843">
        <ele>1267.64</ele>
        <time>2019-03-20T14:30:35Z</time>
      </trkpt>
      <trkpt lat="45.95103" lon="6.51842">
        <ele>1267.64</ele>
        <time>2019-03-20T14:30:36Z</time>
      </trkpt>
      <trkpt lat="45.95101" lon="6.5184">
        <ele>1267.16</ele>
        <time>2019-03-20T14:30:37Z</time>
      </trkpt>
      <trkpt lat="45.95099" lon="6.51839">
        <ele>1266.67</ele>
        <time>2019-03-20T14:30:38Z</time>
      </trkpt>
      <trkpt lat="45.95097" lon="6.51836">
        <ele>1266.19</ele>
        <time>2019-03-20T14:30:39Z</time>
      </trkpt>
      <trkpt lat="45.95097" lon="6.51831">
        <ele>1265.23</ele>
        <time>2019-03-20T14:30:40Z</time>
      </trkpt>
      <trkpt lat="45.95099" lon="6.51824">
        <ele>1263.31</ele>
        <time>2019-03-20T14:30:41Z</time>
      </trkpt>
      <trkpt lat="45.95102" lon="6.51814">
        <ele>1261.39</ele>
        <time>2019-03-20T14:30:42Z</time>
      </trkpt>
      <trkpt lat="45.95105" lon="6.51803">
        <ele>1258.5</ele>
        <time>2019-03-20T14:30:43Z</time>
      </trkpt>
      <trkpt lat="45.95103" lon="6.51793">
        <ele>1256.1</ele>
        <time>2019-03-20T14:30:44Z</time>
      </trkpt>
      <trkpt lat="45.95101" lon="6.51782">
        <ele>1254.66</ele>
        <time>2019-03-20T14:30:45Z</time>
      </trkpt>
      <trkpt lat="45.95097" lon="6.51773">
        <ele>1253.7</ele>
        <time>2019-03-20T14:30:46Z</time>
      </trkpt>
      <trkpt lat="45.95093" lon="6.51764">
        <ele>1253.22</ele>
        <time>2019-03-20T14:30:47Z</time>
      </trkpt>
      <trkpt lat="45.95085" lon="6.51746">
        <ele>1249.85</ele>
        <time>2019-03-20T14:30:49Z</time>
      </trkpt>
      <trkpt lat="45.95076" lon="6.51716">
        <ele>1246.01</ele>
        <time>2019-03-20T14:30:52Z</time>
      </trkpt>
      <trkpt lat="45.95073" lon="6.51704">
        <ele>1245.04</ele>
        <time>2019-03-20T14:30:53Z</time>
      </trkpt>
      <trkpt lat="45.9507" lon="6.51692">
        <ele>1242.64</ele>
        <time>2019-03-20T14:30:54Z</time>
      </trkpt>
      <trkpt lat="45.95066" lon="6.5168">
        <ele>1241.2</ele>
        <time>2019-03-20T14:30:55Z</time>
      </trkpt>
      <trkpt lat="45.95062" lon="6.51667">
        <ele>1240.24</ele>
        <time>2019-03-20T14:30:56Z</time>
      </trkpt>
      <trkpt lat="45.95059" lon="6.51654">
        <ele>1238.32</ele>
        <time>2019-03-20T14:30:57Z</time>
      </trkpt>
      <trkpt lat="45.95055" lon="6.51642">
        <ele>1236.87</ele>
        <time>2019-03-20T14:30:58Z</time>
      </trkpt>
      <trkpt lat="45.95051" lon="6.51631">
        <ele>1234.95</ele>
        <time>2019-03-20T14:30:59Z</time>
      </trkpt>
      <trkpt lat="45.95046" lon="6.5162">
        <ele>1233.51</ele>
        <time>2019-03-20T14:31:00Z</time>
      </trkpt>
      <trkpt lat="45.9504" lon="6.51609">
        <ele>1232.07</ele>
        <time>2019-03-20T14:31:01Z</time>
      </trkpt>
      <trkpt lat="45.9503" lon="6.51589">
        <ele>1230.62</ele>
        <time>2019-03-20T14:31:03Z</time>
      </trkpt>
      <trkpt lat="45.95026" lon="6.51579">
        <ele>1230.14</ele>
        <time>2019-03-20T14:31:04Z</time>
      </trkpt>
      <trkpt lat="45.95021" lon="6.51569">
        <ele>1228.22</ele>
        <time>2019-03-20T14:31:05Z</time>
      </trkpt>
      <trkpt lat="45.95014" lon="6.5155">
        <ele>1225.34</ele>
        <time>2019-03-20T14:31:07Z</time>
      </trkpt>
      <trkpt lat="45.95006" lon="6.5151">
        <ele>1221.97</ele>
        <time>2019-03-20T14:31:11Z</time>
      </trkpt>
      <trkpt lat="45.95004" lon="6.51499">
        <ele>1220.53</ele>
        <time>2019-03-20T14:31:12Z</time>
      </trkpt>
      <trkpt lat="45.95001" lon="6.5149">
        <ele>1219.57</ele>
        <time>2019-03-20T14:31:13Z</time>
      </trkpt>
      <trkpt lat="45.94992" lon="6.51461">
        <ele>1215.24</ele>
        <time>2019-03-20T14:31:16Z</time>
      </trkpt>
      <trkpt lat="45.94985" lon="6.51444">
        <ele>1213.8</ele>
        <time>2019-03-20T14:31:18Z</time>
      </trkpt>
      <trkpt lat="45.94982" lon="6.51436">
        <ele>1214.28</ele>
        <time>2019-03-20T14:31:19Z</time>
      </trkpt>
      <trkpt lat="45.94975" lon="6.51419">
        <ele>1210.92</ele>
        <time>2019-03-20T14:31:21Z</time>
      </trkpt>
      <trkpt lat="45.94969" lon="6.51403">
        <ele>1209.48</ele>
        <time>2019-03-20T14:31:23Z</time>
      </trkpt>
      <trkpt lat="45.94955" lon="6.51355">
        <ele>1205.15</ele>
        <time>2019-03-20T14:31:29Z</time>
      </trkpt>
      <trkpt lat="45.9495" lon="6.51339">
        <ele>1201.79</ele>
        <time>2019-03-20T14:31:31Z</time>
      </trkpt>
      <trkpt lat="45.94948" lon="6.51332">
        <ele>1201.79</ele>
        <time>2019-03-20T14:31:32Z</time>
      </trkpt>
      <trkpt lat="45.94944" lon="6.51326">
        <ele>1201.79</ele>
        <time>2019-03-20T14:31:33Z</time>
      </trkpt>
      <trkpt lat="45.94939" lon="6.51322">
        <ele>1200.34</ele>
        <time>2019-03-20T14:31:34Z</time>
      </trkpt>
      <trkpt lat="45.94933" lon="6.51316">
        <ele>1198.42</ele>
        <time>2019-03-20T14:31:35Z</time>
      </trkpt>
      <trkpt lat="45.94927" lon="6.51308">
        <ele>1196.5</ele>
        <time>2019-03-20T14:31:36Z</time>
      </trkpt>
      <trkpt lat="45.94921" lon="6.513">
        <ele>1192.65</ele>
        <time>2019-03-20T14:31:37Z</time>
      </trkpt>
      <trkpt lat="45.94915" lon="6.5129">
        <ele>1189.29</ele>
        <time>2019-03-20T14:31:38Z</time>
      </trkpt>
      <trkpt lat="45.94903" lon="6.51269">
        <ele>1184</ele>
        <time>2019-03-20T14:31:40Z</time>
      </trkpt>
      <trkpt lat="45.9489" lon="6.51243">
        <ele>1181.12</ele>
        <time>2019-03-20T14:31:43Z</time>
      </trkpt>
      <trkpt lat="45.94888" lon="6.51236">
        <ele>1181.6</ele>
        <time>2019-03-20T14:31:44Z</time>
      </trkpt>
      <trkpt lat="45.94884" lon="6.51231">
        <ele>1181.6</ele>
        <time>2019-03-20T14:31:45Z</time>
      </trkpt>
      <trkpt lat="45.94879" lon="6.51227">
        <ele>1182.08</ele>
        <time>2019-03-20T14:31:46Z</time>
      </trkpt>
      <trkpt lat="45.94873" lon="6.51226">
        <ele>1181.6</ele>
        <time>2019-03-20T14:31:47Z</time>
      </trkpt>
      <trkpt lat="45.94866" lon="6.51225">
        <ele>1179.19</ele>
        <time>2019-03-20T14:31:48Z</time>
      </trkpt>
      <trkpt lat="45.94858" lon="6.51222">
        <ele>1177.27</ele>
        <time>2019-03-20T14:31:49Z</time>
      </trkpt>
      <trkpt lat="45.94851" lon="6.51221">
        <ele>1175.83</ele>
        <time>2019-03-20T14:31:50Z</time>
      </trkpt>
      <trkpt lat="45.94843" lon="6.51222">
        <ele>1173.43</ele>
        <time>2019-03-20T14:31:51Z</time>
      </trkpt>
      <trkpt lat="45.94837" lon="6.51221">
        <ele>1171.02</ele>
        <time>2019-03-20T14:31:52Z</time>
      </trkpt>
      <trkpt lat="45.94831" lon="6.5122">
        <ele>1169.58</ele>
        <time>2019-03-20T14:31:53Z</time>
      </trkpt>
      <trkpt lat="45.94826" lon="6.51223">
        <ele>1168.62</ele>
        <time>2019-03-20T14:31:54Z</time>
      </trkpt>
      <trkpt lat="45.94823" lon="6.51224">
        <ele>1168.14</ele>
        <time>2019-03-20T14:31:55Z</time>
      </trkpt>
      <trkpt lat="45.9482" lon="6.51224">
        <ele>1167.18</ele>
        <time>2019-03-20T14:31:56Z</time>
      </trkpt>
      <trkpt lat="45.94819" lon="6.51224">
        <ele>1167.18</ele>
        <time>2019-03-20T14:31:57Z</time>
      </trkpt>
      <trkpt lat="45.94817" lon="6.51225">
        <ele>1167.18</ele>
        <time>2019-03-20T14:32:01Z</time>
      </trkpt>
      <trkpt lat="45.94812" lon="6.5122">
        <ele>1166.7</ele>
        <time>2019-03-20T14:32:28Z</time>
      </trkpt>
      <trkpt lat="45.94789" lon="6.51158">
        <ele>1163.81</ele>
        <time>2019-03-20T14:33:00Z</time>
      </trkpt>
      <trkpt lat="45.9478" lon="6.5113">
        <ele>1161.89</ele>
        <time>2019-03-20T14:33:05Z</time>
      </trkpt>
      <trkpt lat="45.94777" lon="6.51124">
        <ele>1161.89</ele>
        <time>2019-03-20T14:33:06Z</time>
      </trkpt>
      <trkpt lat="45.94773" lon="6.51113">
        <ele>1161.41</ele>
        <time>2019-03-20T14:33:08Z</time>
      </trkpt>
      <trkpt lat="45.9477" lon="6.51109">
        <ele>1160.93</ele>
        <time>2019-03-20T14:33:09Z</time>
      </trkpt>
      <trkpt lat="45.94752" lon="6.51081">
        <ele>1157.08</ele>
        <time>2019-03-20T14:33:16Z</time>
      </trkpt>
      <trkpt lat="45.94743" lon="6.51065">
        <ele>1157.08</ele>
        <time>2019-03-20T14:33:19Z</time>
      </trkpt>
      <trkpt lat="45.94719" lon="6.51009">
        <ele>1153.72</ele>
        <time>2019-03-20T14:33:28Z</time>
      </trkpt>
      <trkpt lat="45.94707" lon="6.50977">
        <ele>1150.35</ele>
        <time>2019-03-20T14:33:33Z</time>
      </trkpt>
      <trkpt lat="45.94698" lon="6.5095">
        <ele>1146.99</ele>
        <time>2019-03-20T14:33:36Z</time>
      </trkpt>
      <trkpt lat="45.94688" lon="6.50921">
        <ele>1143.14</ele>
        <time>2019-03-20T14:33:39Z</time>
      </trkpt>
      <trkpt lat="45.94672" lon="6.5088">
        <ele>1139.3</ele>
        <time>2019-03-20T14:33:43Z</time>
      </trkpt>
      <trkpt lat="45.9466" lon="6.50853">
        <ele>1136.42</ele>
        <time>2019-03-20T14:33:46Z</time>
      </trkpt>
      <trkpt lat="45.94655" lon="6.50844">
        <ele>1134.97</ele>
        <time>2019-03-20T14:33:47Z</time>
      </trkpt>
      <trkpt lat="45.94649" lon="6.50836">
        <ele>1133.53</ele>
        <time>2019-03-20T14:33:48Z</time>
      </trkpt>
      <trkpt lat="45.94642" lon="6.50828">
        <ele>1132.09</ele>
        <time>2019-03-20T14:33:49Z</time>
      </trkpt>
      <trkpt lat="45.94635" lon="6.50821">
        <ele>1130.17</ele>
        <time>2019-03-20T14:33:50Z</time>
      </trkpt>
      <trkpt lat="45.94627" lon="6.50814">
        <ele>1128.73</ele>
        <time>2019-03-20T14:33:51Z</time>
      </trkpt>
      <trkpt lat="45.94618" lon="6.50808">
        <ele>1127.76</ele>
        <time>2019-03-20T14:33:52Z</time>
      </trkpt>
      <trkpt lat="45.94609" lon="6.50802">
        <ele>1127.76</ele>
        <time>2019-03-20T14:33:53Z</time>
      </trkpt>
      <trkpt lat="45.9459" lon="6.50788">
        <ele>1124.4</ele>
        <time>2019-03-20T14:33:55Z</time>
      </trkpt>
      <trkpt lat="45.94581" lon="6.50781">
        <ele>1124.88</ele>
        <time>2019-03-20T14:33:56Z</time>
      </trkpt>
      <trkpt lat="45.94565" lon="6.50765">
        <ele>1123.44</ele>
        <time>2019-03-20T14:33:58Z</time>
      </trkpt>
      <trkpt lat="45.94561" lon="6.50755">
        <ele>1121.52</ele>
        <time>2019-03-20T14:33:59Z</time>
      </trkpt>
      <trkpt lat="45.94557" lon="6.50746">
        <ele>1120.07</ele>
        <time>2019-03-20T14:34:00Z</time>
      </trkpt>
      <trkpt lat="45.94554" lon="6.50736">
        <ele>1120.07</ele>
        <time>2019-03-20T14:34:01Z</time>
      </trkpt>
      <trkpt lat="45.94532" lon="6.5067">
        <ele>1118.15</ele>
        <time>2019-03-20T14:34:09Z</time>
      </trkpt>
      <trkpt lat="45.94504" lon="6.50613">
        <ele>1113.82</ele>
        <time>2019-03-20T14:34:16Z</time>
      </trkpt>
      <trkpt lat="45.94501" lon="6.50605">
        <ele>1109.98</ele>
        <time>2019-03-20T14:34:17Z</time>
      </trkpt>
      <trkpt lat="45.94488" lon="6.50578">
        <ele>1107.1</ele>
        <time>2019-03-20T14:34:21Z</time>
      </trkpt>
      <trkpt lat="45.94475" lon="6.50535">
        <ele>1103.73</ele>
        <time>2019-03-20T14:34:27Z</time>
      </trkpt>
      <trkpt lat="45.94465" lon="6.50492">
        <ele>1100.37</ele>
        <time>2019-03-20T14:34:32Z</time>
      </trkpt>
      <trkpt lat="45.94461" lon="6.50477">
        <ele>1100.37</ele>
        <time>2019-03-20T14:34:34Z</time>
      </trkpt>
      <trkpt lat="45.94457" lon="6.50465">
        <ele>1102.29</ele>
        <time>2019-03-20T14:34:36Z</time>
      </trkpt>
      <trkpt lat="45.94456" lon="6.5046">
        <ele>1102.77</ele>
        <time>2019-03-20T14:34:37Z</time>
      </trkpt>
      <trkpt lat="45.94454" lon="6.50455">
        <ele>1103.73</ele>
        <time>2019-03-20T14:34:38Z</time>
      </trkpt>
      <trkpt lat="45.9445" lon="6.50444">
        <ele>1103.25</ele>
        <time>2019-03-20T14:34:40Z</time>
      </trkpt>
      <trkpt lat="45.94448" lon="6.50438">
        <ele>1103.25</ele>
        <time>2019-03-20T14:34:41Z</time>
      </trkpt>
      <trkpt lat="45.94447" lon="6.50433">
        <ele>1103.25</ele>
        <time>2019-03-20T14:34:42Z</time>
      </trkpt>
      <trkpt lat="45.94446" lon="6.50427">
        <ele>1102.77</ele>
        <time>2019-03-20T14:34:43Z</time>
      </trkpt>
      <trkpt lat="45.94444" lon="6.50422">
        <ele>1102.77</ele>
        <time>2019-03-20T14:34:44Z</time>
      </trkpt>
      <trkpt lat="45.94443" lon="6.50417">
        <ele>1102.29</ele>
        <time>2019-03-20T14:34:45Z</time>
      </trkpt>
      <trkpt lat="45.94437" lon="6.50399">
        <ele>1101.81</ele>
        <time>2019-03-20T14:34:48Z</time>
      </trkpt>
      <trkpt lat="45.94432" lon="6.50379">
        <ele>1101.33</ele>
        <time>2019-03-20T14:34:51Z</time>
      </trkpt>
      <trkpt lat="45.94431" lon="6.50373">
        <ele>1101.33</ele>
        <time>2019-03-20T14:34:52Z</time>
      </trkpt>
      <trkpt lat="45.94428" lon="6.50363">
        <ele>1101.33</ele>
        <time>2019-03-20T14:34:54Z</time>
      </trkpt>
      <trkpt lat="45.94426" lon="6.50358">
        <ele>1101.33</ele>
        <time>2019-03-20T14:34:55Z</time>
      </trkpt>
      <trkpt lat="45.94421" lon="6.50341">
        <ele>1100.85</ele>
        <time>2019-03-20T14:34:58Z</time>
      </trkpt>
      <trkpt lat="45.94419" lon="6.50329">
        <ele>1100.37</ele>
        <time>2019-03-20T14:35:00Z</time>
      </trkpt>
      <trkpt lat="45.94418" lon="6.50323">
        <ele>1100.37</ele>
        <time>2019-03-20T14:35:01Z</time>
      </trkpt>
      <trkpt lat="45.94418" lon="6.50318">
        <ele>1099.89</ele>
        <time>2019-03-20T14:35:02Z</time>
      </trkpt>
      <trkpt lat="45.94417" lon="6.50313">
        <ele>1100.37</ele>
        <time>2019-03-20T14:35:03Z</time>
      </trkpt>
      <trkpt lat="45.94416" lon="6.50308">
        <ele>1100.37</ele>
        <time>2019-03-20T14:35:04Z</time>
      </trkpt>
      <trkpt lat="45.94416" lon="6.50303">
        <ele>1099.89</ele>
        <time>2019-03-20T14:35:05Z</time>
      </trkpt>
      <trkpt lat="45.94414" lon="6.50299">
        <ele>1100.37</ele>
        <time>2019-03-20T14:35:06Z</time>
      </trkpt>
      <trkpt lat="45.94413" lon="6.50295">
        <ele>1099.89</ele>
        <time>2019-03-20T14:35:07Z</time>
      </trkpt>
      <trkpt lat="45.94411" lon="6.50291">
        <ele>1099.89</ele>
        <time>2019-03-20T14:35:08Z</time>
      </trkpt>
      <trkpt lat="45.9441" lon="6.50286">
        <ele>1099.4</ele>
        <time>2019-03-20T14:35:09Z</time>
      </trkpt>
      <trkpt lat="45.94408" lon="6.50282">
        <ele>1099.4</ele>
        <time>2019-03-20T14:35:10Z</time>
      </trkpt>
      <trkpt lat="45.94406" lon="6.50278">
        <ele>1099.4</ele>
        <time>2019-03-20T14:35:11Z</time>
      </trkpt>
      <trkpt lat="45.94404" lon="6.50274">
        <ele>1099.4</ele>
        <time>2019-03-20T14:35:12Z</time>
      </trkpt>
      <trkpt lat="45.94402" lon="6.50269">
        <ele>1099.4</ele>
        <time>2019-03-20T14:35:13Z</time>
      </trkpt>
      <trkpt lat="45.94393" lon="6.50257">
        <ele>1098.92</ele>
        <time>2019-03-20T14:35:16Z</time>
      </trkpt>
      <trkpt lat="45.9439" lon="6.50252">
        <ele>1098.92</ele>
        <time>2019-03-20T14:35:17Z</time>
      </trkpt>
      <trkpt lat="45.94387" lon="6.50247">
        <ele>1097.96</ele>
        <time>2019-03-20T14:35:18Z</time>
      </trkpt>
      <trkpt lat="45.94384" lon="6.50241">
        <ele>1097.96</ele>
        <time>2019-03-20T14:35:19Z</time>
      </trkpt>
      <trkpt lat="45.94381" lon="6.50236">
        <ele>1097.96</ele>
        <time>2019-03-20T14:35:20Z</time>
      </trkpt>
      <trkpt lat="45.94379" lon="6.50229">
        <ele>1097.96</ele>
        <time>2019-03-20T14:35:21Z</time>
      </trkpt>
      <trkpt lat="45.94375" lon="6.50223">
        <ele>1097.48</ele>
        <time>2019-03-20T14:35:22Z</time>
      </trkpt>
      <trkpt lat="45.94373" lon="6.50216">
        <ele>1097</ele>
        <time>2019-03-20T14:35:23Z</time>
      </trkpt>
      <trkpt lat="45.9437" lon="6.5021">
        <ele>1097</ele>
        <time>2019-03-20T14:35:24Z</time>
      </trkpt>
      <trkpt lat="45.94368" lon="6.50205">
        <ele>1096.52</ele>
        <time>2019-03-20T14:35:25Z</time>
      </trkpt>
      <trkpt lat="45.94365" lon="6.50199">
        <ele>1097</ele>
        <time>2019-03-20T14:35:26Z</time>
      </trkpt>
      <trkpt lat="45.94362" lon="6.50194">
        <ele>1096.52</ele>
        <time>2019-03-20T14:35:27Z</time>
      </trkpt>
      <trkpt lat="45.9436" lon="6.50188">
        <ele>1097</ele>
        <time>2019-03-20T14:35:28Z</time>
      </trkpt>
      <trkpt lat="45.94358" lon="6.50184">
        <ele>1096.04</ele>
        <time>2019-03-20T14:35:29Z</time>
      </trkpt>
      <trkpt lat="45.94329" lon="6.50132">
        <ele>1096.52</ele>
        <time>2019-03-20T14:35:43Z</time>
      </trkpt>
      <trkpt lat="45.94326" lon="6.50128">
        <ele>1096.52</ele>
        <time>2019-03-20T14:35:44Z</time>
      </trkpt>
      <trkpt lat="45.94292" lon="6.50078">
        <ele>1096.52</ele>
        <time>2019-03-20T14:36:00Z</time>
      </trkpt>
      <trkpt lat="45.94292" lon="6.50071">
        <ele>1096.52</ele>
        <time>2019-03-20T14:36:18Z</time>
      </trkpt>
    </trkseg>
  </trk>
</gpx>